[[{"header":{"parameterUnit":"m.s-1","parameterCategory":1,"la1":30.6,"la2":29.2853,"lo1":-89.7004,"lo2":-87.6739,"dy":0.0162,"dx":0.0183,"nx":112,"ny":82,"refTime":"2026-04-12T12:00:00:Z","depth":0,"parameterNumber":2,"parameterNumberName":"U-component_of_WINDS"},"data":[0.0,0.0,0.0,0.0,0.0,0.0,0.0,0.0,0.0,0.0,0.0,0.0,0.0,0.0,0.0,0.0,0.0,0.0,0.0,0.0,0.0,0.0,0.0,0.0,0.0,0.0,0.0,0.0,0.0,0.0,0.0,0.0,0.0,0.0,0.0,0.0,0.0,0.0,0.0,0.0,0.0,0.0,0.0,0.0,0.0,0.0,0.0,0.0,0.0,0.0,0.0,0.0,0.0,0.0,0.0,0.0,0.0,0.0,0.0,0.0,0.0,0.0,0.0,0.0,0.0,0.0,0.0,0.0,0.0,0.0,0.0,0.0,0.0,0.0,0.0,0.0,0.0,0.0,0.0,0.0,0.0,0.0,0.0,0.0,0.0,0.0,0.0,0.0,0.0,0.0,-4.7598,-5.0107,-5.3465,-5.5339,-5.4874,-5.3838,-5.2331,-5.0291,0.0,0.0,0.0,0.0,0.0,0.0,0.0,0.0,0.0,0.0,0.0,0.0,0.0,0.0,0.0,0.0,0.0,0.0,0.0,0.0,0.0,0.0,0.0,0.0,0.0,0.0,0.0,0.0,0.0,0.0,0.0,0.0,0.0,0.0,0.0,0.0,0.0,0.0,0.0,0.0,0.0,0.0,0.0,0.0,0.0,0.0,0.0,0.0,0.0,0.0,0.0,0.0,0.0,0.0,0.0,0.0,0.0,0.0,0.0,0.0,0.0,0.0,0.0,0.0,0.0,0.0,0.0,0.0,0.0,0.0,0.0,0.0,0.0,0.0,0.0,0.0,0.0,0.0,0.0,0.0,0.0,0.0,0.0,0.0,0.0,0.0,0.0,0.0,0.0,0.0,0.0,0.0,0.0,0.0,0.0,0.0,0.0,0.0,0.0,0.0,0.0,0.0,0.0,0.0,-4.6744,-5.1158,-5.2919,-5.3754,-5.3656,-5.1756,-5.0423,-5.0044,0.0,0.0,0.0,0.0,0.0,0.0,0.0,0.0,0.0,0.0,0.0,0.0,0.0,0.0,0.0,0.0,0.0,0.0,0.0,0.0,0.0,0.0,0.0,0.0,0.0,0.0,0.0,0.0,0.0,0.0,0.0,0.0,0.0,0.0,0.0,0.0,0.0,0.0,0.0,0.0,0.0,0.0,0.0,0.0,0.0,0.0,0.0,0.0,0.0,0.0,0.0,0.0,0.0,0.0,0.0,0.0,0.0,0.0,0.0,0.0,0.0,0.0,0.0,0.0,0.0,0.0,0.0,0.0,0.0,0.0,0.0,0.0,0.0,0.0,0.0,0.0,0.0,0.0,0.0,0.0,0.0,0.0,0.0,0.0,0.0,0.0,0.0,0.0,0.0,0.0,0.0,0.0,0.0,0.0,0.0,0.0,0.0,0.0,0.0,0.0,0.0,0.0,0.0,-4.5113,-4.7227,-5.1155,-5.2417,-5.2897,-5.2713,-5.0912,-4.9605,-4.9204,-4.6633,0.0,0.0,0.0,0.0,0.0,0.0,0.0,0.0,0.0,0.0,0.0,0.0,0.0,0.0,0.0,0.0,0.0,0.0,0.0,0.0,0.0,0.0,0.0,0.0,0.0,0.0,0.0,0.0,0.0,0.0,0.0,0.0,0.0,0.0,0.0,0.0,0.0,0.0,0.0,0.0,0.0,0.0,0.0,0.0,0.0,0.0,0.0,0.0,0.0,0.0,0.0,0.0,0.0,0.0,0.0,0.0,0.0,0.0,0.0,0.0,0.0,0.0,0.0,0.0,0.0,0.0,0.0,0.0,0.0,0.0,0.0,0.0,0.0,0.0,0.0,0.0,0.0,0.0,0.0,0.0,0.0,0.0,0.0,0.0,0.0,0.0,0.0,0.0,0.0,0.0,0.0,0.0,0.0,0.0,0.0,0.0,0.0,0.0,0.0,0.0,0.0,0.0,-4.6312,-4.7687,-5.0576,-5.1459,-5.1713,-5.1342,-4.9806,-4.8585,-4.7913,-4.4758,0.0,0.0,0.0,0.0,0.0,0.0,0.0,0.0,0.0,0.0,0.0,0.0,0.0,0.0,0.0,0.0,0.0,0.0,0.0,0.0,0.0,0.0,0.0,0.0,0.0,0.0,0.0,0.0,0.0,0.0,0.0,0.0,0.0,0.0,0.0,0.0,0.0,0.0,0.0,0.0,0.0,0.0,0.0,0.0,0.0,0.0,0.0,0.0,0.0,0.0,0.0,0.0,0.0,0.0,0.0,0.0,0.0,0.0,0.0,0.0,0.0,0.0,0.0,0.0,0.0,0.0,0.0,0.0,0.0,0.0,0.0,0.0,0.0,0.0,0.0,0.0,0.0,0.0,0.0,0.0,0.0,0.0,0.0,0.0,0.0,0.0,0.0,0.0,0.0,0.0,0.0,0.0,0.0,0.0,0.0,0.0,0.0,0.0,0.0,0.0,0.0,0.0,-4.5587,-4.7311,-4.9409,-4.9665,-4.953,-4.9067,-4.7615,-4.6516,-4.6022,-4.353,0.0,0.0,0.0,0.0,0.0,0.0,0.0,0.0,0.0,0.0,0.0,0.0,0.0,0.0,0.0,0.0,0.0,0.0,0.0,0.0,0.0,0.0,0.0,0.0,0.0,0.0,0.0,0.0,0.0,0.0,0.0,0.0,0.0,0.0,0.0,0.0,0.0,0.0,0.0,0.0,0.0,0.0,0.0,0.0,0.0,0.0,0.0,0.0,0.0,0.0,0.0,0.0,0.0,0.0,0.0,0.0,0.0,0.0,0.0,0.0,0.0,0.0,0.0,0.0,0.0,0.0,0.0,0.0,0.0,0.0,0.0,0.0,0.0,0.0,0.0,0.0,0.0,0.0,0.0,0.0,0.0,0.0,0.0,0.0,0.0,0.0,0.0,0.0,0.0,0.0,0.0,0.0,0.0,0.0,0.0,0.0,0.0,0.0,0.0,0.0,0.0,0.0,-4.395,-4.5391,0.0,-4.7623,-4.7657,-4.7725,-4.6712,-4.587,-4.539,0.0,0.0,0.0,0.0,0.0,0.0,0.0,0.0,0.0,0.0,0.0,0.0,0.0,0.0,0.0,0.0,0.0,0.0,0.0,0.0,0.0,0.0,0.0,0.0,0.0,0.0,0.0,0.0,0.0,0.0,0.0,0.0,0.0,0.0,0.0,0.0,0.0,0.0,0.0,0.0,0.0,0.0,0.0,0.0,0.0,0.0,0.0,0.0,0.0,0.0,0.0,0.0,0.0,0.0,0.0,0.0,0.0,0.0,0.0,0.0,0.0,0.0,0.0,0.0,0.0,0.0,0.0,0.0,0.0,0.0,0.0,0.0,0.0,0.0,0.0,0.0,0.0,0.0,0.0,0.0,0.0,0.0,0.0,0.0,0.0,0.0,0.0,0.0,0.0,0.0,0.0,0.0,0.0,0.0,0.0,0.0,0.0,0.0,0.0,0.0,0.0,0.0,-4.1531,-4.2988,-4.4499,0.0,-4.6316,-4.6347,-4.6487,-4.5717,-4.4812,-4.3829,0.0,0.0,0.0,0.0,0.0,0.0,0.0,0.0,0.0,0.0,0.0,0.0,0.0,0.0,0.0,0.0,0.0,0.0,0.0,0.0,0.0,0.0,0.0,0.0,0.0,0.0,0.0,0.0,0.0,0.0,0.0,0.0,0.0,0.0,0.0,0.0,0.0,0.0,0.0,0.0,0.0,0.0,0.0,0.0,0.0,0.0,0.0,0.0,0.0,0.0,0.0,0.0,0.0,0.0,0.0,0.0,0.0,0.0,0.0,0.0,0.0,0.0,0.0,0.0,0.0,0.0,0.0,0.0,0.0,0.0,0.0,0.0,0.0,0.0,0.0,0.0,0.0,0.0,0.0,0.0,0.0,0.0,0.0,0.0,0.0,0.0,0.0,0.0,0.0,0.0,0.0,0.0,0.0,0.0,0.0,0.0,0.0,0.0,0.0,0.0,0.0,0.0,-4.0293,-4.2904,-4.4984,-4.5773,-4.5865,-4.5658,-4.5201,-4.442,-4.3075,0.0,0.0,0.0,0.0,0.0,0.0,0.0,0.0,0.0,0.0,0.0,0.0,0.0,0.0,0.0,0.0,0.0,0.0,0.0,0.0,0.0,0.0,0.0,0.0,0.0,0.0,0.0,0.0,0.0,0.0,0.0,0.0,0.0,0.0,0.0,0.0,0.0,0.0,0.0,0.0,0.0,0.0,0.0,0.0,0.0,0.0,0.0,0.0,0.0,0.0,0.0,0.0,0.0,0.0,0.0,0.0,0.0,0.0,0.0,0.0,0.0,0.0,0.0,0.0,0.0,0.0,0.0,0.0,0.0,0.0,0.0,0.0,0.0,0.0,0.0,0.0,0.0,0.0,0.0,0.0,0.0,0.0,0.0,0.0,0.0,0.0,0.0,0.0,0.0,0.0,0.0,0.0,0.0,0.0,0.0,0.0,0.0,0.0,0.0,0.0,0.0,0.0,0.0,-3.9661,-4.1902,-4.3519,-4.3754,-4.379,-4.3512,-4.2866,-4.2113,-4.1179,-3.9974,0.0,0.0,0.0,0.0,0.0,0.0,0.0,0.0,0.0,0.0,0.0,0.0,0.0,0.0,0.0,0.0,0.0,0.0,0.0,0.0,0.0,0.0,0.0,0.0,0.0,0.0,0.0,0.0,0.0,0.0,0.0,0.0,0.0,0.0,0.0,0.0,0.0,0.0,0.0,0.0,0.0,0.0,0.0,0.0,0.0,0.0,0.0,0.0,0.0,0.0,0.0,0.0,0.0,0.0,0.0,0.0,0.0,0.0,0.0,0.0,0.0,0.0,0.0,0.0,0.0,0.0,0.0,0.0,0.0,0.0,0.0,0.0,0.0,0.0,0.0,0.0,0.0,0.0,0.0,0.0,0.0,0.0,0.0,0.0,0.0,0.0,0.0,0.0,0.0,0.0,0.0,0.0,0.0,0.0,0.0,0.0,0.0,0.0,0.0,0.0,0.0,0.0,-3.8242,-4.0729,-4.2461,-4.2461,-4.2461,-4.2267,-4.1846,-4.1389,-4.041,-3.8685,0.0,0.0,0.0,0.0,0.0,0.0,0.0,0.0,0.0,0.0,0.0,0.0,0.0,0.0,0.0,0.0,0.0,0.0,0.0,0.0,0.0,0.0,0.0,0.0,0.0,0.0,0.0,0.0,0.0,0.0,0.0,0.0,0.0,0.0,0.0,0.0,0.0,0.0,0.0,0.0,0.0,0.0,0.0,0.0,0.0,0.0,0.0,0.0,0.0,0.0,0.0,0.0,0.0,0.0,0.0,0.0,0.0,0.0,0.0,0.0,0.0,0.0,0.0,0.0,0.0,0.0,0.0,0.0,0.0,0.0,0.0,0.0,0.0,0.0,0.0,0.0,0.0,0.0,0.0,0.0,0.0,0.0,0.0,0.0,0.0,0.0,0.0,0.0,0.0,0.0,0.0,0.0,0.0,0.0,0.0,0.0,0.0,0.0,0.0,0.0,0.0,0.0,-3.6509,-3.9518,-4.1656,-4.1744,-4.1744,-4.1709,-4.1639,-4.159,-4.0305,-3.7397,0.0,0.0,0.0,0.0,0.0,0.0,0.0,0.0,0.0,0.0,0.0,0.0,0.0,0.0,0.0,0.0,0.0,0.0,0.0,0.0,0.0,0.0,0.0,0.0,0.0,0.0,0.0,0.0,0.0,0.0,0.0,0.0,0.0,0.0,0.0,0.0,0.0,0.0,0.0,0.0,0.0,0.0,0.0,0.0,0.0,0.0,0.0,0.0,0.0,0.0,0.0,0.0,0.0,0.0,0.0,0.0,0.0,0.0,0.0,0.0,-4.2108,0.0,0.0,0.0,0.0,0.0,0.0,0.0,0.0,0.0,0.0,0.0,0.0,0.0,0.0,0.0,0.0,0.0,0.0,0.0,0.0,0.0,0.0,0.0,0.0,0.0,0.0,0.0,0.0,0.0,0.0,0.0,0.0,0.0,0.0,0.0,0.0,0.0,0.0,0.0,0.0,0.0,-3.6576,-3.8918,-4.0673,-4.1254,-4.1347,-4.1091,-4.0517,-3.9935,-3.8969,-3.7446,-3.6247,0.0,0.0,0.0,0.0,0.0,0.0,0.0,0.0,0.0,0.0,0.0,0.0,0.0,0.0,0.0,0.0,0.0,0.0,0.0,0.0,0.0,0.0,0.0,0.0,0.0,0.0,0.0,0.0,0.0,0.0,0.0,0.0,0.0,0.0,0.0,0.0,0.0,0.0,0.0,0.0,0.0,0.0,0.0,0.0,0.0,0.0,0.0,0.0,0.0,0.0,0.0,0.0,0.0,0.0,0.0,0.0,0.0,0.0,0.0,0.0,-4.1827,0.0,0.0,0.0,0.0,0.0,0.0,0.0,0.0,0.0,0.0,0.0,0.0,0.0,0.0,0.0,0.0,0.0,0.0,0.0,0.0,0.0,0.0,0.0,0.0,0.0,0.0,0.0,0.0,0.0,0.0,0.0,0.0,0.0,0.0,0.0,0.0,0.0,0.0,0.0,0.0,-3.5566,-3.7678,-3.9358,-4.0017,-4.0448,-4.0365,-3.9575,-3.9181,-3.812,-3.6193,-3.5481,0.0,0.0,0.0,0.0,0.0,0.0,0.0,0.0,0.0,0.0,0.0,0.0,0.0,0.0,0.0,0.0,0.0,0.0,0.0,0.0,0.0,0.0,0.0,0.0,0.0,0.0,0.0,0.0,0.0,0.0,0.0,0.0,0.0,0.0,0.0,0.0,0.0,0.0,0.0,0.0,0.0,0.0,0.0,0.0,0.0,0.0,0.0,0.0,0.0,0.0,0.0,0.0,0.0,-4.0763,-4.1125,-4.1641,-4.1641,-4.1641,-4.1629,-4.0892,-4.1003,-4.1686,-4.1503,0.0,0.0,0.0,0.0,0.0,0.0,0.0,0.0,0.0,0.0,0.0,0.0,0.0,0.0,0.0,0.0,0.0,0.0,0.0,0.0,0.0,0.0,0.0,0.0,-3.5562,-3.5256,-3.4088,0.0,0.0,0.0,0.0,0.0,0.0,0.0,0.0,0.0,0.0,0.0,-3.4072,-3.6071,-3.7666,-3.8286,-3.9049,-3.9254,-3.8575,-3.8636,-3.7655,-3.5118,-3.4997,-3.3883,0.0,0.0,0.0,0.0,0.0,0.0,0.0,0.0,0.0,0.0,0.0,0.0,0.0,0.0,0.0,0.0,0.0,0.0,0.0,0.0,0.0,0.0,0.0,0.0,0.0,0.0,0.0,0.0,0.0,0.0,0.0,0.0,-4.0507,-4.0178,0.0,0.0,0.0,0.0,0.0,0.0,0.0,0.0,0.0,0.0,0.0,0.0,0.0,-4.0467,-4.0494,-4.1065,-4.1039,-4.0441,-4.1014,-4.1331,-4.1421,-4.1421,-4.1421,-4.1413,-4.0737,0.0,-4.087,-4.0824,0.0,0.0,0.0,0.0,0.0,0.0,0.0,0.0,0.0,0.0,0.0,0.0,0.0,0.0,0.0,0.0,0.0,0.0,0.0,0.0,0.0,0.0,-3.6356,-3.5659,-3.5508,-3.5315,0.0,-3.3537,-3.2674,-3.2385,-3.2023,0.0,0.0,0.0,0.0,0.0,0.0,0.0,-3.2763,-3.4179,-3.5412,-3.6131,-3.6825,-3.7196,-3.7086,-3.7608,-3.7507,-3.6498,-3.5321,-3.4367,-3.3685,-3.1897,0.0,0.0,0.0,0.0,0.0,0.0,0.0,0.0,0.0,0.0,0.0,0.0,0.0,0.0,0.0,0.0,0.0,0.0,0.0,0.0,0.0,0.0,0.0,0.0,0.0,0.0,0.0,0.0,0.0,-4.0087,-4.0796,-4.1023,-4.0991,-4.056,0.0,0.0,0.0,0.0,0.0,0.0,0.0,0.0,0.0,-4.0489,-4.052,-4.0683,-4.1043,-4.1346,-4.1511,-4.1542,-4.1826,-4.2132,-4.2476,-4.2476,-4.2282,-4.1931,-4.1235,-4.0807,-4.0497,-4.0212,-3.9989,-3.979,0.0,0.0,0.0,0.0,-3.7793,-3.7745,-3.7425,-3.7436,-3.7471,-3.6522,0.0,0.0,0.0,0.0,0.0,0.0,0.0,0.0,0.0,0.0,-3.5863,-3.5579,-3.5504,-3.5429,-3.5115,-3.4258,-3.3303,0.0,-3.2813,-3.2595,-3.0735,0.0,0.0,0.0,0.0,-3.1689,-3.2395,-3.3448,-3.4412,-3.5121,-3.5828,-3.6059,-3.567,-3.5883,-3.5556,-3.4407,-3.4114,-3.3565,-3.2621,-3.2014,-3.1483,0.0,0.0,0.0,0.0,0.0,0.0,0.0,0.0,0.0,0.0,0.0,0.0,0.0,0.0,0.0,0.0,0.0,0.0,0.0,0.0,0.0,0.0,0.0,0.0,0.0,0.0,0.0,0.0,-3.9809,-4.099,-4.1294,-4.1734,-4.1372,0.0,0.0,0.0,0.0,0.0,0.0,-3.8906,-3.9065,-3.9694,-4.0861,-4.0905,-4.122,-4.1878,-4.1878,-4.2132,-4.265,-4.265,-4.2865,-4.329,-4.3125,-4.2821,-4.2351,-4.1527,-4.0846,-4.0329,-3.9619,-3.9482,-3.9692,-3.8795,-3.8245,-3.793,-3.7757,-3.7694,-3.7663,-3.7536,-3.7291,-3.6952,-3.6221,-3.5343,-3.458,-3.458,0.0,0.0,0.0,0.0,-3.4441,-3.4694,-3.5115,-3.5504,-3.5504,-3.5311,-3.5133,-3.5133,-3.4555,-3.3794,0.0,-3.3538,-3.3338,-3.1071,0.0,0.0,0.0,0.0,-3.1355,-3.1864,-3.2634,-3.3334,-3.3844,-3.4541,-3.4748,-3.4166,-3.4277,-3.3905,-3.2826,-3.3072,-3.2778,-3.1711,-3.2019,-3.1807,-3.0898,0.0,0.0,0.0,0.0,0.0,0.0,0.0,0.0,0.0,0.0,0.0,0.0,0.0,0.0,0.0,0.0,0.0,0.0,0.0,0.0,0.0,0.0,0.0,0.0,0.0,0.0,0.0,0.0,0.0,-3.9667,-4.1205,0.0,0.0,0.0,0.0,-3.8402,-3.9571,-4.0299,-4.0292,-4.0891,-4.1587,-4.2276,-4.2306,-4.2581,-4.3185,-4.3185,-4.3215,-4.3245,-4.3245,-4.326,-4.3275,-4.2701,-4.2425,-4.2336,-4.101,-4.0427,-4.0292,-3.9017,-3.8857,-3.9277,-3.7992,-3.7856,-3.8292,-3.7661,-3.7436,-3.7346,-3.676,-3.594,-3.5047,-3.4327,-3.307,-3.1812,-3.1812,-3.1778,0.0,0.0,-3.3556,-3.4235,-3.5201,-3.5474,-3.5504,-3.5504,-3.4758,-3.4061,-3.4061,-3.3366,-3.3022,0.0,-3.3426,-3.2346,-3.1596,0.0,-3.0348,-2.9717,-3.0171,-3.0563,-3.0608,-3.1179,-3.1613,-3.1658,-3.2271,-3.2646,-3.2616,-3.3186,-3.3546,-3.344,-3.2886,-3.2512,-3.2437,-3.1821,-3.1429,-3.1357,-3.0006,0.0,0.0,0.0,0.0,0.0,0.0,0.0,0.0,0.0,0.0,0.0,0.0,0.0,0.0,0.0,0.0,0.0,0.0,0.0,0.0,0.0,0.0,0.0,0.0,0.0,0.0,0.0,0.0,-3.9112,-3.9965,0.0,-3.813,-3.8252,-3.8439,-3.8533,-3.871,-3.9304,-4.0465,-4.0752,-4.12,-4.1843,-4.2599,-4.309,-4.329,-4.329,-4.329,-4.329,-4.329,-4.329,-4.3275,-4.2671,-4.2171,-4.1722,-4.0786,-4.0157,-3.9651,-3.8495,-3.831,-3.8706,-3.8227,-3.7928,-3.7734,-3.7494,-3.6976,-3.6333,-3.576,-3.4858,-3.3878,-3.3297,-3.2702,-3.224,-3.224,-3.224,-3.2324,-3.2688,-3.3362,-3.4095,-3.4428,-3.4543,-3.4543,-3.4543,-3.3788,-3.3101,-3.3101,-3.2855,-3.2639,-3.2757,-3.2027,-3.1052,-2.9938,-2.9645,-2.9334,-2.8663,-2.9608,-3.0161,-2.9608,-3.0215,-3.0748,-3.0748,-3.0938,-3.1308,-3.1825,-3.2064,-3.2198,-3.2198,-3.1989,-3.1634,-3.1114,-3.0837,-3.0666,-3.0633,-2.9663,-2.8872,0.0,0.0,0.0,0.0,0.0,0.0,0.0,0.0,0.0,0.0,0.0,0.0,0.0,0.0,0.0,0.0,0.0,0.0,0.0,0.0,0.0,0.0,0.0,0.0,0.0,0.0,-3.9859,-3.8803,-3.9862,-4.0041,-3.8454,-3.8815,-3.9088,-3.8966,-3.8894,-3.9311,-4.0334,-4.0348,-4.0574,-4.1028,-4.1782,-4.2126,-4.2126,-4.2126,-4.2126,-4.2126,-4.2126,-4.205,-4.1817,-4.1215,-4.0587,-3.9984,-3.9658,-3.9054,-3.8294,-3.7942,-3.7972,-3.8191,-3.8191,-3.8169,-3.8028,-3.746,-3.6827,-3.6071,-3.4574,-3.3453,-3.2562,-3.1877,-3.1659,-3.1659,-3.1659,-3.1659,-3.1719,-3.2033,-3.2558,-3.3136,-3.3449,-3.3518,-3.3518,-3.3518,-3.282,-3.2141,-3.2141,-3.1865,-3.1485,-3.0918,-3.0801,-3.048,-2.938,-2.9095,-2.8864,-2.8402,-2.922,-2.9659,-2.9066,-2.9504,-2.9858,-2.9858,-2.9858,-3.0072,-3.0614,-3.0484,-3.044,-3.0644,-3.0294,-2.9943,-2.9592,-2.9392,-2.9258,-2.923,-2.8331,-2.7576,-2.6979,0.0,0.0,0.0,0.0,0.0,0.0,0.0,0.0,0.0,0.0,0.0,0.0,0.0,0.0,0.0,0.0,0.0,0.0,0.0,0.0,0.0,0.0,0.0,-3.6137,-3.817,-3.9417,-3.8783,-4.0885,-4.1626,-3.9666,-4.0648,-4.0917,-3.9749,-4.0233,-4.0346,-3.9883,-3.9855,-3.9855,-3.9855,-3.9899,-3.9899,-3.9899,-3.9899,-3.9899,-3.9899,-3.9885,-3.9554,-3.8975,-3.8353,-3.7744,-3.723,-3.7589,-3.7175,-3.629,-3.7305,-3.7715,-3.7753,-3.7753,-3.842,-3.9109,-3.7543,-3.6901,-3.639,-3.3249,-3.1719,-3.1007,-3.0113,-2.9792,-2.9792,-2.9792,-2.9792,-3.0011,-3.0895,-3.118,-3.1426,-3.2321,-3.2558,-3.2558,-3.2558,-3.1852,-3.1143,-3.1143,-3.0444,-2.9591,-2.8976,-2.9856,-3.0524,-3.0011,-2.9371,-2.8907,-2.8907,-2.8939,0.0,-2.8939,-2.8939,-2.8971,-2.8971,-2.8971,-2.8971,-2.9002,-2.8512,-2.8415,-2.8933,-2.7919,-2.7561,-2.8138,-2.7601,-2.7298,-2.7298,-2.6034,-2.5067,-2.4392,0.0,0.0,0.0,0.0,0.0,0.0,0.0,0.0,0.0,0.0,0.0,0.0,0.0,0.0,0.0,0.0,0.0,0.0,0.0,0.0,0.0,-3.5648,-3.6741,-3.6741,-3.8073,-3.8991,-3.8884,-3.9468,-3.9661,-3.91,-3.8669,-3.8582,-3.9062,-3.8135,-3.7893,-3.8572,-3.8604,-3.8604,-3.8604,-3.9448,-3.9899,-3.9899,-3.9899,-3.9899,-3.9885,-3.9472,-3.9168,-3.8947,-3.791,-3.7357,-3.719,-3.6805,-3.6487,-3.6172,-3.5722,-3.6001,-3.6643,-3.6643,-3.7059,-3.7521,-3.6302,-3.4879,-3.329,-3.1604,-3.0648,-3.0139,-2.9895,-2.9792,-2.9792,-2.9792,-2.9792,-2.9856,-3.0101,-3.0696,-3.1241,-3.1536,-3.1573,-3.1573,-3.1573,-3.0871,-3.0177,-3.0177,-2.9631,-2.8963,-2.8448,-2.829,-2.8217,-2.8062,-2.7571,-2.7196,-2.7196,-2.767,0.0,-2.7263,-2.7703,-2.8051,-2.8051,-2.8051,-2.8298,-2.8939,-2.8512,-2.8266,-2.8401,-2.7714,-2.7292,-2.7251,-2.7117,-2.7024,-2.7024,-2.5952,-2.4983,0.0,0.0,0.0,0.0,0.0,0.0,0.0,0.0,0.0,0.0,0.0,0.0,0.0,0.0,0.0,0.0,0.0,0.0,0.0,0.0,0.0,0.0,-3.6033,-3.6998,-3.7672,-3.8389,-3.8877,-3.8894,-3.9082,-3.9132,-3.8944,-3.8278,-3.7969,-3.8153,-3.7289,-3.6915,-3.7381,-3.7368,-3.7368,-3.7368,-3.8088,-3.8437,-3.8437,-3.8198,-3.8033,-3.8033,-3.7466,-3.7097,-3.683,-3.6122,-3.5683,-3.5472,-3.5548,-3.5319,-3.4857,-3.4468,-3.466,0.0,0.0,0.0,0.0,0.0,-3.2846,-3.1112,-3.0491,-3.0068,-2.9792,-2.9792,-2.9792,-2.9792,-2.9792,-2.9792,-2.9792,-2.9792,-3.0177,-3.062,-3.062,-3.062,-3.062,-3.062,-3.0216,-2.9729,-2.9478,-2.9164,-2.8662,-2.7908,-2.7507,0.0,-2.7014,-2.6713,-2.6499,-2.6499,-2.6905,-2.704,-2.6555,-2.6905,-2.7196,-2.7196,-2.7196,-2.7384,-2.792,-2.744,0.0,0.0,0.0,-2.6065,-2.5695,-2.532,0.0,0.0,0.0,0.0,0.0,0.0,0.0,0.0,-2.3806,-2.4269,0.0,0.0,0.0,0.0,0.0,0.0,0.0,0.0,0.0,0.0,0.0,0.0,0.0,0.0,0.0,0.0,-3.6726,-3.7209,-3.8705,-3.8919,-3.8944,-3.9007,-3.9346,-3.9408,-3.8969,-3.8806,-3.8316,-3.7262,-3.7123,-3.6872,-3.643,0.0,0.0,0.0,0.0,-3.638,-3.6317,-3.5793,-3.547,-3.5395,-3.4856,-3.4374,-3.3897,-3.3834,-3.3533,-3.3154,-3.4108,-3.3956,-3.3016,-3.3433,-3.3526,-3.3448,-3.3568,-3.4124,-3.4626,-3.265,-3.1009,-2.9792,-2.9792,0.0,0.0,-2.9792,-2.9792,-2.9792,-2.9792,-2.9792,-2.9792,-2.9792,-2.9792,-2.9792,-2.9792,-2.9792,-2.9792,-2.9792,-2.9741,-2.9553,-2.9001,-2.8787,-2.8448,-2.7469,-2.7231,-2.7065,-2.6575,-2.6499,-2.6499,-2.6499,-2.6499,-2.6499,-2.6499,-2.6499,-2.6499,-2.6499,0.0,0.0,-2.6499,-2.5971,-2.5598,-2.5598,-2.5061,-2.4457,-2.3864,-2.3111,-2.2622,-2.2512,-2.1686,-2.1441,-2.1737,-2.1737,-2.177,-2.185,-2.2482,-2.344,0.0,0.0,0.0,0.0,0.0,0.0,0.0,0.0,0.0,0.0,0.0,0.0,0.0,0.0,0.0,-3.5879,-3.7281,-3.8554,-3.8831,-3.8919,-3.9032,-3.9484,-3.9233,-3.8981,-3.8932,-3.804,-3.7425,-3.7199,-3.682,-3.6518,-3.6417,-3.6405,-3.6405,-3.6405,-3.6405,-3.6157,-3.5658,-3.5558,-3.527,-3.4831,0.0,0.0,-3.3884,-3.3432,-3.3224,-3.3124,-3.3313,-3.3005,-3.2365,-3.2449,-3.2016,-3.1296,-3.2188,-3.2123,-3.1418,-3.0597,-3.0061,-2.9792,-2.9792,-2.9792,-2.9792,-2.9792,-2.9792,-2.9792,-2.9792,-2.9792,0.0,-2.9792,-2.9792,-2.9792,-2.9792,-2.9792,-2.9792,-2.9792,-2.944,-2.9026,-2.8913,-2.8235,-2.7544,-2.7318,-2.6952,-2.6612,-2.6512,-2.6499,-2.6499,-2.6499,-2.6499,-2.6499,-2.6499,-2.6499,-2.6499,-2.6499,-2.6499,-2.6499,-2.6499,-2.5971,-2.5598,-2.5598,-2.4783,-2.3927,-2.3006,-2.2786,-2.2681,-2.267,-2.2068,-2.1476,-2.085,-2.085,-2.1066,-2.1498,-2.1901,-2.2226,0.0,0.0,0.0,0.0,0.0,0.0,0.0,0.0,0.0,0.0,0.0,-3.5426,-3.5782,0.0,-3.7122,-3.7207,-3.814,-3.8969,-3.9245,-3.9095,-3.902,-3.9245,-3.8781,-3.8329,-3.8102,-3.7513,-3.7073,-3.6832,-3.6568,-3.6405,-3.6405,-3.6405,-3.6405,-3.6405,-3.6094,-3.5818,-3.5495,-3.4956,-3.4575,-3.4299,-3.3759,-3.3483,-3.3483,-3.3206,-3.3124,-3.3056,-3.2767,-3.2478,-3.2177,-3.1637,-3.0934,-3.0245,-3.0791,-3.0675,-3.0168,-2.9892,-2.9792,-2.9792,-2.9792,-2.9792,-2.9792,-2.9792,-2.9792,-2.9792,-2.9792,-2.9792,-2.9792,-2.9792,-2.9792,-2.9792,-2.9792,-2.9792,-2.9792,-2.9792,-2.9352,-2.8813,-2.8574,-2.7871,-2.7241,-2.6952,-2.6688,-2.6499,-2.6499,-2.6499,-2.6499,-2.6499,-2.6499,-2.6499,-2.6499,-2.6499,-2.6499,-2.6499,-2.6235,-2.6185,-2.6461,-2.5518,-2.5025,-2.5294,-2.4142,-2.3222,-2.2715,-2.2287,-2.2035,-2.1952,-2.1269,-2.0808,-2.0612,-2.0612,-2.0761,-2.1011,-2.1176,-2.1782,0.0,0.0,0.0,0.0,0.0,0.0,0.0,0.0,-3.3003,-3.4923,-3.5366,-3.5768,-3.7098,-3.7437,-3.7814,-3.8768,-3.9007,-3.9145,-3.9484,-3.9057,-3.8668,-3.8555,-3.8128,-3.7663,-3.7224,-3.7086,-3.6883,-3.6443,-3.6405,-3.6405,-3.6405,-3.6405,-3.6405,-3.6405,-3.583,-3.5445,-3.5345,-3.4399,-3.3847,-3.3734,-3.3294,-3.3124,-3.3124,-3.3124,-3.3061,-3.2867,-3.219,-3.1901,-3.1825,-3.0859,-3.0193,-2.9792,-2.9792,-2.9792,-2.9792,-2.9792,-2.9792,-2.9792,-2.9792,-2.9792,-2.9792,-2.9792,-2.9792,-2.9792,-2.9792,-2.9792,-2.9792,-2.9792,-2.9792,-2.9792,-2.9792,-2.9792,-2.9792,-2.9792,-2.9264,-2.8612,-2.8197,-2.7595,-2.7027,-2.6575,-2.6499,-2.6499,-2.6499,-2.6499,-2.6499,-2.6499,-2.6499,-2.6499,-2.6499,-2.6399,-2.6336,-2.6336,-2.5787,-2.5607,-2.6034,-2.4843,-2.4155,-2.4385,-2.3253,-2.249,-2.2284,-2.1639,-2.1197,-2.1086,-2.0406,-2.0215,-2.0605,-2.0605,-2.0605,-2.0605,-2.0605,-2.1451,-3.7167,-3.5534,-3.3744,-3.2426,-3.1248,-3.1196,0.0,0.0,-3.4161,-3.7044,-3.7638,-3.7701,-3.7889,-3.8329,-3.873,-3.8906,-3.9283,-3.9459,-3.9032,-3.8467,-3.7914,-3.7425,-3.7312,-3.7249,-3.7199,-3.6782,-3.6468,-3.6417,-3.6405,-3.6405,-3.6405,-3.6405,-3.6405,-3.6405,-3.583,-3.5257,-3.4768,-3.4211,-3.3658,-3.3212,-3.3106,-3.3124,-3.3124,-3.3124,-3.2805,-3.2252,-3.1235,-3.0796,-3.0746,-3.0143,-2.9842,-2.9792,-2.9792,-2.9792,-2.9792,-2.9792,-2.9792,-2.9792,-2.9792,-2.9792,-2.9792,-2.9792,-2.9792,-2.9792,-2.9792,-2.9792,-2.9792,-2.9792,-2.9792,-2.9792,-2.9792,-2.9792,-2.9792,-2.9792,-2.8976,-2.8185,-2.8122,-2.7293,-2.6562,-2.6499,-2.6499,-2.6499,-2.6499,-2.6499,-2.6499,-2.6499,-2.6499,-2.6499,-2.6499,-2.6047,-2.5686,-2.5686,-2.5222,-2.4781,-2.4486,-2.3917,-2.3239,-2.2392,-2.2173,-2.17,-2.0864,-2.0759,-2.0681,-2.0681,-2.0566,-2.0556,-2.0605,-2.0605,-2.0605,-2.0605,-2.0605,-2.0712,-3.5952,-3.5253,-3.4577,-3.3748,-3.3017,-3.2995,-3.4705,-3.474,-3.4948,-3.6848,-3.7914,-3.8605,-3.8931,-3.9182,-3.9346,0.0,-3.9546,-3.9496,-3.8994,-3.8366,-3.7801,-3.7249,-3.6897,-3.6757,-3.6757,-3.6543,-3.6405,-3.6405,-3.6405,-3.6405,-3.6405,-3.6405,-3.6267,-3.5893,-3.5353,-3.4756,-3.4248,-3.3696,-3.3307,-3.3124,-3.3124,-3.3124,-3.3111,-3.2729,-3.2102,-3.126,-3.0809,-3.0432,-3.0118,-2.9892,-2.9792,-2.9792,-2.9792,-2.9792,-2.9792,-2.9792,-2.9792,-2.9792,-2.9792,-2.9792,-2.9792,-2.9792,-2.9792,-2.9792,-2.9792,-2.9792,-2.9792,-2.9792,-2.9792,-2.9792,-2.9792,-2.9792,-2.9704,-2.9365,-2.8687,-2.8009,-2.7695,-2.7052,-2.6499,-2.6499,-2.6499,-2.6499,-2.6499,-2.6025,-2.5629,-2.5629,-2.6129,-2.6499,-2.6499,-2.6285,-2.5793,-2.4883,-2.4864,-2.4487,-2.3409,-2.2907,-2.244,-2.2027,-2.1489,-2.0891,-2.0233,-2.0468,-2.0488,-2.0195,-2.0478,-2.0605,-2.0605,-2.0605,-2.0605,-2.0605,-2.0605,-2.0605,-3.4977,-3.4969,-3.5153,-3.4718,-3.4448,-3.4379,-3.4766,-3.489,-3.5203,-3.6422,-3.7557,-3.85,-3.9131,-3.9233,-3.9283,-3.9433,-3.9471,-3.927,-3.8718,-3.8278,-3.7751,-3.7048,-3.6656,-3.6405,-3.6405,-3.6405,-3.6405,-3.6405,-3.6405,-3.6405,-3.6405,-3.6267,-3.5956,-3.5508,-3.4818,-3.4299,-3.3897,-3.3357,-3.3124,-3.3124,-3.3124,-3.2993,-3.2817,-3.2102,-3.1348,-3.0608,-3.0457,-3.0168,-2.9792,-2.9792,-2.9792,-2.9792,-2.9792,-2.9792,-2.9792,-2.9792,-2.9792,-2.9792,-2.9792,-2.9792,-2.9792,-2.9792,-2.9792,-2.9792,-2.9792,-2.9792,-2.9792,-2.9792,-2.9792,-2.9792,-2.9792,-2.9792,-2.9641,-2.9026,-2.8511,-2.7959,-2.7442,-2.6889,-2.6418,-2.6129,-2.6094,-2.5978,-2.5721,-2.5063,-2.46,-2.46,-2.5217,-2.5756,-2.606,-2.6177,-2.5648,-2.4133,-2.419,-2.3778,-2.224,-2.1813,-2.1518,-2.1271,-2.0833,-2.041,-1.9932,-2.0332,-2.0458,-2.0098,-2.0449,-2.0605,-2.0605,-2.0605,-2.0605,-2.0605,-2.0605,-2.0605,-3.4831,-3.4726,-3.467,-3.4487,-3.441,-3.4419,-3.4604,-3.4612,-3.4986,-3.6407,-3.6744,-3.7015,-3.7892,-3.8052,-3.8241,-3.8856,-3.8944,-3.8693,-3.8115,-3.8015,-3.76,-3.6568,-3.6417,-3.6405,0.0,-3.6405,-3.6405,-3.6405,-3.6405,-3.6405,-3.6405,-3.5868,-3.552,-3.5495,-3.45,-3.3922,-3.3897,-3.3357,-3.3124,-3.3124,-3.3124,-3.278,-3.2202,-3.1148,-3.0645,-3.0583,-3.0043,-2.9817,-2.9792,-2.9792,-2.9792,-2.9792,-2.9792,-2.9792,-2.9792,-2.9792,-2.9792,-2.9792,-2.9792,-2.9792,-2.9792,-2.9792,-2.9792,-2.9792,-2.9792,-2.9792,-2.9792,-2.9792,-2.9792,-2.9792,-2.9792,-2.9792,-2.9641,-2.9026,-2.8511,-2.7959,-2.7442,-2.6889,-2.6198,-2.5229,-2.5052,-2.4743,-2.377,-2.3551,-2.3562,-2.3562,-2.3551,-2.3927,-2.4933,-2.5394,-2.5033,-2.3494,-2.3006,-2.2182,-2.0761,-2.0662,-2.0281,-1.9448,-2.0145,-2.041,-1.9932,-2.0332,-2.0595,-2.0586,-2.0595,-2.0605,-2.0605,-2.0605,-2.0605,-2.0605,-2.0605,-2.0605,-3.5169,-3.5219,-3.5303,-3.5637,-3.5284,-3.4911,-3.5298,-3.5393,-3.5549,-3.6014,-3.6579,-3.711,-3.7439,-3.7462,-3.7651,-3.8203,-3.8617,-3.8668,-3.809,-3.8002,-3.76,-3.6543,-3.6405,0.0,0.0,0.0,0.0,-3.638,-3.6031,-3.5818,-3.5818,-3.5596,-3.5157,-3.4474,-3.4098,-3.3721,-3.3357,-3.3212,-3.288,-3.2503,-3.2139,-3.1675,-3.1135,-3.0743,-3.0419,-3.0055,-2.988,-2.9792,-2.9753,-2.8976,-2.9106,-2.9702,-2.8976,-2.9145,-2.9792,-2.9792,-2.9326,-2.8767,-2.9534,-2.9792,-2.9792,-2.9792,-2.9792,-2.9792,-2.9792,-2.9792,-2.9792,-2.9792,-2.9792,-2.9792,-2.9792,-2.9792,-2.9387,-2.7762,-2.7767,-2.7664,-2.6115,-2.5645,-2.5406,-2.5087,-2.4445,-2.3891,-2.3551,-2.2962,-2.2515,-2.2515,-2.3635,-2.46,-2.4969,-2.5108,-2.4765,-2.3544,-2.2482,-2.1492,-2.0664,-2.006,-1.9717,-1.9707,-1.9717,-1.9521,-1.9046,-1.9482,-1.958,-1.9287,-1.9844,-2.0137,-2.0137,-2.0458,-2.0605,-2.0605,-2.0605,-2.0605,-3.5584,-3.5646,-3.5968,-3.6521,-3.6209,-3.5789,-3.58,-3.5817,-3.571,-3.528,-3.5707,-3.6158,-3.6275,-3.6307,-3.6546,-3.7299,-3.7889,-3.8203,-3.804,-3.8002,-3.7663,-3.6807,-3.6531,-3.6405,0.0,0.0,0.0,-3.6031,-3.5696,-3.542,-3.5219,-3.5019,-3.4625,-3.3922,-3.3709,-3.3432,-3.3124,-3.2867,-3.2491,-3.1913,-3.1373,-3.0934,-3.0608,-3.0407,-3.0131,-2.9792,-2.9365,-2.9197,-2.9106,-2.7988,-2.7947,-2.8542,-2.7815,-2.7988,-2.8633,-2.8633,-2.8159,-2.7695,-2.8819,-2.8949,-2.8661,-2.9079,-2.9197,-2.9275,-2.9663,-2.9792,-2.9792,-2.9792,-2.9792,-2.9792,-2.9792,-2.9495,-2.8746,-2.7004,-2.6801,-2.6537,-2.4822,-2.4445,-2.4373,-2.4,-2.3404,-2.285,-2.2526,-2.1924,-2.1479,-2.1479,-2.2888,-2.4047,-2.4409,-2.4445,-2.4072,-2.3073,-2.2136,-2.125,-2.0427,-1.9834,-1.9492,-1.9426,-1.9355,-1.9092,-1.8617,-1.9053,-1.9228,-1.9056,-1.9592,-1.999,-2.0146,-2.0468,-2.0605,-2.0605,-2.0605,-2.0605,-3.6154,-3.6142,-3.6707,-3.7142,-3.7232,-3.7006,-3.6045,-3.5824,-3.5476,-3.4515,-3.4253,-3.4294,-3.4628,-3.468,-3.5077,-3.6191,-3.6857,-3.7362,-3.7889,-3.7965,-3.7764,0.0,0.0,0.0,0.0,0.0,0.0,-3.542,0.0,-3.5194,-3.4713,-3.4141,-3.3796,-3.3759,-3.3214,-3.2914,-3.2902,-3.2344,-3.178,-3.1254,-3.0781,-3.057,-3.0557,-3.003,-2.9753,-2.9663,-2.8557,-2.8084,-2.7924,-2.6842,-2.6431,-2.6472,-2.6431,-2.6431,-2.6524,-2.6524,-2.6472,-2.6554,-2.7562,-2.7279,-2.6678,-2.7683,-2.8044,-2.8307,-2.9404,-2.9702,-2.9714,-2.9792,-2.9714,-2.9624,-2.9714,-2.8858,-2.7743,-2.6688,-2.5716,-2.4724,-2.3653,-2.3404,-2.3147,-2.2178,-2.1952,-2.1669,-2.075,-2.0605,-2.0605,-2.0605,-2.1375,-2.2291,-2.3294,-2.343,-2.304,-2.2103,-2.1899,-2.1288,-2.0017,-1.9853,-1.9446,-1.8656,-1.9004,-1.9033,-1.8588,-1.9004,-1.9414,-1.9844,-1.9873,-2.0098,-2.0566,-2.0595,-2.0605,-2.0605,-2.0605,-2.0605,-3.8797,-3.8898,-3.8823,-3.8077,-3.7899,-3.7568,-3.6518,-3.5909,-3.5614,-3.5786,-3.4845,-3.4144,-3.461,-3.468,0.0,-3.5596,-3.6558,0.0,-3.7374,-3.7387,0.0,-3.6681,0.0,-3.6405,-3.6405,-3.5742,0.0,0.0,-3.455,-3.4261,-3.411,-3.3134,-3.2361,-3.1894,-3.0892,-3.0188,-2.9906,-2.9779,-2.9668,-2.9523,-2.9863,-2.9993,-2.9993,-2.9854,-2.9326,-2.8518,-2.8215,-2.7643,-2.6842,-2.5714,-2.5714,-2.6431,-2.5588,-2.5755,-2.6524,-2.6524,-2.5975,-2.5252,-2.5535,-2.6005,-2.6565,-2.6801,-2.7452,-2.8164,-2.8438,-2.8518,-2.8727,-2.9573,-2.8633,-2.7516,-2.8319,-2.7735,-2.647,-2.4704,-2.463,-2.4531,-2.2757,-2.2366,-2.2291,-2.2027,-2.1441,-2.0895,-2.0644,-2.0605,-2.0605,-2.0605,-2.0779,-2.1298,-2.2253,-2.2104,-2.1945,-2.1996,-2.047,-1.9581,-1.9873,-1.9043,-1.85,-1.8598,-1.8447,-1.8291,-1.8174,-1.8281,-1.8535,-1.8919,-1.9277,-1.9658,-2.0078,-2.0449,-2.0605,-2.0605,-2.0605,-2.0605,-4.0433,-4.0272,-4.0085,-3.9118,-3.8514,-3.7807,-3.6703,-3.5935,-3.5307,-3.4675,-3.401,-3.3558,-3.3608,-3.3298,-3.3527,0.0,0.0,0.0,-3.6223,-3.5792,-3.5337,0.0,-3.5308,0.0,-3.4426,-3.4817,-3.447,0.0,-3.2937,-3.2995,-3.2749,-3.1584,-3.0753,-3.0406,-2.9557,-2.8802,-2.8139,-2.8161,-2.8091,-2.7871,-2.8182,-2.8343,-2.8343,-2.8343,-2.7999,-2.736,0.0,-2.6326,-2.5672,-2.45,-2.4425,-2.4935,-2.4296,-2.4425,-2.502,-2.502,-2.4595,-2.4049,-2.4049,-2.4467,-2.5105,-2.5599,-2.616,-2.6737,-2.7238,-2.7412,-2.7533,-2.8171,-2.7464,-2.6648,-2.7238,-2.6584,-2.535,-2.3875,-2.3583,-2.3232,-2.1722,-2.1375,-2.1375,-2.1375,-2.0972,-2.0605,-2.0605,-2.0605,-2.0605,-2.0605,-2.0605,-2.0789,-2.1336,-2.1199,-2.1138,-2.1344,-2.0061,-1.9358,-1.9873,-1.888,-1.8354,-1.8588,-1.8208,-1.8008,-1.8008,-1.8184,-1.8486,-1.8916,-1.9346,-1.9775,-2.0195,-2.0488,-2.0605,-2.0605,-2.0605,-2.0605,-4.1702,-4.1185,-4.0946,-4.027,-3.9292,-3.81,-3.6804,-3.5947,-3.4785,-3.2717,-3.2604,-3.2742,-3.239,-3.1766,-3.197,-3.4107,0.0,-3.3012,-3.4584,-3.3798,-3.3106,-3.3106,-3.3692,-3.3476,-3.1867,-3.3348,-3.3247,-3.0415,-3.117,-3.1484,-3.0968,-2.9818,-2.9063,-2.8859,-2.8375,-2.7723,-2.6828,-2.6932,-2.673,-2.6265,-2.6442,-2.6524,-2.6524,-2.6524,-2.6431,-2.6224,-2.521,-2.4702,-2.45,-2.3507,-2.3091,-2.3091,-2.3091,-2.3091,-2.3091,-2.3091,-2.3091,-2.3091,-2.3091,-2.3091,-2.3256,-2.4253,-2.467,-2.4999,-2.5964,-2.6265,-2.6307,-2.6483,-2.6265,-2.6058,-2.6224,-2.5377,-2.4283,-2.3471,-2.2534,-2.1572,-2.0781,-2.0605,-2.0605,-2.0605,-2.0605,-2.0605,-2.0605,-2.0605,-2.0605,-2.0605,-2.0605,-2.0605,-2.0605,-2.0556,-2.0537,-2.0595,-2.0127,-1.9853,-1.9912,-1.9143,-1.8666,-1.8607,-1.8256,-1.8096,-1.8096,-1.8403,-1.8867,-1.9365,-1.9727,-2.0127,-2.0605,-2.0605,-2.0605,-2.0605,-2.0605,-2.0605,-4.377,-4.3301,-4.2614,-4.1589,-4.0728,-3.9508,-3.7043,-3.5647,0.0,-3.3207,-3.2265,-3.1938,-3.2767,-3.2821,-3.2783,-3.3008,-3.3161,-3.3196,-3.2839,-3.2617,-3.2465,0.0,-3.26,-3.2402,-3.1768,-3.2522,0.0,0.0,-2.9997,-2.9817,-2.9727,-2.8588,-2.727,-2.5876,-2.5083,-2.4591,-2.4395,-2.494,-2.52,-2.5126,-2.6058,-2.6524,-2.6524,-2.6524,-2.5975,-2.5083,-2.4872,0.0,-2.3387,-2.3178,-2.3091,-2.3091,-2.3091,-2.3091,-2.3091,-2.3091,-2.3091,-2.3091,-2.3091,-2.3091,-2.3135,-2.3343,-2.4049,-2.483,-2.5041,-2.5083,-2.5294,-2.6224,-2.5147,-2.3887,-2.484,-2.3987,-2.2777,-2.2272,-2.1724,-2.1211,-2.0713,-2.0605,-2.0605,-2.0605,-2.0605,-2.0605,-2.0605,-2.0605,-2.0605,-2.0605,-2.0605,-2.0605,-2.0605,-2.0254,-2.0166,-2.0566,-1.9863,-1.9541,-1.9883,-1.9463,-1.9023,-1.8627,-1.8529,-1.849,-1.849,-1.8559,-1.8968,-1.9785,-1.9873,-2.0127,-2.0605,-2.0605,-2.0605,-2.0605,-2.0605,-2.0605,-4.4407,-4.4092,-4.3588,-4.2718,-4.1797,-4.034,-3.7263,0.0,0.0,-3.1896,-3.1173,-3.1148,-3.17,-3.1457,0.0,-3.2316,-3.1251,-3.0574,-3.137,-3.0339,0.0,-3.0161,-3.0662,-3.0482,0.0,-3.0545,-3.0422,-2.8031,-2.8203,-2.8448,-2.8448,-2.7076,-2.5718,-2.447,-2.4004,-2.3682,-2.3457,-2.3737,-2.392,-2.392,-2.4478,-2.4723,-2.4723,-2.4723,-2.4425,-2.392,-2.392,-2.3594,-2.3091,-2.3091,-2.3091,-2.3091,-2.3091,-2.3091,-2.3091,-2.3091,-2.3091,-2.3091,-2.3091,-2.3091,-2.3091,-2.3091,-2.3464,-2.392,-2.392,-2.392,-2.4049,-2.4563,-2.393,-2.3222,-2.3757,-2.3189,-2.2402,-2.1992,-2.1377,-2.083,-2.0644,-2.0605,-2.0605,-2.0605,-2.0605,-2.0605,-2.0605,-2.0605,-2.0605,-2.0605,-2.0605,-2.0605,-2.0605,-2.0381,-2.0332,-2.0586,-1.999,-1.9697,-1.9893,-1.9531,-1.9199,-1.8984,-1.8975,-1.8975,-1.8975,-1.9189,-1.9455,-1.9902,-2.0137,-2.04,-2.0605,-2.0605,-2.0605,-2.0605,-2.0605,-2.0605,-4.4451,-4.4212,-4.3947,-4.3424,-4.2541,-4.0929,-3.765,-3.6235,0.0,-3.0855,-3.0287,-3.047,-3.0595,-3.0069,-3.0116,0.0,-2.9746,-2.8646,-2.9913,-2.8626,-2.7663,0.0,-2.8754,0.0,-2.7025,-2.8617,0.0,-2.5908,-2.6529,-2.7065,-2.7065,-2.5625,-2.4482,-2.3809,-2.3701,-2.3486,-2.3101,-2.3091,-2.3091,-2.3091,-2.3091,-2.3091,-2.3091,-2.3091,-2.3091,-2.3091,-2.3091,-2.3091,-2.3091,-2.3091,-2.3091,-2.3091,-2.3091,-2.3091,-2.3091,-2.3091,-2.3091,-2.3091,-2.3091,-2.3091,-2.3091,-2.3091,-2.3091,-2.3091,-2.3091,-2.3091,-2.3091,-2.3091,-2.3091,-2.3091,-2.3091,-2.2721,-2.2246,-2.1728,-2.1114,-2.0605,-2.0605,-2.0605,-2.0605,-2.0605,-2.0605,-2.0605,-2.0605,-2.0605,-2.0605,-2.0605,-2.0605,-2.0605,-2.0605,-2.0605,-2.0605,-2.0605,-2.0254,-2.0059,-2.0059,-1.9746,-1.9558,-1.9424,-1.9424,-1.9424,-1.9424,-1.9736,-1.9961,-2.0049,-2.0429,-2.0605,-2.0605,-2.0605,-2.0605,-2.0605,-2.0605,-2.0654,-4.4332,-4.3883,-4.3364,-4.3305,-4.2802,-4.1531,-3.8556,0.0,-3.4725,-3.1713,-3.0419,-3.0018,-3.052,-3.0526,-3.047,-3.04,-3.0546,-3.0114,-2.847,-2.8838,-2.8758,-2.7312,0.0,0.0,-2.6523,-2.7631,-2.7648,-2.5859,-2.5447,-2.5307,-2.5307,-2.4438,-2.3867,-2.3789,-2.3408,-2.314,-2.3091,-2.3091,-2.3091,-2.3091,-2.3091,-2.3091,-2.3091,-2.3091,-2.3091,-2.3091,-2.3091,0.0,0.0,-2.3091,-2.3091,-2.3091,-2.3091,-2.3091,-2.3091,-2.3091,-2.3091,-2.3091,-2.3091,-2.3091,-2.3091,-2.3091,-2.3091,-2.3091,-2.3091,-2.3091,-2.3091,-2.3091,-2.3091,-2.3091,-2.3091,-2.2549,-2.1728,-2.0928,-2.0664,-2.0605,-2.0605,-2.0605,-2.0605,-2.0605,-2.0605,-2.0605,-2.0605,-2.0605,-2.0605,-2.0605,-2.0605,-2.0605,-2.0605,-2.0605,-2.0605,-2.0605,-2.0566,-2.0546,-2.0546,-2.0507,-2.0312,-1.9883,-1.9853,-1.9853,-1.9853,-1.9893,-2.0098,-2.0537,-2.0586,-2.0605,-2.0605,-2.0605,-2.0605,-2.0605,-2.0605,-2.0781,-4.3614,-4.3484,-4.329,-4.329,-4.3135,-4.2064,-3.8757,-3.7082,-3.5259,-3.1902,-3.0457,-2.9867,-3.008,-3.0118,-3.0086,-2.9963,-2.9544,-2.9246,-2.9297,-2.847,-2.788,-2.8044,-2.738,0.0,0.0,0.0,-2.6315,-2.5409,-2.4687,-2.4297,-2.4297,-2.3975,-2.3672,-2.3408,-2.3188,-2.3091,-2.3091,-2.3091,-2.3091,-2.3091,-2.3091,-2.3091,-2.3091,-2.3091,-2.3091,-2.3091,-2.3091,0.0,0.0,-2.3091,-2.3091,-2.3091,-2.3091,-2.3091,-2.3091,-2.3091,-2.3091,-2.3091,-2.3091,-2.3091,-2.3091,-2.3091,-2.3091,-2.3091,-2.3091,-2.3091,-2.3091,-2.3091,-2.3091,-2.3091,-2.3091,-2.2519,-2.166,-2.082,-2.0605,-2.0605,-2.0605,-2.0605,-2.0605,-2.0605,-2.0605,-2.0605,-2.0605,-2.0605,-2.0605,-2.0605,-2.0605,-2.0605,-2.0605,-2.0605,-2.0605,-2.0605,-2.0605,-2.0498,-2.0195,-2.0449,-2.0381,-1.9941,-2.0166,-2.0303,-2.0303,-2.0303,-2.0429,-2.0595,-2.0605,-2.0605,-2.0605,-2.0605,-2.0605,-2.0605,-2.0605,-2.081,-4.3006,-4.3006,-4.2806,-4.2985,-4.2895,-4.1948,-3.8832,-3.739,-3.5763,-3.231,-3.0871,-3.0139,-2.9869,-2.9792,-2.9792,-2.9792,-2.9404,-2.9261,-2.9704,-2.8467,-2.7607,0.0,0.0,-2.6094,0.0,-2.5527,-2.5166,-2.4773,-2.4131,-2.373,-2.3603,-2.3594,-2.3457,-2.311,-2.3091,-2.3091,-2.3091,-2.3091,-2.3091,-2.3091,-2.3091,-2.3091,-2.3091,-2.3091,-2.3091,-2.3091,-2.3091,0.0,0.0,-2.3091,-2.3091,-2.3091,-2.3091,-2.3091,-2.3091,-2.3091,-2.3091,-2.3091,-2.3091,-2.3091,-2.3091,-2.3091,-2.3091,-2.3091,-2.3091,-2.3091,-2.3091,-2.3091,-2.3091,-2.3042,-2.2789,-2.2324,-2.166,-2.082,-2.0605,-2.0605,-2.0605,-2.0605,-2.0605,-2.0605,-2.0605,-2.0605,-2.0605,-2.0605,-2.0605,-2.0605,-2.0605,-2.0605,-2.0605,-2.0605,-2.0605,-2.0605,-2.0605,-2.0478,-2.0137,-2.0429,-2.0478,-2.0127,-2.0111,-2.0284,-2.0605,-2.0284,-2.0284,-2.0605,-2.0605,-2.0605,-2.0605,-2.0605,-2.0674,-2.0762,-2.0762,-2.1064,-4.2766,-4.2387,-4.1602,-4.2246,-4.1916,-4.0876,-3.8856,-3.7651,-3.6163,-3.3195,-3.1852,-3.0895,-2.9972,-2.9792,-2.9792,-2.9792,-3.0683,-3.0753,-2.9058,-2.9139,-2.8538,0.0,0.0,-2.5352,-2.4521,-2.4434,-2.4258,-2.3838,-2.3799,0.0,-2.312,-2.3101,-2.3101,-2.3091,-2.3091,-2.3091,-2.3091,-2.3091,-2.3091,-2.3091,-2.3091,-2.3091,-2.3091,-2.3091,-2.3091,-2.3091,0.0,0.0,0.0,-2.3091,-2.3091,-2.3091,-2.3091,-2.3091,-2.3091,-2.3091,-2.3091,-2.3091,-2.3091,-2.3091,-2.3091,-2.3091,-2.3091,-2.3091,-2.3091,-2.3091,-2.3091,-2.3091,-2.3091,-2.2906,-2.2119,-2.1894,-2.166,-2.082,-2.0605,-2.0605,-2.0605,-2.0605,-2.0605,-2.0605,-2.0605,-2.0605,-2.0605,-2.0605,-2.0605,-2.0605,-2.0605,-2.0605,-2.0605,-2.0605,-2.0605,-2.0605,-2.0605,-2.0605,-2.0595,-2.0605,-2.0605,-2.0595,-1.9599,-1.9481,-2.0566,-1.9559,-1.952,-2.0566,-2.0605,-2.0605,-2.0605,-2.0605,-2.0791,-2.119,-2.119,-2.1639,-4.0449,-4.0681,-4.0651,-4.0412,-4.0187,-3.9634,-3.8078,-3.7011,-3.5604,-3.3112,-3.1852,-3.0895,-2.996,-2.9792,-2.9917,-3.0294,-3.0633,-3.0546,-2.9612,0.0,0.0,-2.6845,-2.5842,-2.5166,0.0,0.0,-2.3935,-2.3799,-2.3516,-2.3247,-2.3101,-2.3091,-2.3091,-2.3091,-2.3091,-2.3091,-2.3091,-2.3091,-2.3091,-2.3091,-2.3091,-2.3091,-2.3091,-2.3091,-2.3091,0.0,0.0,0.0,-2.3091,-2.3091,-2.3091,-2.3091,-2.3091,-2.3091,-2.3091,-2.3091,-2.3091,-2.3091,-2.3091,-2.3091,-2.3091,-2.3091,-2.3091,-2.3091,-2.3091,-2.3091,-2.3091,-2.3091,-2.3091,-2.2896,-2.21,-2.1885,-2.166,-2.082,-2.0605,-2.0605,-2.0605,-2.0605,-2.0605,-2.0605,-2.0605,-2.0605,-2.0605,-2.0605,-2.0605,-2.0605,-2.0605,-2.0605,-2.0605,-2.0605,-2.0605,-2.0605,-2.0605,-2.0488,-2.0146,-2.0429,-2.0159,-1.9073,-1.9009,-1.8798,-1.835,-1.8749,-1.9155,-1.9481,-2.0504,-2.0869,-2.0605,-2.1212,-2.1543,-2.1689,-2.1973,-2.2256,-3.9092,-3.9349,-3.923,-3.9065,-3.8576,-3.7836,-3.6758,-3.5766,-3.4524,-3.2477,-3.1609,-3.0895,-2.996,-2.9792,-2.9905,-3.0244,-3.0645,-3.0496,-2.9301,0.0,0.0,-2.6434,0.0,0.0,0.0,-2.4043,-2.3545,-2.3545,-2.3247,-2.3091,-2.3091,-2.3091,-2.3091,-2.3091,-2.3091,-2.3091,-2.3091,-2.3091,-2.3091,-2.3091,-2.3091,-2.3091,-2.3091,-2.3091,-2.3091,0.0,0.0,-2.3091,0.0,-2.3091,-2.3091,-2.3091,-2.3091,-2.3091,-2.3091,-2.3091,-2.3091,-2.3091,-2.3091,-2.3091,-2.3091,-2.3091,-2.3091,-2.3091,-2.3091,-2.3091,-2.3091,-2.3091,-2.3091,-2.2896,-2.21,-2.1885,-2.166,-2.082,-2.0605,-2.0605,-2.0605,-2.0284,-2.0001,-2.0001,-2.0001,-2.0001,-2.0001,-2.0323,-2.0605,-2.0605,-2.0605,-2.0605,-2.0605,-2.0605,-2.0605,-2.0605,-2.0605,-2.0488,-2.0185,-2.0449,-2.0168,-1.9235,-1.8655,-1.823,-1.794,-1.823,-1.862,-1.9214,-2.0514,-2.1182,-2.1104,-2.1777,-2.2129,-2.2129,-2.2549,-2.2711,0.0,-3.8137,-3.7479,-3.8048,-3.6996,-3.5697,-3.507,-3.4207,0.0,-3.1532,-3.1217,-3.0895,-2.996,-2.9792,-2.9804,-2.9842,-3.0628,-3.0498,0.0,-2.8297,0.0,0.0,-2.4355,0.0,-2.4375,-2.3598,-2.3091,-2.3091,-2.3091,-2.3091,-2.3091,-2.3091,-2.3091,-2.3091,-2.3091,-2.3091,-2.3091,-2.3091,-2.3091,-2.3091,-2.3091,-2.3091,-2.3091,-2.3091,-2.3091,0.0,-2.3091,-2.3091,-2.3091,-2.3091,-2.3091,-2.3091,-2.3091,-2.3091,-2.3091,-2.3091,-2.3091,-2.3091,-2.3091,-2.3091,-2.3091,-2.3091,-2.3091,-2.3091,-2.3091,-2.3091,-2.3091,-2.3091,-2.3091,-2.2906,-2.2139,-2.1863,-2.1588,-2.081,-2.0508,-2.0401,-2.0489,-1.9638,-1.8877,-1.8877,-1.8877,-1.8917,-1.9006,-1.9844,-2.0518,-2.0605,-2.0605,-2.0605,-2.0605,-2.0605,-2.0605,-2.0605,-2.0605,-2.0605,-2.0605,-2.0605,-2.0566,-2.0479,-1.855,-1.7827,-1.8709,-1.7934,-1.8104,-1.9443,-2.0666,-2.1473,-2.1982,-2.2249,-2.2434,-2.2568,-2.2819,-2.3003,-3.4001,0.0,-3.6626,-3.6267,-3.5316,-3.443,0.0,-3.3522,-3.2521,-3.1415,-3.1217,-3.0895,-2.996,-2.9792,-2.993,-3.0357,-3.0192,-2.9439,-2.7752,-2.6308,0.0,-2.5546,-2.4805,-2.4307,-2.4404,-2.3598,-2.3091,-2.3091,-2.3091,-2.3091,-2.3091,-2.3091,-2.3091,-2.3091,-2.3091,-2.3091,-2.3091,-2.3091,-2.3091,-2.3091,-2.3091,-2.3091,-2.3091,-2.3091,-2.3091,-2.3091,-2.3091,-2.3091,-2.3091,-2.3091,-2.3091,-2.3091,-2.3091,-2.3091,-2.3091,-2.3091,-2.3091,-2.3091,-2.3091,-2.3091,-2.3091,-2.3091,-2.3091,-2.3091,-2.3091,-2.3091,-2.3091,-2.3091,-2.3091,-2.2974,-2.25,-2.1493,-2.0689,-2.0991,-1.9543,-1.8301,-1.9195,-1.851,-1.7698,-1.7698,-1.7698,-1.7989,-1.8838,-1.9204,-1.9638,-2.0479,-2.0605,-2.0605,-2.0605,-2.0605,-2.0605,-2.0605,-2.0605,-2.0605,-2.0605,-2.0605,-2.0245,-1.9441,-1.8877,-1.794,-1.6511,-1.8123,-1.8821,-1.8379,-2.0581,-2.21,-2.2799,-2.1667,-2.1767,-2.2955,-2.2126,-2.2217,-3.196,-3.3479,-3.499,-3.4643,-3.3818,-3.3079,-3.3079,-3.2177,-3.1156,-3.0658,-3.0558,-3.0254,-2.9211,-2.9028,-2.8955,-2.8754,-2.8645,-2.8217,0.0,0.0,-2.4746,-2.5586,-2.4904,-2.4414,0.0,-2.3598,-2.3091,-2.3091,-2.3091,-2.3091,-2.3091,-2.3091,-2.3091,-2.3091,-2.3091,-2.3091,-2.3091,-2.3091,-2.3091,-2.3091,-2.3091,-2.3091,-2.3091,-2.3091,-2.3091,-2.3091,-2.3091,-2.3091,-2.3091,-2.3091,-2.3091,-2.3091,-2.3091,-2.3091,-2.3091,-2.3091,-2.3091,-2.3091,-2.3091,-2.3091,-2.3091,-2.3091,-2.3091,-2.3091,-2.3091,-2.3091,-2.3091,-2.3091,-2.3091,-2.3003,-2.2617,-2.1349,-2.0231,-2.0439,-1.8832,-1.7464,-1.8109,-1.7334,-1.656,-1.656,-1.656,-1.6927,-1.802,-1.863,-1.9362,-2.044,-2.0605,-2.0605,-2.0605,-2.0605,-2.0605,-2.0605,-2.0605,-2.0605,-2.0605,-2.0752,-2.0622,-2.0057,-1.9558,-1.8804,-1.7804,-1.914,-1.9937,-2.0051,-2.1089,-2.2097,-2.3091,-2.1676,-2.1403,-2.2262,-2.2164,-2.2173,-3.1075,-3.2097,-3.3108,-3.3262,-3.2624,-3.1973,-3.1894,0.0,0.0,-2.9792,-2.9663,-2.9236,-2.8295,-2.8035,-2.7638,-2.6749,-2.6872,0.0,-2.6727,-2.5418,-2.4795,-2.5499,-2.4912,0.0,-2.4326,-2.3559,-2.3091,-2.3091,-2.3091,-2.3091,-2.3091,-2.3091,-2.3091,-2.3091,-2.3091,-2.3091,-2.3091,-2.3091,-2.3091,-2.3091,-2.3091,-2.3091,-2.3091,-2.3091,-2.3091,-2.3091,0.0,0.0,-2.3091,-2.3091,-2.3091,-2.3091,-2.2906,-2.2818,-2.2818,-2.2818,-2.2818,-2.2862,-2.3047,-2.3091,-2.3091,-2.3091,-2.3091,-2.3091,-2.3091,-2.3091,-2.3091,-2.3091,-2.3091,-2.3013,-2.2705,-2.1306,-1.9985,-1.9765,-1.8258,-1.6918,-1.7025,-1.6191,-1.5455,-1.5455,-1.5579,-1.6026,-1.7131,-1.823,-1.9362,-2.044,-2.0605,-2.0625,-2.0693,-2.0703,-2.0732,-2.0801,-2.0811,-2.0811,-2.0811,-2.1113,-2.1327,-2.1385,-2.0467,-2.0145,-2.0539,-2.038,-2.1014,-2.2555,-2.1907,-2.2076,-2.3091,-2.1889,-2.1382,-2.1569,-2.2448,-2.2403,-3.058,-3.1206,-3.1861,-3.2559,-3.2364,-3.1868,-3.1418,-3.0546,-2.9792,0.0,-2.9028,-2.8307,-2.8136,-2.7625,-2.7203,-2.7035,-2.6606,-2.6198,0.0,0.0,-2.5019,-2.5156,0.0,-2.4277,-2.3926,-2.3393,-2.3091,-2.3091,-2.3091,-2.3091,-2.3091,-2.3091,-2.3091,-2.3091,-2.3091,-2.3091,-2.3091,-2.3091,-2.3091,-2.3091,-2.3091,-2.3091,-2.3091,-2.3091,-2.3091,-2.3091,0.0,-2.3091,-2.3091,-2.3091,-2.3091,-2.3003,-2.1987,-2.1569,-2.1569,-2.1569,-2.1569,-2.1702,-2.2775,-2.3091,-2.3091,-2.3091,-2.3091,-2.3091,-2.3091,-2.3091,-2.3091,-2.3091,-2.3091,-2.3081,-2.3013,-2.116,-1.9391,-1.9951,-1.7451,-1.5134,-1.5805,-1.5103,-1.4334,-1.4334,-1.5095,-1.6026,-1.7131,-1.823,-1.9362,-2.044,-2.0605,-2.0703,-2.1044,-2.1093,-2.1269,-2.1641,-2.1689,-2.1689,-2.1689,-2.1748,-2.1943,-2.2295,-2.1848,-2.1713,-2.2129,-2.1289,-2.1485,-2.2994,-2.2877,-2.2906,-2.3091,-2.1889,-2.1845,-2.2818,-2.1987,-2.2031,-3.0105,-3.057,-3.0901,-3.0623,-3.1316,-3.2036,-3.1819,-3.0977,-3.0231,0.0,0.0,-2.7924,-2.7319,-2.6654,-2.6043,-2.5693,-2.5384,-2.5231,-2.5379,-2.5,-2.4805,0.0,0.0,-2.4004,-2.3809,-2.3398,-2.3091,-2.3091,-2.3091,-2.3091,-2.3091,-2.3091,-2.3091,-2.3091,-2.3091,-2.3091,-2.3091,-2.3091,-2.3091,-2.3091,-2.3091,-2.3091,-2.3091,-2.3091,-2.3091,-2.3091,0.0,-2.3091,-2.3091,-2.3091,-2.2721,-2.2076,-2.1525,-2.089,-2.0395,-2.1069,-2.1712,-2.235,-2.2916,-2.3091,-2.3091,-2.3091,-2.3091,-2.3091,-2.3091,-2.2633,-2.212,-2.212,-2.212,-2.212,-2.212,-2.0008,-1.7962,-1.8461,-1.6378,-1.4417,-1.4929,-1.4564,-1.4088,-1.4088,-1.4977,-1.6026,-1.7131,-1.8444,-1.9684,-2.076,-2.1133,-2.1357,-2.1562,-2.1582,-2.166,-2.1865,-2.1885,-2.1885,-2.1885,-2.1516,-2.1599,-2.2457,-2.2549,-2.2646,-2.2799,-2.2346,-2.2389,-2.3091,-2.2448,-2.2448,-2.3091,-2.1889,-2.1569,-2.212,-2.2217,-2.2217,-2.9942,-3.0084,-2.9994,-2.9212,-3.0221,-3.1368,-3.1185,-3.0416,-2.9792,-2.9915,-2.8709,-2.7344,-2.6412,-2.5646,-2.5025,-2.4631,-2.4658,-2.4805,-2.5086,-2.4775,-2.4619,-2.4803,-2.4189,-2.375,-2.3652,-2.3286,-2.3091,-2.3091,-2.3091,-2.3091,-2.3091,-2.3091,-2.3091,-2.3091,-2.3091,-2.3091,-2.3091,-2.3091,-2.3091,-2.3091,-2.3091,-2.3091,-2.3091,-2.3091,-2.3091,-2.3091,-2.3091,-2.295,-2.2677,-2.2677,-2.1987,-2.0845,-2.0576,-1.9898,-1.9177,-2.0124,-2.1391,-2.2677,-2.2677,-2.2862,-2.3091,-2.3091,-2.3091,-2.3047,-2.2765,-2.2217,-2.1614,-2.1025,-2.089,-2.089,-2.089,-1.8933,-1.7026,-1.7071,-1.5674,-1.4315,-1.4402,-1.4448,-1.4447,-1.4447,-1.5403,-1.6554,-1.767,-1.8877,-2.0058,-2.1215,-2.167,-2.1924,-2.2021,-2.2031,-2.207,-2.2168,-2.2178,-2.2178,-2.2178,-2.1355,-2.1348,-2.2571,-2.2645,-2.2818,-2.3101,-2.3091,-2.3091,-2.3091,-2.2164,-2.2173,-2.3091,-2.2164,-2.1702,-2.1747,-2.2677,-2.2589,-3.0419,-2.98,-2.9123,-2.9624,-2.9433,-2.8941,-2.8196,-2.7687,-2.7451,-2.7815,-2.7019,0.0,-2.5576,-2.4911,-2.4604,-2.4998,-2.5371,-2.5508,-2.5174,0.0,-2.4783,-2.3975,-2.3828,-2.3633,-2.3179,-2.311,-2.3091,-2.3091,-2.3091,-2.3091,-2.3091,-2.3091,-2.3091,-2.3091,-2.3091,-2.3091,-2.3091,-2.3091,-2.3091,-2.3091,-2.3091,-2.3091,-2.3091,-2.3091,-2.3091,-2.3091,-2.3091,-2.2448,-2.1426,-2.1426,-2.0711,-1.9542,-1.8411,-1.7917,-1.7824,-1.7917,-1.9451,-2.1426,-2.1426,-2.2173,-2.3091,-2.3091,-2.3091,-2.2906,-2.1756,-2.2164,-2.2501,-2.0268,-1.9633,-1.9633,-1.9633,-1.8648,-1.7506,-1.6943,-1.5844,-1.48,-1.4235,-1.4915,-1.5579,-1.5579,-1.6703,-1.8012,-1.9244,-1.9731,-2.0387,-2.1661,-2.1865,-2.2031,-2.2412,-2.2471,-2.2617,-2.2964,-2.3003,-2.3003,-2.3003,-2.1922,-2.1754,-2.2999,-2.2013,-2.1933,-2.3047,-2.3091,-2.3091,-2.3091,-2.3003,-2.3003,-2.3091,-2.3003,-2.296,-2.296,-2.3047,-2.3047,-3.0043,-2.9487,-2.8793,-2.8537,-2.7826,-2.7348,-2.8198,-2.8388,-2.8433,-2.8611,-2.7476,0.0,0.0,-2.4572,-2.456,-2.5047,-2.5449,-2.5586,-2.5174,-2.4834,-2.4443,-2.3857,-2.3555,-2.3276,-2.311,-2.3091,-2.3091,-2.3091,-2.3091,-2.3091,-2.3091,-2.3091,-2.3091,-2.3091,-2.3091,-2.3091,-2.3091,-2.3091,-2.3091,-2.3091,-2.3091,-2.3091,-2.3047,-2.2306,-2.1987,-2.1943,-2.1177,-2.0584,-2.0169,-2.0169,-1.9451,-1.828,-1.699,-1.7444,-1.8726,-1.7963,-1.9687,-2.2306,-2.1569,-2.2076,-2.3091,-2.3091,-2.3091,-2.2858,-2.1461,-2.0971,-2.0487,-1.8584,-1.7635,-1.739,-1.818,-1.735,-1.6232,-1.5994,-1.5301,-1.4676,-1.4643,-1.4822,-1.5034,-1.5222,-1.6845,-1.8302,-1.8761,-2.0365,-2.174,-2.2181,-2.25,-2.2682,-2.2838,-2.2857,-2.2916,-2.3081,-2.3091,-2.2818,-2.2031,-2.0845,-2.0395,-2.0809,-2.1123,-2.1845,-2.3047,-2.3091,-2.3091,-2.3091,-2.3091,-2.3091,-2.3091,-2.3091,-2.3091,-2.3091,-2.3091,-2.3091,-2.9275,-2.8409,-2.741,-2.6886,-2.6184,-2.5881,-2.7125,-2.7691,-2.7929,-2.8079,-2.7097,-2.5837,-2.4631,0.0,0.0,-2.4834,-2.5234,-2.5371,-2.4922,-2.4492,-2.4062,-2.3633,-2.3276,-2.3091,-2.3091,-2.3091,-2.3091,-2.3091,-2.3091,-2.3091,-2.3091,-2.3091,-2.3091,-2.3091,-2.3091,-2.3091,-2.3091,-2.3091,-2.3091,-2.3091,-2.2721,-2.2536,-2.2492,-2.1658,-2.1114,-2.0711,-2.026,-1.9625,-1.8956,-1.936,-1.8542,-1.7037,-1.6574,-1.7444,-1.8864,-1.8411,-2.0087,-2.2403,-2.1569,-2.2076,-2.3091,-2.3091,-2.3091,-2.2761,-2.0986,-2.0277,-1.9612,-1.7378,-1.6579,-1.6506,-1.6868,-1.6188,-1.5378,-1.5284,-1.4883,-1.4549,-1.4663,-1.4851,-1.5078,-1.5293,-1.7092,-1.8667,-1.9066,-2.0782,-2.2256,-2.2619,-2.2916,-2.3091,-2.3091,-2.3091,-2.3091,-2.3091,-2.3091,-2.2775,-2.1943,-2.0395,-1.967,-2.0034,-2.0124,-2.0899,-2.2492,-2.2906,-2.3091,-2.3091,-2.3091,-2.3091,-2.3091,-2.3091,-2.3091,-2.3091,-2.3091,-2.3091,-2.8096,-2.6479,-2.4798,-2.4798,-2.4607,-2.4424,-2.4424,-2.4766,-2.5205,-2.5606,-2.5391,-2.4941,-2.4502,-2.4775,0.0,-2.4492,-2.4785,-2.4912,-2.4473,-2.4053,-2.3633,-2.3149,-2.3091,-2.3091,-2.3091,-2.3091,-2.3091,-2.3091,-2.3091,-2.3091,-2.3091,-2.3091,-2.3091,-2.3091,-2.3091,-2.3091,-2.3091,-2.3091,-2.3091,-2.3047,-2.1845,-2.1293,-2.1293,-2.1293,-2.0612,-1.9542,-2.0747,-1.9898,-1.7777,-1.8948,-1.8033,-1.592,-1.7178,-1.7692,-1.787,-1.9039,-2.026,-2.1337,-2.1293,-2.2076,-2.3091,-2.3091,-2.3091,-2.2633,-2.0215,-2.0342,-2.0513,-1.6828,-1.6709,-1.7338,-1.5788,-1.5391,-1.5317,-1.5075,-1.4736,-1.4442,-1.4155,-1.5184,-1.6097,-1.6104,-1.7589,-1.9209,-2.0498,-2.104,-2.1702,-2.2906,-2.3091,-2.3091,-2.3091,-2.3091,-2.3091,-2.3091,-2.3091,-2.3091,-2.3091,-2.0899,-2.0034,-2.1203,-1.9047,-1.8772,-2.1203,-2.2448,-2.3101,-2.3091,-2.3091,-2.3091,-2.3091,-2.3091,-2.3091,-2.3091,-2.3091,-2.3091,-2.7168,-2.6342,-2.5696,-2.5696,-2.5502,-2.5294,-2.5294,-2.5684,-2.6035,0.0,-2.584,-2.54,-2.4961,-2.5028,0.0,-2.4492,-2.4785,-2.4861,-2.4072,-2.3867,-2.3633,-2.3149,-2.3091,-2.3091,-2.3091,-2.3091,-2.3091,-2.3091,-2.3091,-2.3091,-2.3091,-2.3091,-2.3091,-2.3091,-2.3091,-2.3091,-2.3091,-2.3091,-2.2677,-2.1845,-2.1471,-2.1293,-2.1248,-1.9542,-1.8588,-1.818,-1.7662,-1.7023,-1.6386,-1.6749,-1.6466,-1.592,-1.7178,-1.8234,-1.9001,-1.936,-2.0809,-2.2448,-2.1569,-2.2076,-2.3091,-2.3091,-2.2896,-2.2256,-1.9918,-1.9376,-1.8966,-1.6292,-1.5797,-1.5961,-1.551,-1.509,-1.4756,-1.4669,-1.4583,-1.4496,-1.4409,-1.529,-1.623,-1.678,-1.8663,-2.036,-2.1032,-2.1903,-2.2677,-2.3047,-2.3091,-2.3091,-2.3091,-2.3091,-2.3091,-2.3091,-2.3091,-2.3091,-2.3091,-2.0899,-1.967,-2.0034,-1.8549,-1.8772,-2.1203,-2.1658,-2.2217,-2.3091,-2.3091,-2.3091,-2.3091,-2.3091,-2.3091,-2.3091,-2.3091,-2.3091,-2.613,-2.539,-2.4958,-2.5141,-2.5189,-2.5255,-2.5606,-2.5937,-2.6133,-2.6133,-2.5918,-2.5596,-2.5146,-2.5116,0.0,-2.4492,-2.4502,-2.4385,-2.3867,-2.3643,-2.3437,-2.312,-2.3091,-2.3091,-2.3091,-2.3091,-2.3091,-2.3091,-2.3091,-2.3091,-2.3091,-2.3091,-2.3091,-2.3091,-2.3091,-2.2862,-2.2403,-2.2403,-2.1756,-2.0576,-2.0079,-1.9852,-1.9807,-1.8365,-1.7412,-1.6897,-1.6109,-1.6109,-1.6513,-1.5886,-1.5678,-1.5906,-1.7072,-1.8324,-1.9534,-2.0034,-2.1445,-2.3003,-2.2262,-2.2387,-2.2847,-2.2847,-2.2607,-2.1909,-2.0007,-1.9087,-1.8286,-1.6512,-1.606,-1.5986,-1.5388,-1.5353,-1.5255,-1.463,-1.4436,-1.4471,-1.4879,-1.5691,-1.6626,-1.7505,-1.9438,-2.1022,-2.1248,-2.2306,-2.3091,-2.3091,-2.3091,-2.3091,-2.3091,-2.3091,-2.3091,-2.3091,-2.3091,-2.3091,-2.3091,-2.1311,-2.0034,-1.9534,-1.8365,-1.8365,-1.9807,-2.035,-2.1168,-2.2359,-2.2403,-2.2633,-2.3091,-2.3091,-2.3091,-2.3091,-2.3091,-2.3091,-2.4988,-2.3907,-2.3257,-2.374,-2.416,-2.4697,-2.5499,-2.5625,-2.5586,-2.5674,0.0,-2.5596,-2.5146,-2.5116,-2.4912,-2.4434,-2.4043,-2.3779,-2.374,-2.3389,-2.3091,-2.3091,-2.3091,-2.3091,-2.3091,-2.3091,-2.3091,-2.3091,-2.3091,-2.3091,-2.3091,-2.3091,-2.3091,-2.3091,-2.3003,-2.2403,-2.1293,-2.1203,-2.0522,-1.9314,-1.8234,-1.7645,-1.7552,-1.7552,-1.6882,-1.5744,-1.5744,-1.6425,-1.7348,-1.592,-1.5511,-1.5819,-1.6817,-1.8114,-1.9629,-2.0836,-2.2076,-2.3091,-2.3052,-2.2789,-2.251,-2.2471,-2.2168,-2.1569,-2.0247,-1.9161,-1.8137,-1.7206,-1.7049,-1.6825,-1.5596,-1.6059,-1.6475,-1.5094,-1.4404,-1.4412,-1.5579,-1.6402,-1.7249,-1.8364,-2.0114,-2.1435,-2.1471,-2.235,-2.3091,-2.3091,-2.3091,-2.3091,-2.3091,-2.3091,-2.3091,-2.3091,-2.3091,-2.3091,-2.3091,-2.1987,-2.0845,-1.9716,-1.8411,-1.7692,-1.7692,-1.8772,-1.9943,-2.1293,-2.1293,-2.1889,-2.3091,-2.3091,-2.3091,-2.3091,-2.3091,-2.3091,-2.3872,-2.3555,-2.375,-2.418,-2.4609,-2.5068,-2.5567,-2.5148,-2.4855,-2.5547,-2.5693,-2.5596,-2.5146,-2.5116,-2.4861,-2.4053,-2.3848,-2.3672,-2.3286,-2.3149,-2.3091,-2.3091,-2.3091,-2.3091,-2.3091,-2.3091,-2.3091,-2.3091,-2.3091,-2.3091,-2.3091,-2.3091,-2.3091,-2.3091,-2.2173,-2.1569,-2.1293,-2.035,-1.9268,-1.8095,-1.7824,-1.7178,-1.6204,-1.6204,-1.5933,-1.5491,-1.5491,-1.5541,-1.5545,-1.5212,-1.5142,-1.53,-1.665,-1.801,-1.9376,-2.0775,-2.2076,-2.3052,-2.2721,-2.2588,-2.2461,-2.2129,-2.1728,-2.101,-1.9271,-1.8345,-1.778,-1.691,-1.6505,-1.6462,-1.7052,-1.7203,-1.7096,-1.6776,-1.5362,-1.4615,-1.6527,-1.7349,-1.8161,-1.9542,-2.1135,-2.2337,-2.2663,-2.2916,-2.3091,-2.3091,-2.3091,-2.3091,-2.3091,-2.3091,-2.3091,-2.3091,-2.3091,-2.3091,-2.3091,-2.1987,-2.1203,-2.0935,-1.891,-1.7692,-1.7692,-1.7963,-1.9085,-2.1248,-2.1293,-2.1889,-2.3091,-2.3091,-2.3091,-2.3091,-2.3091,-2.3091,-2.4032,-2.3493,-2.3584,-2.4014,-2.4443,-2.4814,-2.5049,-2.4746,-2.4551,-2.4962,-2.506,-2.5029,-2.4795,-2.459,-2.4316,-2.3857,-2.3613,-2.3398,-2.312,-2.3091,-2.3091,-2.3091,-2.3091,-2.3091,-2.3091,-2.3091,-2.3091,-2.3091,-2.3091,-2.3091,-2.3091,-2.3091,-2.2818,-2.2262,-2.1614,-2.0755,-1.9588,-1.8771,-1.7865,-1.6803,-1.6654,-1.6264,-1.5625,-1.5625,-1.5464,-1.519,-1.519,-1.5149,-1.4995,-1.481,-1.4917,-1.5261,-1.5882,-1.7093,-1.8526,-1.9286,-2.0247,-2.1136,-2.0936,-2.0662,-2.0307,-2.0107,-1.972,-1.9147,-1.8179,-1.7355,-1.6739,-1.6432,-1.6659,-1.6988,-1.6988,-1.7689,-1.8365,-1.8152,-1.6854,-1.6121,-1.8007,-1.8752,-1.9512,-2.0992,-2.2116,-2.2838,-2.3052,-2.3091,-2.3091,-2.3091,-2.3091,-2.2906,-2.2306,-2.2262,-2.2031,-2.1445,-2.1898,-2.2262,-2.2262,-2.2164,-2.1667,-2.0531,-1.9268,-1.8041,-1.685,-1.6803,-1.794,-2.0395,-1.9852,-2.044,-2.2262,-2.2262,-2.2262,-2.2262,-2.2818,-2.3091,-2.4619,-2.362,-2.3252,-2.3682,-2.4053,-2.428,-2.4117,-2.3965,-2.3832,-2.3669,-2.3884,-2.4108,-2.427,-2.3686,-2.329,-2.3637,-2.3192,-2.2775,-2.2775,-2.296,-2.3003,-2.2818,-2.296,-2.3091,-2.3091,-2.3091,-2.3091,-2.3091,-2.3091,-2.3091,-2.3091,-2.3091,-2.2545,-2.1337,-2.1114,-1.9909,-1.7648,-1.7128,-1.6465,-1.5678,-1.5438,-1.5297,-1.5244,-1.5244,-1.511,-1.4928,-1.4928,-1.4901,-1.4834,-1.4549,-1.4763,-1.5224,-1.5037,-1.6046,-1.7602,-1.7662,-1.8292,-1.9085,-1.9018,-1.8561,-1.8004,-1.7896,-1.7631,-1.7261,-1.709,-1.6396,-1.5756,-1.5983,-1.6944,-1.7663,-1.681,-1.8228,-1.9797,-1.9467,-1.8539,-1.8123,-1.9317,-1.9882,-2.0585,-2.1935,-2.2669,-2.3091,-2.3091,-2.3091,-2.3091,-2.3091,-2.3091,-2.2721,-2.1747,-2.1614,-2.1212,-2.0223,-2.1033,-2.1614,-2.1614,-2.235,-2.2041,-2.0223,-1.9542,-1.8349,-1.6513,-1.6015,-1.6882,-1.9131,-1.8187,-1.8772,-2.098,-2.1203,-2.1293,-2.1337,-2.2536,-2.3091,-2.493,-2.3846,-2.3306,-2.3691,-2.3828,-2.3693,-2.3,-2.2245,-2.1509,0.0,-2.1828,-2.3066,-2.3754,-2.208,-2.1175,-2.2919,-2.2246,-2.1525,-2.1525,-2.2448,-2.2721,-2.1658,-2.2448,-2.3091,-2.3091,-2.3091,-2.3091,-2.3091,-2.3091,-2.3091,-2.3091,-2.3091,-2.2545,-2.1337,-2.0305,-1.8932,-1.7274,-1.6172,-1.5467,-1.5122,-1.5082,-1.489,-1.4636,-1.4636,-1.4616,-1.4583,-1.4583,-1.4436,-1.4202,-1.4162,-1.4342,-1.4663,-1.4877,-1.5951,-1.7311,-1.7572,-1.8292,-1.9051,-1.864,-1.8268,-1.7913,-1.7516,-1.7335,-1.7139,-1.6191,-1.582,-1.5711,-1.5748,-1.6549,-1.7571,-1.8379,-1.9792,-2.097,-2.0912,-2.0277,-1.9585,-1.9474,-1.9841,-2.0365,-2.0859,-2.2119,-2.3091,-2.3091,-2.3091,-2.3091,-2.3091,-2.3091,-2.3047,-2.2862,-2.2862,-2.2818,-2.2643,-2.2765,-2.2862,-2.2862,-2.2031,-2.1845,-2.2589,-1.9687,-1.8272,-1.8993,-1.6929,-1.648,-1.7917,-1.7777,-1.8365,-1.9716,-2.08,-2.1293,-2.1337,-2.2536,-2.3091,-2.6337,-2.4797,-2.3772,-2.4242,-2.3883,-2.3146,-2.2117,-2.1599,-2.1024,-1.9962,-1.9813,-2.0167,-2.12,-2.0517,-2.0266,-2.1837,-2.1078,-2.0755,-2.2129,-2.2173,-2.2164,-2.2306,-2.2775,-2.3091,-2.3091,-2.3091,-2.3091,-2.3091,-2.3091,-2.3091,-2.3091,-2.3091,-2.2227,-2.035,-1.9614,-1.8263,-1.619,-1.5327,-1.4843,-1.4716,-1.4716,-1.4643,-1.4466,-1.4349,-1.4282,-1.4282,-1.4282,-1.4208,-1.4088,-1.4088,-1.4255,-1.4549,-1.485,-1.5493,-1.6232,-1.6549,-1.6721,-1.6758,-1.6573,-1.6612,-1.6682,-1.6484,-1.6805,-1.709,-1.6026,-1.5696,-1.5579,-1.4977,-1.6213,-1.7813,-1.8305,-2.0016,-2.1602,-2.1602,-2.1307,-2.088,-2.0277,-2.0328,-2.0786,-2.1826,-2.2606,-2.3091,-2.3091,-2.3091,-2.3091,-2.3091,-2.3091,-2.2862,-2.2173,-2.2076,-2.1854,-2.1177,-2.1676,-2.2076,-2.2076,-2.2217,-2.2262,-2.212,-1.9943,-1.8634,-1.8503,-1.6749,-1.6062,-1.6615,-1.6622,-1.7576,-1.9497,-2.0034,-2.0621,-2.1337,-2.2536,-2.3091,-2.7275,-2.554,-2.4172,-2.4524,-2.3972,-2.2892,-2.123,-2.0845,-2.0395,0.0,-1.7855,-1.7498,-1.8403,-1.858,-1.9077,-2.0567,-1.9807,-1.977,-2.1908,-2.1667,-2.1614,-2.2536,-2.2906,-2.3091,-2.3091,-2.3091,-2.3091,-2.3091,-2.3091,-2.3091,-2.3091,-2.2818,-2.1676,-1.9588,-1.8917,-1.7536,-1.5336,-1.4703,-1.4409,-1.4409,-1.4409,-1.4409,-1.4402,-1.4182,-1.4088,-1.4088,-1.4088,-1.4088,-1.4088,-1.4088,-1.4302,-1.4656,-1.4877,-1.519,-1.5531,-1.5752,-1.5464,-1.5008,-1.5008,-1.5121,-1.5296,-1.5296,-1.5835,-1.6322,-1.5545,-1.5296,-1.5193,-1.4789,-1.6263,-1.8071,-1.8456,-2.0296,-2.2041,-2.2041,-2.191,-2.1636,-2.125,-2.1014,-2.131,-2.2804,-2.3091,-2.3091,-2.3091,-2.3091,-2.3091,-2.3091,-2.3091,-2.2765,-2.1845,-2.1756,-2.1391,-2.0494,-2.1212,-2.1756,-2.1756,-2.2306,-2.2403,-2.18,-2.035,-1.9222,-1.8634,-1.7124,-1.6292,-1.6292,-1.5967,-1.6702,-1.858,-1.9169,-1.9943,-2.089,-2.2403,-2.3091,-2.7094,-2.5672,-2.432,-2.4096,-2.4023,-2.3173,-2.0264,-1.9579,-1.8902,-1.6473,-1.592,-1.592,-1.5967,-1.6015,-1.6796,-1.9214,-1.8596,-1.8234,-1.9497,-2.0621,-2.1337,-2.1382,-2.2403,-2.3091,-2.3091,-2.3091,-2.3091,-2.3091,-2.3091,-2.3091,-2.3091,-2.2031,-2.08,-1.9542,-1.8053,-1.6577,-1.5035,-1.4402,-1.4108,-1.4108,-1.4108,-1.4108,-1.4108,-1.4095,-1.4088,-1.4088,-1.4088,-1.4088,-1.4088,-1.4088,-1.4465,-1.4988,-1.5001,-1.5311,-1.5758,-1.5771,-1.5464,-1.5008,-1.5008,-1.462,-1.4166,-1.4166,-1.4208,-1.425,-1.4208,-1.4166,-1.4467,-1.5823,-1.7057,-1.8339,-1.9733,-2.1269,-2.248,-2.248,-2.1879,-2.1546,-2.2236,-2.182,-2.164,-2.2862,-2.3091,-2.3091,-2.3091,-2.3091,-2.3091,-2.3091,-2.3091,-2.3091,-2.3003,-2.3003,-2.3003,-2.2916,-2.296,-2.3003,-2.3003,-2.2031,-2.1845,-2.295,-2.0818,-1.9988,-2.1069,-1.8864,-1.7598,-1.7598,-1.6433,-1.5872,-1.6015,-1.8349,-1.9534,-1.9633,-2.1996,-2.3091,-2.8377,-2.7165,-2.5972,-2.5765,-2.4873,-2.3492,-2.1605,-2.0313,-1.9039,-1.7358,-1.6386,-1.5784,-1.5784,-1.5784,-1.6386,-1.8095,-1.7311,-1.721,-1.9222,-1.9222,-1.9534,-2.1114,-2.1658,-2.2262,-2.3003,-2.3091,-2.3091,-2.3091,-2.3091,-2.3091,-2.3091,-2.1943,-2.0686,-1.9292,-1.7733,-1.6126,-1.4452,-1.4195,-1.4088,-1.4088,-1.4088,-1.4088,-1.4088,-1.4088,-1.4088,-1.4088,-1.4088,-1.4088,-1.4088,-1.4088,-1.4208,-1.4422,-1.4609,-1.4923,-1.5277,-1.5277,-1.5137,-1.4981,-1.4743,-1.4876,-1.5137,-1.5137,-1.5587,-1.6079,-1.5544,-1.5397,-1.554,-1.6406,-1.7648,-1.8996,-2.0291,-2.1778,-2.2877,-2.2877,-2.2659,-2.2541,-2.2809,-2.2061,-2.1658,-2.2862,-2.3091,-2.3091,-2.3091,-2.3091,-2.3091,-2.3091,-2.3091,-2.3091,-2.3091,-2.3091,-2.3091,-2.3091,-2.3091,-2.3091,-2.3091,-2.2677,-2.2633,-2.3047,-2.1578,-2.0845,-2.1293,-1.9716,-1.8864,-1.8864,-1.763,-1.7037,-1.7037,-1.868,-1.9898,-2.0702,-2.2359,-2.3091,-2.8958,-2.8126,-2.7345,0.0,-2.5904,-2.4346,-2.3141,-2.1593,-1.9855,-1.8072,-1.7037,-1.6298,-1.5879,-1.5784,-1.6062,-1.6897,-1.6339,-1.652,-1.8588,-1.8187,-1.8457,-2.044,-2.1069,-2.1614,-2.2403,-2.2862,-2.3091,-2.3091,-2.2721,0.0,-2.2492,-2.0855,-1.9209,-1.7614,-1.655,-1.5418,-1.4095,-1.4088,-1.4088,-1.4088,-1.4088,-1.4088,-1.4088,-1.4088,-1.4088,-1.4088,-1.4088,-1.4088,-1.4088,-1.4088,-1.4142,-1.4255,-1.4442,-1.4703,-1.5022,-1.5115,-1.5028,-1.4803,-1.4703,-1.4931,-1.5274,-1.5173,-1.5777,-1.6392,-1.5783,-1.5634,-1.5995,-1.7234,-1.833,-1.9472,-2.1202,-2.2379,-2.3091,-2.3091,-2.3091,-2.3091,-2.3091,-2.2492,-2.2129,-2.295,-2.3091,-2.3091,-2.3091,-2.3091,-2.3091,-2.3091,-2.3091,-2.296,-2.2545,-2.2862,-2.295,-2.2536,-2.2862,-2.3091,-2.3091,-2.2731,-2.2677,-2.3047,-2.1987,-2.148,-2.1889,-2.0755,-2.0079,-2.0079,-1.891,-1.8319,-1.8326,-1.9093,-2.0124,-2.1337,-2.2536,-2.3091,0.0,0.0,0.0,0.0,0.0,0.0,-2.4673,0.0,-2.1345,-1.844,-1.7809,-1.739,-1.615,-1.5872,-1.5879,-1.5879,-1.5825,-1.6251,-1.7458,-1.7638,-1.8095,-1.9314,-2.0486,-2.1203,-2.1293,-2.2315,-2.3003,-2.3047,-2.1933,-2.1248,-2.1248,-1.8669,-1.638,-1.4549,-1.4516,-1.4369,-1.4088,-1.4088,-1.4088,-1.4088,-1.4088,-1.4088,-1.4088,-1.4088,-1.4088,-1.4088,-1.4088,-1.4088,-1.4088,-1.4088,-1.4255,-1.4502,-1.4502,-1.4689,-1.5028,-1.5264,-1.501,-1.4563,-1.4863,-1.4763,-1.4462,-1.4202,-1.4539,-1.4948,-1.4629,-1.475,-1.5562,-1.8346,-1.911,-1.9725,-2.2397,-2.3091,-2.3091,-2.3091,-2.3091,-2.3091,-2.3091,-2.3091,-2.3091,-2.3091,-2.3091,-2.3101,-2.3047,-2.3047,-2.3047,-2.3003,-2.3003,-2.2589,-2.1391,-2.2262,-2.2545,-2.1382,-2.235,-2.3047,-2.3047,-2.1987,-2.18,-2.3003,-2.1933,-2.18,-2.3003,-2.1933,-2.1293,-2.1293,-2.0169,-1.9588,-1.9633,-1.9588,-2.0169,-2.1337,-2.2536,-2.3091,-2.9305,0.0,0.0,0.0,0.0,0.0,0.0,0.0,-2.2561,-2.1176,-2.0175,-1.934,-1.8617,-1.7762,-1.7178,-1.7178,-1.6386,-1.592,-1.6292,-1.6339,-1.6803,-1.8048,-1.8503,-1.936,-2.1114,-2.08,-2.0854,0.0,-2.0666,-1.9988,-1.9988,-1.805,-1.63,-1.4888,-1.4429,-1.4168,-1.4088,-1.4088,-1.4088,-1.4088,-1.4088,-1.4088,-1.4088,-1.4088,-1.4088,-1.4088,-1.4088,-1.4088,-1.4088,-1.4088,-1.4135,-1.4208,-1.4208,-1.4382,-1.4656,-1.473,-1.4656,-1.4563,-1.4863,-1.4629,-1.4262,-1.4609,-1.4683,-1.471,-1.505,-1.5211,-1.5874,-1.8616,-1.9393,-1.996,-2.2473,-2.3091,-2.3091,-2.3091,-2.3091,-2.3091,-2.3091,-2.3091,-2.3091,-2.3091,-2.3091,-2.2818,-2.1943,-2.18,-2.1489,-2.0629,-2.0494,-2.0404,-2.0034,-2.0305,-2.0359,-2.0034,-2.1078,-2.18,-2.18,-2.1471,-2.18,-2.3003,-2.1177,-2.0531,-2.1756,-2.148,-2.1293,-2.1293,-2.098,-2.1212,-2.2085,-2.1212,-2.098,-2.1337,-2.2536,-2.3091,-2.9681,0.0,0.0,0.0,0.0,0.0,-2.768,-2.6293,-2.4641,0.0,-2.2772,-2.2028,-2.1041,-1.9904,-1.9112,-1.9112,-1.7693,-1.6433,-1.5872,-1.5784,-1.6062,-1.6803,-1.7365,-1.8226,-1.967,-1.9625,-1.9807,-2.0486,-1.9443,-1.8416,-1.7682,-1.6632,-1.562,-1.4646,-1.4269,-1.4088,-1.4088,-1.4088,-1.4088,-1.4088,-1.4088,-1.4088,-1.4088,-1.4088,-1.4088,-1.4088,-1.4088,-1.4088,-1.4088,-1.4088,-1.4088,-1.4088,-1.4088,-1.4195,-1.4355,-1.4476,-1.4442,-1.4396,-1.4861,-1.4787,-1.4509,-1.4901,-1.501,-1.5104,-1.5331,-1.5478,-1.6018,-1.8164,-1.9488,-2.0666,-2.2589,-2.3091,-2.3091,-2.3091,-2.2721,-2.235,-2.235,-2.235,-2.2492,-2.3003,-2.3091,-2.2721,-2.1525,-2.1293,-2.089,-1.967,-1.9497,-1.9497,-1.9497,-1.9943,-2.026,-2.026,-2.089,-2.1293,-2.1293,-2.0395,-2.0539,-2.2236,-2.0096,-1.9542,-2.1248,-2.08,-2.08,-2.1293,-2.1293,-2.1889,-2.3091,-2.1889,-2.1569,-2.2076,-2.2775,-2.3188,-2.9924,-3.0148,0.0,0.0,-2.9911,0.0,-3.0012,-2.8808,-2.7045,0.0,-2.5363,-2.4847,-2.3416,-2.2217,-2.1392,-2.1312,-1.95,-1.7576,-1.6197,-1.5872,-1.5784,-1.5784,-1.6803,-1.7552,-1.7692,-1.8542,-1.9177,-1.9314,-1.818,-1.6793,-1.5174,-1.5042,-1.4767,-1.4202,-1.4122,-1.4088,-1.4088,-1.4088,-1.4088,-1.4088,-1.4088,-1.4088,-1.4088,-1.4088,-1.4088,-1.4088,-1.4088,-1.4088,-1.4088,-1.4088,-1.4088,-1.4088,-1.4088,-1.4088,-1.4122,-1.4409,-1.4335,-1.4175,-1.4841,-1.5015,-1.4975,-1.5075,-1.5384,-1.5738,-1.5511,-1.5625,-1.6103,-1.7498,-1.9542,-2.1569,-2.2775,-2.3003,-2.2906,-2.2906,-2.1987,-2.1114,-2.1114,-2.1203,-2.1614,-2.2677,-2.3003,-2.2721,-2.1525,-2.1203,-2.0702,-1.9497,-1.9177,-1.9131,-1.9268,-2.026,-2.089,-2.089,-2.1159,-2.1248,-2.1114,-1.9131,-1.8872,-2.115,-1.8918,-1.8495,-2.08,-1.9988,-1.9943,-2.089,-2.1159,-2.1889,-2.3091,-2.2031,-2.2031,-2.3091,-2.314,-2.3418,-3.1002,-3.0808,-3.0537,-3.0672,0.0,0.0,-2.9488,-2.9203,-2.8626,0.0,-2.7055,-2.6335,-2.5578,-2.4255,-2.3122,-2.2685,-2.1416,-1.9706,-1.7623,-1.6433,-1.5784,-1.5784,-1.6015,-1.6574,-1.7598,-1.6983,-1.6936,-1.7956,-1.6897,-1.6008,-1.5665,-1.5217,-1.4955,-1.4841,-1.4335,-1.4088,-1.4088,-1.4088,-1.4088,-1.4088,-1.4088,-1.4088,-1.4088,-1.4088,-1.4088,-1.4088,-1.4088,-1.4088,-1.4088,-1.4088,-1.4088,-1.4088,-1.4088,-1.4088,-1.4122,-1.4409,-1.4335,-1.4202,-1.5023,-1.5003,-1.4723,-1.5431,-1.5578,-1.5518,-1.5691,-1.5738,-1.6292,-1.8534,-2.0169,-2.1569,-2.2775,-2.2403,-2.1658,-2.1658,-2.0711,-1.9852,-1.9852,-2.0612,-2.1382,-2.1614,-2.2448,-2.2721,-2.1525,-2.0477,-1.9451,-1.8226,-1.7171,-1.6889,-1.7909,-1.828,-1.8411,-1.8411,-2.0124,-2.089,-1.9943,-1.9405,-1.9761,-2.1212,-1.8072,-1.6842,-1.8319,-1.9093,-1.9131,-1.8411,-2.0305,-2.1889,-2.3091,-2.2862,-2.2862,-2.3101,-2.3496,-2.3711,-3.1029,-3.0967,-3.0902,-3.0484,0.0,0.0,0.0,-3.0133,-2.9856,-2.967,-2.9021,-2.8352,-2.7978,-2.6785,-2.5751,-2.5352,-2.4051,-2.2523,-2.0956,-1.843,-1.6763,-1.6763,-1.6204,-1.6062,-1.6669,-1.615,-1.6062,-1.6716,-1.6157,-1.5718,-1.5618,-1.5204,-1.4941,-1.4743,-1.4315,-1.4088,-1.4088,-1.4088,-1.4088,-1.4088,-1.4088,-1.4088,-1.4088,-1.4088,-1.4088,-1.4088,-1.4088,-1.4088,-1.4088,-1.4088,-1.4088,-1.4088,-1.4088,-1.4088,-1.4108,-1.4249,-1.4302,-1.4389,-1.4977,-1.5084,-1.505,-1.5591,-1.5732,-1.5638,-1.5738,-1.5784,-1.6197,-1.8087,-1.9039,-1.977,-2.0998,-2.0854,-2.0395,-2.0395,-1.9497,-1.8596,-1.8596,-1.9085,-1.9497,-1.9497,-2.0989,-2.2031,-2.1382,-2.0305,-1.9085,-1.787,-1.6622,-1.6473,-1.8365,-1.8048,-1.8141,-1.936,-1.9497,-1.9497,-1.9497,-1.8956,-1.9131,-2.035,-1.8664,-1.794,-1.8588,-1.9177,-1.9497,-1.9497,-2.0666,-2.1889,-2.3091,-2.3315,-2.3467,-2.3467,-2.3691,-2.4014,0.0,0.0,0.0,0.0,0.0,-3.0823,0.0,0.0,0.0,-3.1106,-3.0614,0.0,0.0,0.0,0.0,0.0,0.0,0.0,0.0,-2.1112,0.0,-1.824,-1.6987,-1.6157,-1.6157,-1.592,-1.5718,-1.5778,-1.5731,-1.5665,-1.5491,-1.515,-1.4901,-1.4609,-1.4269,-1.4088,-1.4088,-1.4088,-1.4088,-1.4088,-1.4088,-1.4088,-1.4088,-1.4088,-1.4088,-1.4088,-1.4088,-1.4088,-1.4088,-1.4088,-1.4088,-1.4088,-1.4088,-1.4088,-1.4095,-1.4148,-1.4315,-1.4569,-1.4923,-1.5204,-1.5444,-1.5684,-1.5784,-1.5784,-1.5784,-1.5784,-1.6062,-1.7365,-1.7692,-1.8048,-1.9488,-1.967,-1.9497,-1.9497,-1.8596,-1.7645,-1.7412,-1.7552,-1.7692,-1.7692,-1.9451,-2.1025,-2.1248,-2.0305,-1.9177,-1.8187,-1.6756,-1.6702,-1.9177,-1.8457,-1.8549,-2.0711,-1.9222,-1.8373,-1.9085,-1.8457,-1.8457,-1.9451,-1.9497,-1.9497,-1.9497,-1.9497,-2.0169,-2.1614,-2.1203,-2.1704,-2.3218,-2.339,-2.3554,-2.3799,-2.3955,-2.445,0.0,0.0,0.0,0.0,-3.0837,0.0,0.0,0.0,-3.1392,-3.1454,0.0,0.0,0.0,0.0,0.0,0.0,0.0,0.0,-2.6552,-2.4144,-2.1799,-2.0192,-1.8504,-1.7505,-1.7505,-1.6237,-1.5551,-1.5764,-1.5591,-1.5545,-1.5718,-1.5257,-1.4995,-1.4961,-1.4376,-1.4088,-1.4088,-1.4088,-1.4088,-1.4088,-1.4088,-1.4088,-1.4088,-1.4088,-1.4088,-1.4088,-1.4088,-1.4088,-1.4088,-1.4088,-1.4088,-1.4088,-1.4088,-1.4088,-1.4122,-1.4376,-1.4489,-1.4603,-1.5157,-1.5364,-1.5444,-1.5684,-1.5784,-1.5784,-1.5784,-1.5784,-1.6062,-1.7365,-1.7692,-1.8234,-2.0486,-2.0305,-1.9497,-1.9497,-1.8596,-1.7412,-1.6251,-1.6897,-1.7692,-1.7692,-1.8772,-2.0034,-2.1114,-2.0305,-1.9443,-1.9314,-1.7296,-1.6702,-1.9177,-1.8457,-1.8234,-1.9534,-1.9451,-1.891,-1.7963,-1.8772,-1.936,-1.9488,-1.9497,-1.9497,-1.9497,-1.9497,-2.0584,-2.2862,-2.0809,-2.1031,-2.3721,-2.2701,-2.2765,-2.3809,-2.457,-2.5028,0.0,0.0,0.0,0.0,0.0,0.0,-3.138,0.0,-3.1511,0.0,0.0,0.0,0.0,0.0,0.0,0.0,-2.9412,0.0,0.0,0.0,-2.4189,0.0,0.0,0.0,-1.7401,-1.6143,-1.5518,-1.5758,-1.5558,-1.5524,-1.5764,-1.5277,-1.5008,-1.5008,-1.4556,-1.4342,-1.4342,-1.4509,-1.464,-1.464,-1.4422,-1.4342,-1.4335,-1.4162,-1.4088,-1.4088,-1.4088,-1.4088,-1.4088,-1.4088,-1.4088,-1.4108,-1.4269,-1.4342,-1.4355,-1.4476,-1.4736,-1.5064,-1.5311,-1.5504,-1.5665,-1.5744,-1.5784,-1.5784,-1.5784,-1.5784,-1.592,-1.6433,-1.6622,-1.6983,-1.8772,-1.8818,-1.8634,-1.9314,-1.9131,-1.8588,-1.8072,-1.7816,-1.7692,-1.7692,-1.8095,-1.8634,-1.9131,-1.8772,-1.868,-1.9405,-1.739,-1.6426,-1.8226,-1.7358,-1.7077,-1.8319,-1.7809,-1.7444,-1.7684,-1.8141,-1.8457,-1.8457,-1.8457,-1.9413,-2.1498,-2.0223,-2.0305,-2.2031,-2.1319,-2.157,-2.2765,-2.3484,-2.4047,-2.4541,-2.4949,-2.5205,-2.9059,0.0,0.0,0.0,0.0,0.0,0.0,0.0,0.0,0.0,0.0,0.0,0.0,0.0,0.0,0.0,0.0,0.0,0.0,0.0,0.0,0.0,0.0,0.0,0.0,-1.6791,-1.6239,-1.6311,-1.5858,-1.5659,-1.5805,-1.5277,-1.5042,-1.5122,-1.4796,-1.4643,-1.4643,-1.4901,-1.5008,-1.5008,-1.4663,-1.4522,-1.4509,-1.4222,-1.4088,-1.4088,-1.4088,-1.4088,-1.4088,-1.4088,-1.4135,-1.4229,-1.4436,-1.4616,-1.4763,-1.4763,-1.503,-1.5404,-1.5484,-1.5651,-1.5784,-1.5784,-1.5784,-1.5784,-1.5784,-1.5784,-1.5784,-1.5784,-1.5784,-1.615,-1.777,-1.7963,-1.8002,-1.9222,-1.9268,-1.891,-1.858,-1.7809,-1.7178,-1.7178,-1.7178,-1.7271,-1.7645,-1.7692,-1.8002,-1.8864,-1.7163,-1.6251,-1.7552,-1.6574,-1.6292,-1.7552,-1.6574,-1.615,-1.7084,-1.7505,-1.7824,-1.8187,-1.8503,-1.9861,-2.2492,-2.0944,-2.0447,-2.1419,-2.1442,-2.1746,-2.2295,-2.3843,-2.4832,-2.5254,-2.5254,-2.543,0.0,0.0,0.0,-2.914,0.0,0.0,0.0,0.0,-3.2273,0.0,0.0,0.0,0.0,0.0,0.0,0.0,0.0,0.0,0.0,0.0,0.0,0.0,0.0,0.0,0.0,-1.8756,-1.8121,0.0,-1.6684,-1.5993,-1.5832,-1.5277,-1.5142,-1.5378,-1.5097,-1.4995,-1.4995,-1.5001,-1.5008,-1.5008,-1.4663,-1.4522,-1.4509,-1.4222,-1.4088,-1.4088,-1.4088,-1.4088,-1.4088,-1.4088,-1.4255,-1.4502,-1.4516,-1.487,-1.5364,-1.5364,-1.5384,-1.5438,-1.5718,-1.5771,-1.5784,-1.5784,-1.5784,-1.5784,-1.5784,-1.5784,-1.5784,-1.5784,-1.5784,-1.6379,-1.881,-1.8596,-1.8002,-1.9222,-1.8596,-1.7404,-1.6197,-1.5872,-1.5872,-1.5872,-1.5872,-1.6244,-1.7505,-1.7692,-1.7684,-1.7731,-1.6615,-1.6251,-1.7552,-1.6574,-1.6292,-1.7552,-1.6574,-1.5825,-1.5879,-1.699,-1.8187,-1.936,-2.0531,-2.1248,-2.1337,-2.1293,-2.1401,-2.1768,-2.0733,-2.1084,-2.2955,-2.3241,-2.4158,-2.5664,-2.5664,-2.5674,0.0,0.0,-2.7777,-2.8492,0.0,0.0,0.0,0.0,0.0,0.0,0.0,0.0,0.0,0.0,0.0,0.0,0.0,0.0,0.0,0.0,0.0,0.0,0.0,0.0,0.0,0.0,0.0,0.0,-1.7466,0.0,-1.7055,-1.592,-1.5297,-1.5391,-1.5304,-1.5251,-1.5251,-1.5438,-1.5538,-1.5531,-1.5237,-1.4997,-1.4803,-1.4509,-1.4369,-1.4362,-1.4168,-1.4352,-1.47,-1.4456,-1.4549,-1.4836,-1.5023,-1.5224,-1.5398,-1.5398,-1.5518,-1.5698,-1.5751,-1.5784,-1.5784,-1.5784,-1.5784,-1.5784,-1.5784,-1.5784,-1.5784,-1.5784,-1.5784,-1.6197,-1.7863,-1.801,-1.8002,-1.9222,-1.9177,-1.8764,-1.8349,-1.763,-1.7037,-1.7037,-1.7037,-1.6951,-1.6527,-1.7131,-1.7692,-1.7692,-1.6622,-1.5967,-1.6386,-1.6062,-1.6292,-1.7552,-1.7318,-1.7404,-1.8164,-1.8626,-1.9405,-2.0612,-2.0305,-2.0809,-2.2448,-2.1138,-2.0882,-2.1933,-2.1996,-2.2433,-2.3202,-2.432,-2.5189,-2.5693,-2.5693,-2.5693,-2.7263,-2.7024,0.0,-2.8001,-2.8112,0.0,-2.9509,0.0,0.0,0.0,0.0,0.0,0.0,0.0,0.0,0.0,0.0,0.0,0.0,0.0,0.0,0.0,0.0,0.0,0.0,0.0,-2.0768,-1.9812,-1.8575,0.0,0.0,-1.6636,-1.5886,-1.5545,-1.5551,-1.5551,-1.5551,-1.5684,-1.5784,-1.5778,-1.5531,-1.5297,-1.511,-1.481,-1.4676,-1.4669,-1.4482,-1.466,-1.4995,-1.4756,-1.485,-1.5182,-1.5324,-1.5458,-1.5551,-1.5551,-1.5665,-1.5784,-1.5784,-1.5784,-1.5784,-1.5784,-1.5784,-1.5784,-1.5784,-1.5784,-1.5784,-1.5784,-1.5784,-1.6109,-1.7365,-1.7365,-1.7311,-1.8588,-1.8495,-1.8164,-1.8164,-1.7584,-1.7037,-1.7037,-1.7037,-1.6756,-1.592,-1.6857,-1.7552,-1.7084,-1.6339,-1.5784,-1.5784,-1.5784,-1.6292,-1.7552,-1.7692,-1.8187,-1.9405,-1.9497,-1.9852,-2.0612,-2.035,-2.0916,-2.2631,-2.1396,-2.1197,-2.2339,-2.2844,-2.3217,-2.3468,-2.4945,-2.5693,-2.5693,-2.5693,-2.5693]},{"header":{"parameterUnit":"m.s-1","parameterCategory":1,"la1":30.6,"la2":29.2853,"lo1":-89.7004,"lo2":-87.6739,"dy":0.0162,"dx":0.0183,"nx":112,"ny":82,"refTime":"2026-04-12T12:00:00:Z","depth":0,"parameterNumber":3,"parameterNumberName":"V-component_of_WINDS"},"data":[0.0,0.0,0.0,0.0,0.0,0.0,0.0,0.0,0.0,0.0,0.0,0.0,0.0,0.0,0.0,0.0,0.0,0.0,0.0,0.0,0.0,0.0,0.0,0.0,0.0,0.0,0.0,0.0,0.0,0.0,0.0,0.0,0.0,0.0,0.0,0.0,0.0,0.0,0.0,0.0,0.0,0.0,0.0,0.0,0.0,0.0,0.0,0.0,0.0,0.0,0.0,0.0,0.0,0.0,0.0,0.0,0.0,0.0,0.0,0.0,0.0,0.0,0.0,0.0,0.0,0.0,0.0,0.0,0.0,0.0,0.0,0.0,0.0,0.0,0.0,0.0,0.0,0.0,0.0,0.0,0.0,0.0,0.0,0.0,0.0,0.0,0.0,0.0,0.0,0.0,1.1978,1.0765,0.8648,0.6183,0.3416,0.2704,0.1827,0.0439,0.0,0.0,0.0,0.0,0.0,0.0,0.0,0.0,0.0,0.0,0.0,0.0,0.0,0.0,0.0,0.0,0.0,0.0,0.0,0.0,0.0,0.0,0.0,0.0,0.0,0.0,0.0,0.0,0.0,0.0,0.0,0.0,0.0,0.0,0.0,0.0,0.0,0.0,0.0,0.0,0.0,0.0,0.0,0.0,0.0,0.0,0.0,0.0,0.0,0.0,0.0,0.0,0.0,0.0,0.0,0.0,0.0,0.0,0.0,0.0,0.0,0.0,0.0,0.0,0.0,0.0,0.0,0.0,0.0,0.0,0.0,0.0,0.0,0.0,0.0,0.0,0.0,0.0,0.0,0.0,0.0,0.0,0.0,0.0,0.0,0.0,0.0,0.0,0.0,0.0,0.0,0.0,0.0,0.0,0.0,0.0,0.0,0.0,0.0,0.0,0.0,0.0,0.0,0.0,1.1114,0.9597,0.7968,0.6779,0.6291,0.3789,0.2146,0.1857,0.0,0.0,0.0,0.0,0.0,0.0,0.0,0.0,0.0,0.0,0.0,0.0,0.0,0.0,0.0,0.0,0.0,0.0,0.0,0.0,0.0,0.0,0.0,0.0,0.0,0.0,0.0,0.0,0.0,0.0,0.0,0.0,0.0,0.0,0.0,0.0,0.0,0.0,0.0,0.0,0.0,0.0,0.0,0.0,0.0,0.0,0.0,0.0,0.0,0.0,0.0,0.0,0.0,0.0,0.0,0.0,0.0,0.0,0.0,0.0,0.0,0.0,0.0,0.0,0.0,0.0,0.0,0.0,0.0,0.0,0.0,0.0,0.0,0.0,0.0,0.0,0.0,0.0,0.0,0.0,0.0,0.0,0.0,0.0,0.0,0.0,0.0,0.0,0.0,0.0,0.0,0.0,0.0,0.0,0.0,0.0,0.0,0.0,0.0,0.0,0.0,0.0,0.0,1.3363,1.2324,1.0524,0.9774,0.8733,0.7057,0.552,0.4231,0.3333,0.367,0.0,0.0,0.0,0.0,0.0,0.0,0.0,0.0,0.0,0.0,0.0,0.0,0.0,0.0,0.0,0.0,0.0,0.0,0.0,0.0,0.0,0.0,0.0,0.0,0.0,0.0,0.0,0.0,0.0,0.0,0.0,0.0,0.0,0.0,0.0,0.0,0.0,0.0,0.0,0.0,0.0,0.0,0.0,0.0,0.0,0.0,0.0,0.0,0.0,0.0,0.0,0.0,0.0,0.0,0.0,0.0,0.0,0.0,0.0,0.0,0.0,0.0,0.0,0.0,0.0,0.0,0.0,0.0,0.0,0.0,0.0,0.0,0.0,0.0,0.0,0.0,0.0,0.0,0.0,0.0,0.0,0.0,0.0,0.0,0.0,0.0,0.0,0.0,0.0,0.0,0.0,0.0,0.0,0.0,0.0,0.0,0.0,0.0,0.0,0.0,0.0,0.0,1.4325,1.3674,1.1967,1.188,1.0815,0.8074,0.7388,0.6396,0.4719,0.5198,0.0,0.0,0.0,0.0,0.0,0.0,0.0,0.0,0.0,0.0,0.0,0.0,0.0,0.0,0.0,0.0,0.0,0.0,0.0,0.0,0.0,0.0,0.0,0.0,0.0,0.0,0.0,0.0,0.0,0.0,0.0,0.0,0.0,0.0,0.0,0.0,0.0,0.0,0.0,0.0,0.0,0.0,0.0,0.0,0.0,0.0,0.0,0.0,0.0,0.0,0.0,0.0,0.0,0.0,0.0,0.0,0.0,0.0,0.0,0.0,0.0,0.0,0.0,0.0,0.0,0.0,0.0,0.0,0.0,0.0,0.0,0.0,0.0,0.0,0.0,0.0,0.0,0.0,0.0,0.0,0.0,0.0,0.0,0.0,0.0,0.0,0.0,0.0,0.0,0.0,0.0,0.0,0.0,0.0,0.0,0.0,0.0,0.0,0.0,0.0,0.0,0.0,1.4155,1.4126,1.3239,1.3192,1.2464,1.0766,0.9202,0.7576,0.5957,0.5586,0.0,0.0,0.0,0.0,0.0,0.0,0.0,0.0,0.0,0.0,0.0,0.0,0.0,0.0,0.0,0.0,0.0,0.0,0.0,0.0,0.0,0.0,0.0,0.0,0.0,0.0,0.0,0.0,0.0,0.0,0.0,0.0,0.0,0.0,0.0,0.0,0.0,0.0,0.0,0.0,0.0,0.0,0.0,0.0,0.0,0.0,0.0,0.0,0.0,0.0,0.0,0.0,0.0,0.0,0.0,0.0,0.0,0.0,0.0,0.0,0.0,0.0,0.0,0.0,0.0,0.0,0.0,0.0,0.0,0.0,0.0,0.0,0.0,0.0,0.0,0.0,0.0,0.0,0.0,0.0,0.0,0.0,0.0,0.0,0.0,0.0,0.0,0.0,0.0,0.0,0.0,0.0,0.0,0.0,0.0,0.0,0.0,0.0,0.0,0.0,0.0,0.0,1.508,1.5023,0.0,1.4106,1.3497,1.1954,1.1161,1.0117,0.8566,0.0,0.0,0.0,0.0,0.0,0.0,0.0,0.0,0.0,0.0,0.0,0.0,0.0,0.0,0.0,0.0,0.0,0.0,0.0,0.0,0.0,0.0,0.0,0.0,0.0,0.0,0.0,0.0,0.0,0.0,0.0,0.0,0.0,0.0,0.0,0.0,0.0,0.0,0.0,0.0,0.0,0.0,0.0,0.0,0.0,0.0,0.0,0.0,0.0,0.0,0.0,0.0,0.0,0.0,0.0,0.0,0.0,0.0,0.0,0.0,0.0,0.0,0.0,0.0,0.0,0.0,0.0,0.0,0.0,0.0,0.0,0.0,0.0,0.0,0.0,0.0,0.0,0.0,0.0,0.0,0.0,0.0,0.0,0.0,0.0,0.0,0.0,0.0,0.0,0.0,0.0,0.0,0.0,0.0,0.0,0.0,0.0,0.0,0.0,0.0,0.0,0.0,1.5631,1.5859,1.5758,0.0,1.5273,1.4669,1.3111,1.2893,1.206,1.0371,0.0,0.0,0.0,0.0,0.0,0.0,0.0,0.0,0.0,0.0,0.0,0.0,0.0,0.0,0.0,0.0,0.0,0.0,0.0,0.0,0.0,0.0,0.0,0.0,0.0,0.0,0.0,0.0,0.0,0.0,0.0,0.0,0.0,0.0,0.0,0.0,0.0,0.0,0.0,0.0,0.0,0.0,0.0,0.0,0.0,0.0,0.0,0.0,0.0,0.0,0.0,0.0,0.0,0.0,0.0,0.0,0.0,0.0,0.0,0.0,0.0,0.0,0.0,0.0,0.0,0.0,0.0,0.0,0.0,0.0,0.0,0.0,0.0,0.0,0.0,0.0,0.0,0.0,0.0,0.0,0.0,0.0,0.0,0.0,0.0,0.0,0.0,0.0,0.0,0.0,0.0,0.0,0.0,0.0,0.0,0.0,0.0,0.0,0.0,0.0,0.0,0.0,1.6382,1.6362,1.6429,1.6717,1.675,1.6112,1.4469,1.4219,1.3221,0.0,0.0,0.0,0.0,0.0,0.0,0.0,0.0,0.0,0.0,0.0,0.0,0.0,0.0,0.0,0.0,0.0,0.0,0.0,0.0,0.0,0.0,0.0,0.0,0.0,0.0,0.0,0.0,0.0,0.0,0.0,0.0,0.0,0.0,0.0,0.0,0.0,0.0,0.0,0.0,0.0,0.0,0.0,0.0,0.0,0.0,0.0,0.0,0.0,0.0,0.0,0.0,0.0,0.0,0.0,0.0,0.0,0.0,0.0,0.0,0.0,0.0,0.0,0.0,0.0,0.0,0.0,0.0,0.0,0.0,0.0,0.0,0.0,0.0,0.0,0.0,0.0,0.0,0.0,0.0,0.0,0.0,0.0,0.0,0.0,0.0,0.0,0.0,0.0,0.0,0.0,0.0,0.0,0.0,0.0,0.0,0.0,0.0,0.0,0.0,0.0,0.0,0.0,1.7762,1.8492,1.9036,1.9082,1.9097,1.8807,1.803,1.7605,1.6273,1.3667,0.0,0.0,0.0,0.0,0.0,0.0,0.0,0.0,0.0,0.0,0.0,0.0,0.0,0.0,0.0,0.0,0.0,0.0,0.0,0.0,0.0,0.0,0.0,0.0,0.0,0.0,0.0,0.0,0.0,0.0,0.0,0.0,0.0,0.0,0.0,0.0,0.0,0.0,0.0,0.0,0.0,0.0,0.0,0.0,0.0,0.0,0.0,0.0,0.0,0.0,0.0,0.0,0.0,0.0,0.0,0.0,0.0,0.0,0.0,0.0,0.0,0.0,0.0,0.0,0.0,0.0,0.0,0.0,0.0,0.0,0.0,0.0,0.0,0.0,0.0,0.0,0.0,0.0,0.0,0.0,0.0,0.0,0.0,0.0,0.0,0.0,0.0,0.0,0.0,0.0,0.0,0.0,0.0,0.0,0.0,0.0,0.0,0.0,0.0,0.0,0.0,0.0,1.8497,1.9318,1.9857,1.9857,1.9857,1.9766,1.9513,1.9245,1.8097,1.5826,0.0,0.0,0.0,0.0,0.0,0.0,0.0,0.0,0.0,0.0,0.0,0.0,0.0,0.0,0.0,0.0,0.0,0.0,0.0,0.0,0.0,0.0,0.0,0.0,0.0,0.0,0.0,0.0,0.0,0.0,0.0,0.0,0.0,0.0,0.0,0.0,0.0,0.0,0.0,0.0,0.0,0.0,0.0,0.0,0.0,0.0,0.0,0.0,0.0,0.0,0.0,0.0,0.0,0.0,0.0,0.0,0.0,0.0,0.0,0.0,0.0,0.0,0.0,0.0,0.0,0.0,0.0,0.0,0.0,0.0,0.0,0.0,0.0,0.0,0.0,0.0,0.0,0.0,0.0,0.0,0.0,0.0,0.0,0.0,0.0,0.0,0.0,0.0,0.0,0.0,0.0,0.0,0.0,0.0,0.0,0.0,0.0,0.0,0.0,0.0,0.0,0.0,1.8904,1.9488,1.9869,1.9911,1.9911,1.9894,1.9861,1.9782,1.9117,1.7638,0.0,0.0,0.0,0.0,0.0,0.0,0.0,0.0,0.0,0.0,0.0,0.0,0.0,0.0,0.0,0.0,0.0,0.0,0.0,0.0,0.0,0.0,0.0,0.0,0.0,0.0,0.0,0.0,0.0,0.0,0.0,0.0,0.0,0.0,0.0,0.0,0.0,0.0,0.0,0.0,0.0,0.0,0.0,0.0,0.0,0.0,0.0,0.0,0.0,0.0,0.0,0.0,0.0,0.0,0.0,0.0,0.0,0.0,0.0,0.0,2.1513,0.0,0.0,0.0,0.0,0.0,0.0,0.0,0.0,0.0,0.0,0.0,0.0,0.0,0.0,0.0,0.0,0.0,0.0,0.0,0.0,0.0,0.0,0.0,0.0,0.0,0.0,0.0,0.0,0.0,0.0,0.0,0.0,0.0,0.0,0.0,0.0,0.0,0.0,0.0,0.0,0.0,2.0589,2.1684,2.2545,2.2867,2.286,2.2718,2.2344,2.2023,2.1103,1.9389,1.8171,0.0,0.0,0.0,0.0,0.0,0.0,0.0,0.0,0.0,0.0,0.0,0.0,0.0,0.0,0.0,0.0,0.0,0.0,0.0,0.0,0.0,0.0,0.0,0.0,0.0,0.0,0.0,0.0,0.0,0.0,0.0,0.0,0.0,0.0,0.0,0.0,0.0,0.0,0.0,0.0,0.0,0.0,0.0,0.0,0.0,0.0,0.0,0.0,0.0,0.0,0.0,0.0,0.0,0.0,0.0,0.0,0.0,0.0,0.0,0.0,2.2592,0.0,0.0,0.0,0.0,0.0,0.0,0.0,0.0,0.0,0.0,0.0,0.0,0.0,0.0,0.0,0.0,0.0,0.0,0.0,0.0,0.0,0.0,0.0,0.0,0.0,0.0,0.0,0.0,0.0,0.0,0.0,0.0,0.0,0.0,0.0,0.0,0.0,0.0,0.0,0.0,2.1582,2.2807,2.3766,2.4223,2.3767,2.3599,2.3897,2.3717,2.3132,2.2016,2.0537,0.0,0.0,0.0,0.0,0.0,0.0,0.0,0.0,0.0,0.0,0.0,0.0,0.0,0.0,0.0,0.0,0.0,0.0,0.0,0.0,0.0,0.0,0.0,0.0,0.0,0.0,0.0,0.0,0.0,0.0,0.0,0.0,0.0,0.0,0.0,0.0,0.0,0.0,0.0,0.0,0.0,0.0,0.0,0.0,0.0,0.0,0.0,0.0,0.0,0.0,0.0,0.0,0.0,2.9889,3.0154,3.0673,3.0673,3.0673,3.0524,2.85,2.6692,2.5048,2.3422,0.0,0.0,0.0,0.0,0.0,0.0,0.0,0.0,0.0,0.0,0.0,0.0,0.0,0.0,0.0,0.0,0.0,0.0,0.0,0.0,0.0,0.0,0.0,0.0,2.6016,2.5206,2.2349,0.0,0.0,0.0,0.0,0.0,0.0,0.0,0.0,0.0,0.0,0.0,2.2232,2.3313,2.4228,2.4744,2.4047,2.3937,2.4872,2.503,2.4923,2.459,2.2673,2.0814,0.0,0.0,0.0,0.0,0.0,0.0,0.0,0.0,0.0,0.0,0.0,0.0,0.0,0.0,0.0,0.0,0.0,0.0,0.0,0.0,0.0,0.0,0.0,0.0,0.0,0.0,0.0,0.0,0.0,0.0,0.0,0.0,2.8232,2.7678,0.0,0.0,0.0,0.0,0.0,0.0,0.0,0.0,0.0,0.0,0.0,0.0,0.0,2.9401,3.0932,3.144,3.2207,3.3263,3.3734,3.3995,3.4069,3.4069,3.4069,3.3987,3.321,0.0,2.8155,2.6322,0.0,0.0,0.0,0.0,0.0,0.0,0.0,0.0,0.0,0.0,0.0,0.0,0.0,0.0,0.0,0.0,0.0,0.0,0.0,0.0,0.0,0.0,2.9836,2.933,2.9206,2.8918,0.0,2.5043,2.2562,2.2362,2.1958,0.0,0.0,0.0,0.0,0.0,0.0,0.0,2.257,2.3545,2.4338,2.4774,2.5073,2.5326,2.5488,2.5969,2.608,2.5615,2.4503,2.3235,2.1823,1.9308,0.0,0.0,0.0,0.0,0.0,0.0,0.0,0.0,0.0,0.0,0.0,0.0,0.0,0.0,0.0,0.0,0.0,0.0,0.0,0.0,0.0,0.0,0.0,0.0,0.0,0.0,0.0,0.0,0.0,2.9192,2.9844,2.8925,2.8903,2.8599,0.0,0.0,0.0,0.0,0.0,0.0,0.0,0.0,0.0,3.1705,3.1729,3.2216,3.3236,3.3482,3.3991,3.4781,3.5019,3.5353,3.5642,3.5642,3.5479,3.5107,3.46,3.3341,3.1569,2.9485,2.8392,2.7861,0.0,0.0,0.0,0.0,2.6524,2.6491,2.6266,2.591,2.5513,2.5513,0.0,0.0,0.0,0.0,0.0,0.0,0.0,0.0,0.0,0.0,3.0093,2.9854,2.9792,2.9729,2.9465,2.7804,2.5961,0.0,2.3786,2.2983,2.1621,0.0,0.0,0.0,0.0,2.3502,2.4026,2.4638,2.5174,2.5693,2.5379,2.5425,2.6035,2.6371,2.6551,2.6641,2.5706,2.4611,2.3484,2.1798,1.9865,0.0,0.0,0.0,0.0,0.0,0.0,0.0,0.0,0.0,0.0,0.0,0.0,0.0,0.0,0.0,0.0,0.0,0.0,0.0,0.0,0.0,0.0,0.0,0.0,0.0,0.0,0.0,0.0,3.1243,3.1666,3.0486,3.0811,3.0544,0.0,0.0,0.0,0.0,0.0,0.0,3.2574,3.278,3.3307,3.4286,3.4324,3.4587,3.514,3.514,3.5353,3.5708,3.5708,3.5968,3.6405,3.6267,3.5931,3.5458,3.4768,3.4274,3.3765,3.1797,3.0295,2.917,2.8576,2.8171,2.7939,2.7812,2.7765,2.7742,2.7585,2.772,2.7846,2.7356,2.7058,2.6896,2.6896,0.0,0.0,0.0,0.0,2.9415,2.9177,2.9465,2.9792,2.9792,2.996,3.0139,3.0139,2.9972,2.9119,0.0,2.5561,2.4557,2.2991,0.0,0.0,0.0,0.0,2.4774,2.5232,2.5612,2.5985,2.6442,2.5852,2.5771,2.6633,2.684,2.709,2.7483,2.6662,2.584,2.5111,2.391,2.2168,1.9874,0.0,0.0,0.0,0.0,0.0,0.0,0.0,0.0,0.0,0.0,0.0,0.0,0.0,0.0,0.0,0.0,0.0,0.0,0.0,0.0,0.0,0.0,0.0,0.0,0.0,0.0,0.0,0.0,0.0,3.3064,3.427,0.0,0.0,0.0,0.0,3.2081,3.3057,3.374,3.3809,3.4311,3.4818,3.5395,3.542,3.573,3.6317,3.6317,3.6342,3.6367,3.6367,3.638,3.6392,3.583,3.552,3.5445,3.4412,3.3922,3.3809,3.2594,3.2389,3.2739,3.1597,3.1485,3.1847,3.1322,3.1135,3.106,3.0573,3.0968,3.1626,3.1112,3.1177,3.1467,3.1467,3.1502,0.0,0.0,3.0682,3.0893,2.9999,2.9767,2.9792,2.9792,3.0482,3.1143,3.1143,3.1802,3.1681,0.0,2.7862,2.6962,2.6336,0.0,2.524,2.4716,2.5148,2.5532,2.5569,2.6104,2.6468,2.6506,2.6899,2.7212,2.7247,2.7723,2.8024,2.8059,2.7534,2.722,2.7157,2.5255,2.4171,2.4007,2.1801,0.0,0.0,0.0,0.0,0.0,0.0,0.0,0.0,0.0,0.0,0.0,0.0,0.0,0.0,0.0,0.0,0.0,0.0,0.0,0.0,0.0,0.0,0.0,0.0,0.0,0.0,0.0,0.0,3.6954,3.7843,0.0,3.6343,3.63,3.5845,3.4468,3.5783,3.6492,3.6116,3.6293,3.6612,3.7182,3.6464,3.6157,3.6405,3.6405,3.6405,3.6405,3.6405,3.6405,3.6392,3.5805,3.5307,3.4931,3.4223,3.3696,3.3419,3.3685,3.3303,3.2478,3.2077,3.1825,3.1662,3.1461,3.186,3.2357,3.1708,3.2152,3.2931,3.2296,3.2206,3.2311,3.2311,3.2311,3.2254,3.1913,3.1522,3.1106,3.0796,3.0696,3.0696,3.0696,3.1439,3.2105,3.2105,3.2357,3.2214,3.0882,3.0062,2.9275,2.8348,2.7948,2.7595,2.7082,2.6953,2.7157,2.7731,2.7505,2.7263,2.7263,2.7431,2.7336,2.6823,2.6964,2.7077,2.7077,2.6901,2.7018,2.7527,2.6865,2.6076,2.514,2.4074,2.2305,0.0,0.0,0.0,0.0,0.0,0.0,0.0,0.0,0.0,0.0,0.0,0.0,0.0,0.0,0.0,0.0,0.0,0.0,0.0,0.0,0.0,0.0,0.0,0.0,0.0,0.0,3.8491,3.9143,4.0211,4.0392,3.9131,3.9241,3.8748,3.7221,3.8305,3.88,3.8192,3.8205,3.8336,3.868,3.7952,3.7599,3.7599,3.7599,3.7599,3.7599,3.7599,3.7449,3.7241,3.6625,3.6067,3.5452,3.455,3.4174,3.4178,3.454,3.404,3.3053,3.3053,3.2599,3.198,3.2136,3.2653,3.3198,3.3025,3.3307,3.3719,3.3591,3.3581,3.3581,3.3581,3.3581,3.3498,3.3171,3.2629,3.2069,3.1742,3.1669,3.1669,3.1669,3.2393,3.3066,3.3066,3.3359,3.3397,3.2723,3.1618,3.048,2.9508,2.9158,2.8864,2.8526,2.8279,2.833,2.8939,2.8492,2.8149,2.8149,2.8149,2.792,2.7384,2.7148,2.7109,2.7351,2.692,2.702,2.7776,2.7589,2.7046,2.6089,2.5454,2.3919,2.146,0.0,0.0,0.0,0.0,0.0,0.0,0.0,0.0,0.0,0.0,0.0,0.0,0.0,0.0,0.0,0.0,0.0,0.0,0.0,0.0,0.0,0.0,0.0,3.6533,3.8589,3.9937,3.9466,4.1424,4.2175,4.0541,4.1274,4.1366,4.0185,4.0586,4.0611,3.997,3.9942,3.9942,3.9942,3.9899,3.9899,3.9899,3.9899,3.9899,3.9899,3.9885,3.9554,3.889,3.8269,3.7662,3.6988,3.5438,3.5278,3.6132,3.517,3.4787,3.4746,3.4746,3.4066,3.3182,3.3582,3.3739,3.386,3.4657,3.454,3.4211,3.518,3.5504,3.5504,3.5504,3.5504,3.5294,3.4312,3.4027,3.3774,3.289,3.2629,3.2629,3.2629,3.3345,3.4061,3.4061,3.4791,3.5265,3.4608,3.2511,3.0657,3.0011,2.9435,2.9097,2.9097,2.9066,0.0,2.9066,2.9066,2.9034,2.9034,2.9034,2.9034,2.9002,2.8388,2.8291,2.8933,2.7737,2.7322,2.8016,2.7421,2.7061,2.7061,2.5977,2.5121,2.4552,0.0,0.0,0.0,0.0,0.0,0.0,0.0,0.0,0.0,0.0,0.0,0.0,0.0,0.0,0.0,0.0,0.0,0.0,0.0,0.0,0.0,3.8061,3.9659,3.9659,4.1007,4.2552,4.4144,4.4906,4.5126,4.4683,4.3996,4.3133,4.1981,4.2353,4.2177,4.1183,4.1127,4.1127,4.1127,4.0318,3.9899,3.9899,3.9899,3.9899,3.9885,3.9386,3.9083,3.8862,3.7827,3.7276,3.7028,3.6168,3.5934,3.6251,3.6749,3.6476,3.5774,3.5774,3.4861,3.3636,3.4524,3.4727,3.4699,3.5722,3.5648,3.5133,3.5392,3.5504,3.5504,3.5504,3.5504,3.5424,3.5166,3.4543,3.3945,3.3671,3.3636,3.3636,3.3636,3.4361,3.51,3.51,3.4924,3.4593,3.3903,3.2833,3.1964,3.1788,3.1232,3.0807,3.0807,3.0329,0.0,3.0748,3.0299,2.995,2.995,2.995,2.969,2.9066,2.8388,2.8081,2.8278,2.7473,2.7591,2.8906,2.8764,2.8664,2.8664,2.6525,2.5534,0.0,0.0,0.0,0.0,0.0,0.0,0.0,0.0,0.0,0.0,0.0,0.0,0.0,0.0,0.0,0.0,0.0,0.0,0.0,0.0,0.0,0.0,4.046,4.2188,4.3052,4.3774,4.4722,4.6147,4.6576,4.6636,4.6309,4.5618,4.4653,4.3409,4.3564,4.3318,4.2345,4.233,4.233,4.233,4.1657,4.1309,4.1309,4.1052,4.0965,4.0965,4.0265,3.9782,3.9496,3.8821,3.8349,3.8039,3.7215,3.7137,3.7544,3.7451,3.7006,0.0,0.0,0.0,0.0,0.0,3.5146,3.5244,3.5859,3.5833,3.5504,3.5504,3.5504,3.5504,3.5504,3.5504,3.5504,3.5504,3.51,3.461,3.461,3.461,3.461,3.461,3.5067,3.5429,3.513,3.4756,3.4234,3.326,3.2781,0.0,3.2123,3.1765,3.1511,3.1511,3.1087,3.097,3.1438,3.1087,3.0807,3.0807,3.0807,3.0614,3.0072,2.9425,0.0,0.0,0.0,2.8383,2.8979,2.9256,0.0,0.0,0.0,0.0,0.0,0.0,0.0,0.0,2.5923,2.5463,0.0,0.0,0.0,0.0,0.0,0.0,0.0,0.0,0.0,0.0,0.0,0.0,0.0,0.0,0.0,0.0,4.2529,4.4246,4.6025,4.6279,4.6309,4.6384,4.689,4.6965,4.6339,4.6145,4.5562,4.4407,4.4242,4.3943,4.3319,0.0,0.0,0.0,0.0,4.326,4.3185,4.2656,4.2366,4.2276,4.1632,4.0965,4.0397,4.0322,3.9963,3.9337,3.8383,3.8465,3.9173,3.7624,3.691,3.6743,3.6633,3.6116,3.539,3.5089,3.5204,3.5504,3.5504,0.0,0.0,3.5504,3.5504,3.5504,3.5504,3.5504,3.5504,3.5504,3.5504,3.5504,3.5504,3.5504,3.5504,3.5504,3.5444,3.522,3.4638,3.4384,3.3903,3.2736,3.2452,3.2183,3.16,3.1511,3.1511,3.1511,3.1511,3.1511,3.1511,3.1511,3.1511,3.1511,0.0,0.0,3.1511,3.0883,3.0507,3.0507,3.0066,2.9602,2.9078,2.9581,2.9884,2.9942,3.0402,3.098,3.1701,3.1701,3.1749,3.1718,2.8012,2.6905,0.0,0.0,0.0,0.0,0.0,0.0,0.0,0.0,0.0,0.0,0.0,0.0,0.0,0.0,0.0,4.1917,4.4135,4.5846,4.6277,4.6279,4.6516,4.7055,4.6756,4.6456,4.6294,4.5334,4.4601,4.4332,4.3783,4.3424,4.3305,4.329,4.329,4.329,4.329,4.309,4.259,4.247,4.2126,4.1602,0.0,0.0,4.0382,3.9843,3.9508,3.9388,3.9177,3.8901,3.8571,3.8245,3.7486,3.6482,3.5592,3.5677,3.6222,3.5589,3.5431,3.5504,3.5504,3.5504,3.5504,3.5504,3.5504,3.5504,3.5504,3.5504,0.0,3.5504,3.5504,3.5504,3.5504,3.5504,3.5504,3.5504,3.5085,3.4668,3.4533,3.3649,3.2826,3.2557,3.2049,3.1645,3.1525,3.1511,3.1511,3.1511,3.1511,3.1511,3.1511,3.1511,3.1511,3.1511,3.1511,3.1511,3.1511,3.0883,3.0507,3.0507,3.0948,3.1394,3.181,3.1944,3.2019,3.2003,3.159,3.169,3.2337,3.2337,3.2594,3.3104,3.1278,3.0591,0.0,0.0,0.0,0.0,0.0,0.0,0.0,0.0,0.0,0.0,0.0,3.9431,4.0891,0.0,4.2987,4.4146,4.5454,4.6441,4.677,4.6488,4.6399,4.677,4.6217,4.5678,4.5308,4.4706,4.4182,4.3798,4.3484,4.329,4.329,4.329,4.329,4.329,4.3015,4.2686,4.2396,4.1752,4.1205,4.0876,4.0232,3.9903,3.9903,3.9574,3.9388,3.9394,3.905,3.8706,3.8347,3.7704,3.6866,3.5965,3.5421,3.5522,3.5953,3.5624,3.5504,3.5504,3.5504,3.5504,3.5504,3.5504,3.5504,3.5504,3.5504,3.5504,3.5504,3.5504,3.5504,3.5504,3.5504,3.5504,3.5504,3.5504,3.4981,3.4414,3.4053,3.3215,3.2392,3.2049,3.1735,3.1511,3.1511,3.1511,3.1511,3.1511,3.1511,3.1511,3.1511,3.1511,3.1511,3.1511,3.1197,3.1137,3.1466,3.1233,3.118,3.1515,3.1893,3.2257,3.2592,3.2886,3.3055,3.3087,3.3067,3.3381,3.4052,3.4052,3.4213,3.4541,3.3889,3.3223,0.0,0.0,0.0,0.0,0.0,0.0,0.0,0.0,3.9947,4.1805,4.2147,4.2626,4.4212,4.4616,4.5065,4.61,4.6384,4.6651,4.7055,4.6546,4.6082,4.5948,4.5439,4.4885,4.4362,4.4197,4.3858,4.3334,4.329,4.329,4.329,4.329,4.329,4.329,4.2701,4.2336,4.2216,4.0995,4.0337,4.0202,3.9679,3.9388,3.9388,3.9388,3.9313,3.917,3.8362,3.8018,3.7928,3.6776,3.5983,3.5504,3.5504,3.5504,3.5504,3.5504,3.5504,3.5504,3.5504,3.5504,3.5504,3.5504,3.5504,3.5504,3.5504,3.5504,3.5504,3.5504,3.5504,3.5504,3.5504,3.5504,3.5504,3.5504,3.4876,3.4174,3.3604,3.2886,3.2138,3.16,3.1511,3.1511,3.1511,3.1511,3.1511,3.1511,3.1511,3.1511,3.1511,3.1391,3.1316,3.1316,3.0731,3.0653,3.1441,3.1797,3.2274,3.2955,3.2978,3.3031,3.3194,3.3641,3.3922,3.3991,3.4471,3.5013,3.56,3.56,3.56,3.56,3.56,3.5005,3.7904,3.6958,3.7476,4.0492,4.0449,4.0563,0.0,0.0,4.3528,4.4639,4.4855,4.493,4.5155,4.5678,4.6157,4.6264,4.6815,4.7025,4.6516,4.5843,4.5185,4.4601,4.4466,4.4392,4.4332,4.3738,4.3364,4.3305,4.329,4.329,4.329,4.329,4.329,4.329,4.2701,4.2111,4.1527,4.0771,4.0113,3.9493,3.9454,3.9388,3.9388,3.9388,3.9095,3.8437,3.7225,3.6701,3.6641,3.5923,3.5564,3.5504,3.5504,3.5504,3.5504,3.5504,3.5504,3.5504,3.5504,3.5504,3.5504,3.5504,3.5504,3.5504,3.5504,3.5504,3.5504,3.5504,3.5504,3.5504,3.5504,3.5504,3.5504,3.5504,3.4532,3.3589,3.3514,3.2527,3.1585,3.1511,3.1511,3.1511,3.1511,3.1511,3.1511,3.1511,3.1511,3.1511,3.1511,3.0972,3.0612,3.0612,3.0058,3.0196,3.1482,3.2693,3.3655,3.4317,3.4389,3.4644,3.5244,3.5329,3.5374,3.5374,3.5442,3.5515,3.56,3.56,3.56,3.56,3.56,3.5515,4.0192,3.9847,4.0306,4.1306,4.2166,4.3293,4.533,4.5377,4.534,4.6532,4.6301,4.6007,4.6396,4.6696,4.689,0.0,4.713,4.707,4.6369,4.5723,4.505,4.4392,4.3973,4.3708,4.3708,4.3454,4.329,4.329,4.329,4.329,4.329,4.329,4.3125,4.2776,4.2132,4.1512,4.0816,4.0157,3.9694,3.9388,3.9388,3.9388,3.9373,3.9005,3.8257,3.7255,3.6716,3.6267,3.5893,3.5624,3.5504,3.5504,3.5504,3.5504,3.5504,3.5504,3.5504,3.5504,3.5504,3.5504,3.5504,3.5504,3.5504,3.5504,3.5504,3.5504,3.5504,3.5504,3.5504,3.5504,3.5504,3.5504,3.54,3.4996,3.4188,3.338,3.3006,3.2168,3.1511,3.1511,3.1511,3.1511,3.1511,3.1853,3.2148,3.2148,3.1768,3.1511,3.1511,3.1256,3.1082,3.1143,3.1258,3.1554,3.2145,3.3408,3.4309,3.4576,3.4981,3.5115,3.4957,3.5363,3.5397,3.4979,3.538,3.56,3.56,3.56,3.56,3.56,3.56,3.56,4.1683,4.1767,4.2173,4.2304,4.36,4.521,4.6557,4.683,4.7035,4.7681,4.7216,4.6704,4.6738,4.6756,4.6815,4.6995,4.704,4.68,4.6142,4.5618,4.499,4.4152,4.3589,4.329,4.329,4.329,4.329,4.329,4.329,4.329,4.329,4.3125,4.2851,4.241,4.1587,4.0876,4.0397,3.9753,3.9388,3.9388,3.9388,3.932,3.911,3.8257,3.736,3.6477,3.6297,3.5953,3.5504,3.5504,3.5504,3.5504,3.5504,3.5504,3.5504,3.5504,3.5504,3.5504,3.5504,3.5504,3.5504,3.5504,3.5504,3.5504,3.5504,3.5504,3.5504,3.5504,3.5504,3.5504,3.5504,3.5504,3.5325,3.4668,3.3978,3.332,3.2632,3.1974,3.1553,3.1768,3.1796,3.1866,3.2048,3.2516,3.2868,3.2868,3.2422,3.202,3.1824,3.1474,3.1252,3.131,3.2101,3.2577,3.2587,3.3994,3.4688,3.429,3.5104,3.5261,3.4523,3.5216,3.5346,3.481,3.5329,3.56,3.56,3.56,3.56,3.56,3.56,3.56,4.1602,4.1384,4.1964,4.4141,4.4743,4.5572,4.8513,4.9202,4.8936,4.7986,4.7778,4.7271,4.5661,4.5349,4.5574,4.6204,4.6309,4.6112,4.5424,4.5304,4.4811,4.3484,4.3305,4.329,0.0,4.329,4.329,4.329,4.329,4.329,4.329,4.2746,4.2425,4.2396,4.1115,4.0427,4.0397,3.9753,3.9388,3.9388,3.9388,3.9065,3.8377,3.712,3.6522,3.6447,3.5804,3.5534,3.5504,3.5504,3.5504,3.5504,3.5504,3.5504,3.5504,3.5504,3.5504,3.5504,3.5504,3.5504,3.5504,3.5504,3.5504,3.5504,3.5504,3.5504,3.5504,3.5504,3.5504,3.5504,3.5504,3.5504,3.5325,3.4668,3.3978,3.332,3.2632,3.1974,3.171,3.2437,3.2574,3.2761,3.3401,3.3556,3.3572,3.3572,3.3556,3.3313,3.2641,3.1359,3.057,3.0618,3.181,3.2579,3.251,3.4387,3.4952,3.3516,3.4805,3.5261,3.4523,3.5216,3.5583,3.5566,3.5583,3.56,3.56,3.56,3.56,3.56,3.56,3.56,4.2006,4.2066,4.2353,4.3521,4.4657,4.591,4.7378,4.7722,4.7606,4.7254,4.6297,4.5319,4.4717,4.4646,4.487,4.5529,4.6022,4.6082,4.5394,4.5289,4.4811,4.3454,4.329,0.0,0.0,0.0,0.0,4.326,4.294,4.2686,4.2686,4.2515,4.1991,4.1085,4.0636,4.0187,3.9753,3.9493,3.9185,3.8736,3.8302,3.7749,3.7105,3.672,3.6252,3.5818,3.5609,3.5504,3.5537,3.6023,3.5943,3.5554,3.6023,3.5911,3.5504,3.5504,3.5814,3.6165,3.5668,3.5504,3.5504,3.5504,3.5504,3.5504,3.5504,3.5504,3.5504,3.5504,3.5504,3.5504,3.5504,3.5504,3.5334,3.4668,3.3985,3.3337,3.2684,3.2384,3.2299,3.2547,3.296,3.3339,3.3556,3.3962,3.426,3.426,3.3521,3.2868,3.2614,3.221,3.2056,3.2554,3.2942,3.3573,3.4477,3.4312,3.415,3.4134,3.415,3.3812,3.3072,3.3744,3.3914,3.3406,3.437,3.4878,3.4878,3.5346,3.56,3.56,3.56,3.56,4.2219,4.2575,4.2865,4.3524,4.4516,4.5602,4.6656,4.6889,4.6749,4.6291,4.5294,4.4255,4.3423,4.3269,4.3554,4.4451,4.5155,4.5529,4.5334,4.5289,4.4885,4.3768,4.3439,4.329,0.0,0.0,0.0,4.294,4.2635,4.2306,4.2066,4.1826,4.1265,4.0427,4.0172,3.9843,3.9388,3.917,3.8721,3.8033,3.7389,3.6866,3.6477,3.6237,3.5908,3.5504,3.5782,3.5894,3.5943,3.6722,3.6753,3.6368,3.6828,3.6722,3.6321,3.6321,3.6615,3.6919,3.6149,3.607,3.6274,3.599,3.5894,3.5831,3.5587,3.5504,3.5504,3.5504,3.5504,3.5504,3.5504,3.5701,3.5657,3.4719,3.4382,3.4043,3.3165,3.296,3.3013,3.3261,3.3659,3.4037,3.4276,3.4664,3.4965,3.4965,3.4012,3.3251,3.2986,3.296,3.3209,3.3887,3.3924,3.4257,3.5116,3.4353,3.3761,3.3732,3.3525,3.3068,3.2327,3.3,3.3305,3.3089,3.402,3.4624,3.4895,3.5363,3.56,3.56,3.56,3.56,4.2144,4.2693,4.3264,4.3971,4.4176,4.4594,4.6343,4.6687,4.6338,4.5082,4.4741,4.3994,4.1821,4.1422,4.1803,4.3035,4.3828,4.4526,4.5155,4.5244,4.5005,0.0,0.0,0.0,0.0,0.0,0.0,4.2306,0.0,4.2036,4.1369,4.0778,4.0456,4.0411,3.9847,3.9487,3.9472,3.8717,3.8042,3.7413,3.6765,3.6432,3.6417,3.5789,3.5537,3.5587,3.6306,3.66,3.6722,3.7544,3.7835,3.7806,3.7835,3.7835,3.7793,3.7793,3.7806,3.7748,3.6994,3.7203,3.7661,3.6904,3.663,3.6477,3.575,3.5554,3.5569,3.5504,3.5569,3.5619,3.5569,3.6117,3.6319,3.4938,3.5152,3.531,3.3938,3.3659,3.3836,3.4479,3.4624,3.4847,3.5492,3.56,3.56,3.56,3.5052,3.4406,3.3735,3.3617,3.3838,3.4528,3.4541,3.4486,3.4496,3.4387,3.3766,3.2395,3.2916,3.2966,3.2276,3.2916,3.3626,3.437,3.4421,3.481,3.5532,3.5583,3.56,3.56,3.56,3.56,4.0351,4.0633,4.1,4.2011,4.2276,4.265,4.3908,4.3853,4.359,4.3702,4.2554,4.1512,4.143,4.1422,0.0,4.2515,4.3569,0.0,4.4541,4.4556,0.0,4.3618,0.0,4.329,4.329,4.2596,0.0,0.0,4.1175,4.0831,4.0651,4.11,4.1142,4.0639,4.1088,4.1077,4.0508,3.8721,3.7718,3.7534,3.6308,3.5744,3.5744,3.5579,3.5814,3.6337,3.6523,3.6934,3.7544,3.8302,3.8302,3.7835,3.8386,3.8274,3.7793,3.7793,3.8149,3.8608,3.8398,3.8104,3.7764,3.7573,3.71,3.6538,3.6399,3.6337,3.6196,3.5636,3.6321,3.7101,3.6492,3.6889,3.7281,3.6368,3.5921,3.5444,3.4545,3.4358,3.4406,3.4576,3.4988,3.5385,3.5577,3.56,3.56,3.56,3.5453,3.5098,3.4431,3.3875,3.3792,3.4526,3.3567,3.3325,3.4421,3.2983,3.2124,3.2293,3.1952,3.1681,3.1478,3.1664,3.2104,3.2852,3.3389,3.4049,3.4776,3.5329,3.56,3.56,3.56,3.56,4.0082,4.0272,4.0348,4.0774,4.1211,4.1623,4.1668,4.2075,4.2171,4.1324,4.0531,3.9993,4.0053,4.0665,4.131,0.0,0.0,0.0,4.4932,4.5301,4.5434,0.0,4.4388,0.0,4.4064,4.2804,4.2002,0.0,4.1408,4.0836,4.0532,4.1348,4.1655,4.128,4.1437,4.1038,4.0,3.876,3.7963,3.7665,3.6894,3.6523,3.6523,3.6523,3.6738,3.7144,0.0,3.786,3.833,3.9113,3.9183,3.8859,3.9262,3.9183,3.8805,3.8805,3.9076,3.9437,3.9437,3.9156,3.875,3.8402,3.7975,3.7571,3.7233,3.713,3.704,3.6631,3.7115,3.7706,3.7233,3.7703,3.8028,3.694,3.6664,3.6379,3.5274,3.5052,3.5052,3.5052,3.5339,3.56,3.56,3.56,3.56,3.56,3.56,3.547,3.5075,3.4678,3.4578,3.5001,3.3972,3.3613,3.4421,3.2784,3.187,3.2276,3.1616,3.119,3.119,3.1495,3.2019,3.2763,3.3508,3.4252,3.4979,3.5397,3.56,3.56,3.56,3.56,4.0096,4.0209,4.0062,3.9747,4.0334,4.0768,3.9814,4.072,4.1181,3.899,3.8856,3.902,3.8601,3.9669,4.0828,4.1467,0.0,4.5857,4.579,4.6518,4.7061,4.7061,4.5845,4.5034,4.5091,4.2973,4.1985,4.2936,4.2221,4.1498,4.0909,4.1707,4.2189,4.2187,4.1382,4.0337,3.9127,3.8913,3.8531,3.795,3.7851,3.7793,3.7793,3.7793,3.7835,3.7978,3.8635,3.8962,3.9113,3.9808,4.0096,4.0096,4.0096,4.0096,4.0096,4.0096,4.0096,4.0096,4.0096,4.0096,3.9978,3.9289,3.9005,3.8772,3.8133,3.795,3.7921,3.7822,3.795,3.8092,3.7978,3.8432,3.858,3.7199,3.7318,3.7364,3.5904,3.56,3.56,3.56,3.56,3.56,3.56,3.56,3.56,3.56,3.56,3.56,3.56,3.5515,3.5481,3.5583,3.4861,3.4387,3.4489,3.3241,3.2412,3.231,3.1701,3.1343,3.1343,3.1955,3.2679,3.3541,3.4167,3.4861,3.56,3.56,3.56,3.56,3.56,3.56,3.7798,3.7475,3.7371,3.8192,3.8229,3.832,3.9377,3.9073,0.0,3.9139,3.8452,3.8063,3.905,3.9463,4.0304,4.2248,4.3511,4.4658,4.5933,4.6259,4.6365,0.0,4.6127,4.5741,4.516,4.3552,0.0,0.0,4.2346,4.1899,4.1772,4.2583,4.3116,4.3171,4.1848,4.1027,4.0802,3.9528,3.8805,3.869,3.8092,3.7793,3.7793,3.7793,3.8149,3.8718,3.8854,0.0,3.9901,4.0045,4.0096,4.0096,4.0096,4.0096,4.0096,4.0096,4.0096,4.0096,4.0096,4.0096,4.007,3.9927,3.9437,3.8881,3.8745,3.8718,3.858,3.7978,3.8723,3.9558,3.8897,3.8857,3.8764,3.7906,3.7344,3.6738,3.5785,3.56,3.56,3.56,3.56,3.56,3.56,3.56,3.56,3.56,3.56,3.56,3.56,3.5081,3.4928,3.5532,3.4404,3.3846,3.4438,3.3711,3.2949,3.2344,3.2175,3.2107,3.2107,3.2226,3.2936,3.4269,3.4421,3.4861,3.56,3.56,3.56,3.56,3.56,3.56,3.7262,3.6998,3.69,3.7134,3.7469,3.77,3.7672,0.0,0.0,3.7511,3.715,3.712,3.7778,3.8588,0.0,4.0355,4.2234,4.397,4.501,4.5946,0.0,4.7572,4.6878,4.6272,0.0,4.4133,4.3146,4.3789,4.3119,4.2676,4.2676,4.3122,4.3015,4.2277,4.1576,4.1018,4.0629,3.9899,3.9516,3.9516,3.9172,3.8995,3.8995,3.8995,3.9183,3.9516,3.9516,3.9756,4.0096,4.0096,4.0096,4.0096,4.0096,4.0096,4.0096,4.0096,4.0096,4.0096,4.0096,4.0096,4.0096,4.0096,3.9833,3.9516,3.9516,3.9516,3.9437,3.9119,3.9532,4.002,3.9636,3.927,3.8802,3.8091,3.7026,3.6079,3.5667,3.56,3.56,3.56,3.56,3.56,3.56,3.56,3.56,3.56,3.56,3.56,3.56,3.5301,3.5216,3.5566,3.4624,3.4117,3.4455,3.3829,3.3254,3.2882,3.2865,3.2865,3.2865,3.3237,3.3783,3.4472,3.4878,3.5245,3.56,3.56,3.56,3.56,3.56,3.56,3.7299,3.7098,3.6958,3.6518,3.698,3.7177,3.5885,3.6793,0.0,3.5573,3.5776,3.6312,3.6462,3.7549,3.846,0.0,4.1036,4.3178,4.4139,4.57,4.7198,0.0,4.7502,0.0,4.6574,4.4596,0.0,4.4536,4.3826,4.3313,4.3313,4.3071,4.2405,4.1238,4.1052,4.0679,4.0113,4.0096,4.0096,4.0096,4.0096,4.0096,4.0096,4.0096,4.0096,4.0096,4.0096,4.0096,4.0096,4.0096,4.0096,4.0096,4.0096,4.0096,4.0096,4.0096,4.0096,4.0096,4.0096,4.0096,4.0096,4.0096,4.0096,4.0096,4.0096,4.0096,4.0096,4.0096,4.0096,4.0096,4.0096,3.9453,3.8531,3.7635,3.6479,3.56,3.56,3.56,3.56,3.56,3.56,3.56,3.56,3.56,3.56,3.56,3.56,3.56,3.56,3.56,3.56,3.56,3.5081,3.4742,3.4742,3.4201,3.3791,3.3643,3.3643,3.3643,3.3643,3.4184,3.4573,3.4726,3.5295,3.56,3.56,3.56,3.56,3.56,3.56,3.5684,3.7199,3.6822,3.6468,3.6417,3.6074,3.5549,3.4792,0.0,3.5183,3.4307,3.4916,3.5774,3.6372,3.6622,3.7376,3.9351,4.0444,4.1831,4.4156,4.5706,4.6699,4.695,0.0,0.0,4.594,4.487,4.4354,4.4564,4.3855,4.3394,4.3394,4.2115,4.1339,4.1204,4.0544,4.018,4.0096,4.0096,4.0096,4.0096,4.0096,4.0096,4.0096,4.0096,4.0096,4.0096,4.0096,0.0,0.0,4.0096,4.0096,4.0096,4.0096,4.0096,4.0096,4.0096,4.0096,4.0096,4.0096,4.0096,4.0096,4.0096,4.0096,4.0096,4.0096,4.0096,4.0096,4.0096,4.0096,4.0096,4.0096,3.9056,3.7635,3.6157,3.5701,3.56,3.56,3.56,3.56,3.56,3.56,3.56,3.56,3.56,3.56,3.56,3.56,3.56,3.56,3.56,3.56,3.56,3.5532,3.5498,3.5498,3.543,3.5092,3.4438,3.4387,3.4387,3.4387,3.4455,3.481,3.5481,3.5566,3.56,3.56,3.56,3.56,3.56,3.56,3.5994,3.6596,3.6568,3.6405,3.6405,3.6194,3.5767,3.4744,3.5036,3.5259,3.4211,3.4806,3.5594,3.5848,3.5893,3.6175,3.7084,3.7815,3.9076,4.1358,4.3013,4.4509,4.5877,4.6367,0.0,0.0,0.0,4.4342,4.3899,4.276,4.2083,4.2083,4.1525,4.1001,4.0544,4.0265,4.0096,4.0096,4.0096,4.0096,4.0096,4.0096,4.0096,4.0096,4.0096,4.0096,4.0096,4.0096,0.0,0.0,4.0096,4.0096,4.0096,4.0096,4.0096,4.0096,4.0096,4.0096,4.0096,4.0096,4.0096,4.0096,4.0096,4.0096,4.0096,4.0096,4.0096,4.0096,4.0096,4.0096,4.0096,4.0096,3.9005,3.7516,3.5971,3.56,3.56,3.56,3.56,3.56,3.56,3.56,3.56,3.56,3.56,3.56,3.56,3.56,3.56,3.56,3.56,3.56,3.56,3.56,3.5414,3.4979,3.5329,3.5301,3.4539,3.4928,3.5165,3.5165,3.5165,3.5295,3.5583,3.56,3.56,3.56,3.56,3.56,3.56,3.56,3.6045,3.6166,3.6166,3.5918,3.6069,3.5994,3.5511,3.413,3.4563,3.4915,3.3825,3.4361,3.5133,3.5439,3.5504,3.5504,3.5504,3.623,3.7368,3.8975,4.0939,4.2714,0.0,0.0,4.5196,0.0,4.4215,4.3589,4.2801,4.1796,4.1102,4.0882,4.0865,4.0629,4.013,4.0096,4.0096,4.0096,4.0096,4.0096,4.0096,4.0096,4.0096,4.0096,4.0096,4.0096,4.0096,4.0096,0.0,0.0,4.0096,4.0096,4.0096,4.0096,4.0096,4.0096,4.0096,4.0096,4.0096,4.0096,4.0096,4.0096,4.0096,4.0096,4.0096,4.0096,4.0096,4.0096,4.0096,4.0096,4.0011,3.9571,3.8667,3.7516,3.5971,3.56,3.56,3.56,3.56,3.56,3.56,3.56,3.56,3.56,3.56,3.56,3.56,3.56,3.56,3.56,3.56,3.56,3.56,3.56,3.538,3.4878,3.5295,3.538,3.4861,3.5455,3.5761,3.56,3.5761,3.5761,3.56,3.56,3.56,3.56,3.56,3.5718,3.596,3.596,3.6485,3.5965,3.5567,3.4831,3.537,3.5094,3.4299,3.2604,3.3019,3.3502,3.2763,3.3345,3.4312,3.5326,3.5504,3.5504,3.5504,3.6567,3.7473,3.7698,4.0198,4.1815,0.0,0.0,4.4022,4.2472,4.232,4.2016,4.1288,4.1221,0.0,4.0146,4.0113,4.0113,4.0096,4.0096,4.0096,4.0096,4.0096,4.0096,4.0096,4.0096,4.0096,4.0096,4.0096,4.0096,4.0096,0.0,0.0,0.0,4.0096,4.0096,4.0096,4.0096,4.0096,4.0096,4.0096,4.0096,4.0096,4.0096,4.0096,4.0096,4.0096,4.0096,4.0096,4.0096,4.0096,4.0096,4.0096,4.0096,3.9774,3.8311,3.7922,3.7516,3.5971,3.56,3.56,3.56,3.56,3.56,3.56,3.56,3.56,3.56,3.56,3.56,3.56,3.56,3.56,3.56,3.56,3.56,3.56,3.56,3.56,3.5583,3.56,3.56,3.5583,3.6097,3.6161,3.5622,3.6118,3.6139,3.5622,3.56,3.56,3.56,3.56,3.6011,3.6795,3.6795,3.7574,3.4016,3.4135,3.411,3.3909,3.3721,3.3257,3.1951,3.2386,3.2984,3.2681,3.3345,3.4312,3.5311,3.5504,3.5654,3.6103,3.6507,3.7138,3.8159,0.0,0.0,4.1835,4.3009,4.3589,0.0,0.0,4.1457,4.1221,4.073,4.0367,4.0113,4.0096,4.0096,4.0096,4.0096,4.0096,4.0096,4.0096,4.0096,4.0096,4.0096,4.0096,4.0096,4.0096,4.0096,0.0,0.0,0.0,4.0096,4.0096,4.0096,4.0096,4.0096,4.0096,4.0096,4.0096,4.0096,4.0096,4.0096,4.0096,4.0096,4.0096,4.0096,4.0096,4.0096,4.0096,4.0096,4.0096,4.0096,3.9757,3.8278,3.7905,3.7516,3.5971,3.56,3.56,3.56,3.56,3.56,3.56,3.56,3.56,3.56,3.56,3.56,3.56,3.56,3.56,3.56,3.56,3.56,3.56,3.56,3.5397,3.4895,3.5295,3.554,3.5404,3.6036,3.6498,3.6704,3.6501,3.6312,3.6161,3.6332,3.6146,3.56,3.6648,3.7313,3.7567,3.8058,3.8548,3.3021,3.3018,3.2918,3.278,3.2874,3.2746,3.1813,3.2345,3.3049,3.3121,3.3602,3.4312,3.5311,3.5504,3.5639,3.6043,3.6522,3.7077,3.7757,0.0,0.0,4.251,0.0,0.0,0.0,4.1644,4.0781,4.0781,4.0367,4.0096,4.0096,4.0096,4.0096,4.0096,4.0096,4.0096,4.0096,4.0096,4.0096,4.0096,4.0096,4.0096,4.0096,4.0096,4.0096,0.0,0.0,4.0096,0.0,4.0096,4.0096,4.0096,4.0096,4.0096,4.0096,4.0096,4.0096,4.0096,4.0096,4.0096,4.0096,4.0096,4.0096,4.0096,4.0096,4.0096,4.0096,4.0096,4.0096,3.9757,3.8278,3.7905,3.7516,3.5971,3.56,3.56,3.56,3.5761,3.5898,3.5898,3.5898,3.5898,3.5898,3.5739,3.56,3.56,3.56,3.56,3.56,3.56,3.56,3.56,3.56,3.5397,3.4962,3.5329,3.5557,3.5427,3.622,3.6764,3.6884,3.6764,3.6742,3.6811,3.6819,3.6688,3.6462,3.7719,3.8328,3.8328,3.9056,3.9436,0.0,3.2214,3.1449,3.1926,3.2373,3.2567,3.2065,3.2674,0.0,3.3888,3.3993,3.4312,3.5311,3.5504,3.5519,3.5564,3.6663,3.7328,0.0,3.9216,0.0,0.0,4.2185,0.0,4.2219,4.0976,4.0096,4.0096,4.0096,4.0096,4.0096,4.0096,4.0096,4.0096,4.0096,4.0096,4.0096,4.0096,4.0096,4.0096,4.0096,4.0096,4.0096,4.0096,4.0096,0.0,4.0096,4.0096,4.0096,4.0096,4.0096,4.0096,4.0096,4.0096,4.0096,4.0096,4.0096,4.0096,4.0096,4.0096,4.0096,4.0096,4.0096,4.0096,4.0096,4.0096,4.0096,4.0096,4.0096,3.9774,3.8345,3.7963,3.7581,3.6045,3.5701,3.5694,3.5667,3.6075,3.6457,3.6457,3.6457,3.6437,3.6412,3.5985,3.5627,3.56,3.56,3.56,3.56,3.56,3.56,3.56,3.56,3.56,3.56,3.56,3.5622,3.565,3.6603,3.696,3.6522,3.6974,3.7325,3.755,3.7092,3.7286,3.8075,3.8732,3.9054,3.9089,3.9824,4.0146,3.2691,0.0,3.0733,3.0432,3.0971,3.1549,0.0,3.209,3.3022,3.3837,3.3993,3.4312,3.5311,3.5504,3.5669,3.6178,3.7451,3.8366,3.8285,4.0414,0.0,4.4136,4.2963,4.21,4.2269,4.0976,4.0096,4.0096,4.0096,4.0096,4.0096,4.0096,4.0096,4.0096,4.0096,4.0096,4.0096,4.0096,4.0096,4.0096,4.0096,4.0096,4.0096,4.0096,4.0096,4.0096,4.0096,4.0096,4.0096,4.0096,4.0096,4.0096,4.0096,4.0096,4.0096,4.0096,4.0096,4.0096,4.0096,4.0096,4.0096,4.0096,4.0096,4.0096,4.0096,4.0096,4.0096,4.0096,4.0096,3.9893,3.8971,3.8576,3.8105,3.682,3.6659,3.6706,3.6291,3.6623,3.7001,3.7001,3.7001,3.6882,3.6478,3.6308,3.6075,3.565,3.56,3.56,3.56,3.56,3.56,3.56,3.56,3.56,3.56,3.56,3.5783,3.6182,3.6457,3.6884,3.7524,3.7468,3.7647,3.8104,3.7808,3.8278,3.9588,3.9596,3.9675,3.9859,4.0436,4.0497,3.3241,3.2613,3.1922,3.1606,3.2233,3.2935,3.2935,3.3466,3.4075,3.4576,3.4691,3.4957,3.5832,3.6006,3.6239,3.697,3.8013,3.9105,0.0,0.0,4.2861,4.4429,4.3244,4.2286,0.0,4.0976,4.0096,4.0096,4.0096,4.0096,4.0096,4.0096,4.0096,4.0096,4.0096,4.0096,4.0096,4.0096,4.0096,4.0096,4.0096,4.0096,4.0096,4.0096,4.0096,4.0096,4.0096,4.0096,4.0096,4.0096,4.0096,4.0096,4.0096,4.0096,4.0096,4.0096,4.0096,4.0096,4.0096,4.0096,4.0096,4.0096,4.0096,4.0096,4.0096,4.0096,4.0096,4.0096,4.0096,3.9943,3.9174,3.8813,3.835,3.7352,3.7161,3.7133,3.6823,3.7173,3.7524,3.7524,3.7524,3.736,3.6845,3.6563,3.6224,3.5672,3.56,3.56,3.56,3.56,3.56,3.56,3.56,3.56,3.56,3.5943,3.6265,3.6559,3.6784,3.7306,3.8182,3.8077,3.8196,3.8621,3.9044,3.9559,4.0096,4.0236,4.0359,4.0473,4.0504,4.0521,3.4361,3.4269,3.406,3.3553,3.4228,3.4969,3.4883,0.0,0.0,3.5504,3.5587,3.5863,3.6461,3.6784,3.7181,3.7849,3.8646,0.0,4.2257,4.2512,4.2946,4.4276,4.3149,0.0,4.2134,4.0908,4.0096,4.0096,4.0096,4.0096,4.0096,4.0096,4.0096,4.0096,4.0096,4.0096,4.0096,4.0096,4.0096,4.0096,4.0096,4.0096,4.0096,4.0096,4.0096,4.0096,0.0,0.0,4.0096,4.0096,4.0096,4.0096,4.0179,4.0229,4.0229,4.0229,4.0229,4.0204,4.0121,4.0096,4.0096,4.0096,4.0096,4.0096,4.0096,4.0096,4.0096,4.0096,4.0096,3.996,3.9326,3.9037,3.8699,3.7867,3.7642,3.7557,3.7358,3.7685,3.8013,3.8013,3.7963,3.7755,3.7267,3.6764,3.6224,3.5672,3.56,3.5633,3.5752,3.5769,3.5819,3.5938,3.5955,3.5955,3.5955,3.6569,3.7032,3.7134,3.7403,3.7887,3.8629,3.8735,3.8906,3.9165,4.0244,4.0552,4.0096,4.0631,4.0856,4.078,4.0392,4.0417,3.5963,3.6456,3.6172,3.3423,3.3882,3.4854,3.4286,3.4831,3.5504,0.0,3.6006,3.6477,3.6584,3.7676,3.8581,3.8699,3.9914,4.1621,0.0,0.0,4.3335,4.3572,0.0,4.2049,4.1441,4.062,4.0096,4.0096,4.0096,4.0096,4.0096,4.0096,4.0096,4.0096,4.0096,4.0096,4.0096,4.0096,4.0096,4.0096,4.0096,4.0096,4.0096,4.0096,4.0096,4.0096,0.0,4.0096,4.0096,4.0096,4.0096,4.0146,4.0601,4.078,4.078,4.078,4.078,4.0709,4.0254,4.0096,4.0096,4.0096,4.0096,4.0096,4.0096,4.0096,4.0096,4.0096,4.0096,4.0079,3.996,4.0112,3.9979,3.8738,3.8966,3.917,3.8039,3.8218,3.8596,3.8596,3.82,3.7755,3.7267,3.6764,3.6224,3.5672,3.56,3.5859,3.6541,3.6626,3.684,3.7483,3.7567,3.7567,3.7567,3.7669,3.8007,3.8616,3.8129,3.8184,3.8914,3.9312,3.9673,3.9926,4.0128,4.0179,4.0096,4.0631,4.0655,4.0229,4.0601,4.0577,3.5878,3.6432,3.6664,3.5618,3.6104,3.6772,3.6443,3.6189,3.6028,0.0,0.0,3.6722,3.7174,3.8512,3.9817,4.0623,4.1322,4.2305,4.3736,4.3301,4.2963,0.0,0.0,4.1576,4.1238,4.0527,4.0096,4.0096,4.0096,4.0096,4.0096,4.0096,4.0096,4.0096,4.0096,4.0096,4.0096,4.0096,4.0096,4.0096,4.0096,4.0096,4.0096,4.0096,4.0096,4.0096,0.0,4.0096,4.0096,4.0096,4.0262,4.0552,4.0803,4.111,4.1358,4.1018,4.0726,4.0424,4.0196,4.0096,4.0096,4.0096,4.0096,4.0096,4.0096,4.0311,4.0528,4.0528,4.0528,4.0528,4.0528,4.046,4.0342,4.0159,3.9662,3.9211,3.9019,3.8823,3.8707,3.8707,3.8267,3.7755,3.7267,3.7093,3.6827,3.6322,3.6603,3.6992,3.7347,3.7381,3.7516,3.7872,3.7905,3.7905,3.7905,3.8519,3.8965,3.8996,3.9056,3.9225,3.9588,3.98,3.9978,4.0096,4.0392,4.0392,4.0096,4.0631,4.078,4.0528,4.0497,4.0497,3.5684,3.6252,3.6958,3.7728,3.8078,3.8307,3.8682,3.7897,3.7121,3.7273,3.7499,3.7809,3.8251,3.9586,4.1038,4.2341,4.2709,4.2963,4.3341,4.2912,4.2642,4.2851,4.1897,4.1136,4.0967,4.0434,4.0096,4.0096,4.0096,4.0096,4.0096,4.0096,4.0096,4.0096,4.0096,4.0096,4.0096,4.0096,4.0096,4.0096,4.0096,4.0096,4.0096,4.0096,4.0096,4.0096,4.0096,4.0154,4.0286,4.0286,4.0601,4.1133,4.1268,4.1599,4.1958,4.149,4.0874,4.0286,4.0286,4.0204,4.0096,4.0096,4.0096,4.0121,4.0237,4.0497,4.0756,4.1041,4.111,4.111,4.111,4.0952,4.0852,4.1087,4.0176,3.9331,3.957,3.9033,3.8512,3.8512,3.8245,3.7846,3.736,3.7554,3.7624,3.7119,3.7533,3.7973,3.8142,3.8159,3.8227,3.8396,3.8413,3.8413,3.8413,3.9433,3.9835,3.9291,3.9923,4.0229,4.0113,4.0096,4.0096,4.0096,4.0504,4.0521,4.0096,4.0504,4.0709,4.0685,4.0286,4.0336,3.6252,3.6964,3.7698,3.8347,3.8099,3.8059,3.9529,3.9267,3.8932,3.9631,4.0342,0.0,4.005,4.1153,4.2402,4.3189,4.3944,4.4181,4.3494,0.0,4.2817,4.1525,4.1271,4.0933,4.0248,4.013,4.0096,4.0096,4.0096,4.0096,4.0096,4.0096,4.0096,4.0096,4.0096,4.0096,4.0096,4.0096,4.0096,4.0096,4.0096,4.0096,4.0096,4.0096,4.0096,4.0096,4.0096,4.0392,4.0833,4.0833,4.1201,4.1789,4.2342,4.2596,4.2635,4.2596,4.1832,4.0833,4.0833,4.0521,4.0096,4.0096,4.0096,4.0179,4.0703,4.0504,4.0385,4.1442,4.1746,4.1746,4.1746,4.2132,4.2133,4.0653,4.0612,4.0526,3.9111,3.8354,3.7963,3.7963,3.8186,3.8192,3.7565,3.8105,3.8444,3.7899,3.7872,3.8159,3.8819,3.892,3.9174,3.9876,3.9943,3.9943,3.9943,4.048,4.0593,4.0036,4.0542,4.0607,4.0121,4.0096,4.0096,4.0096,4.0146,4.0146,4.0096,4.0146,4.0171,4.0171,4.0121,4.0121,3.5804,3.674,3.795,3.9187,3.9647,3.9978,4.0459,4.0732,4.0986,4.1243,4.161,0.0,0.0,4.1923,4.254,4.3274,4.4079,4.4316,4.3494,4.3014,4.2337,4.1322,4.0798,4.0417,4.013,4.0096,4.0096,4.0096,4.0096,4.0096,4.0096,4.0096,4.0096,4.0096,4.0096,4.0096,4.0096,4.0096,4.0096,4.0096,4.0096,4.0096,4.0121,4.0449,4.0601,4.0625,4.1007,4.1286,4.1468,4.1468,4.1832,4.242,4.2995,4.2771,4.2183,4.2577,4.1743,4.0449,4.078,4.0552,4.0096,4.0096,4.0096,4.0094,4.0151,4.0608,4.1203,4.1497,4.2185,4.2772,4.2442,4.2408,4.2285,4.1665,4.0924,4.0322,4.023,3.9644,3.9292,3.9785,3.9444,3.9027,3.8787,3.8809,3.8819,3.8614,3.8971,3.9385,3.9656,3.969,3.9791,4.0079,4.0096,4.0229,4.0577,4.1133,4.1358,4.1173,4.1013,4.0655,4.0121,4.0096,4.0096,4.0096,4.0096,4.0096,4.0096,4.0096,4.0096,4.0096,4.0096,4.0096,3.5831,3.694,3.8338,3.9395,4.0611,4.152,4.1373,4.1936,4.2598,4.2827,4.2739,4.2579,4.2341,0.0,0.0,4.3014,4.3707,4.3944,4.3166,4.2422,4.1677,4.0933,4.0417,4.0096,4.0096,4.0096,4.0096,4.0096,4.0096,4.0096,4.0096,4.0096,4.0096,4.0096,4.0096,4.0096,4.0096,4.0096,4.0096,4.0096,4.0262,4.0343,4.0368,4.0733,4.0995,4.1201,4.1424,4.1729,4.208,4.1874,4.2264,4.2976,4.3178,4.2771,4.2121,4.2342,4.153,4.0417,4.078,4.0552,4.0096,4.0096,4.0096,4.0127,4.0314,4.0893,4.1584,4.1953,4.2632,4.3141,4.2686,4.2448,4.2249,4.1992,4.0891,3.9974,4.0286,3.9987,3.9798,4.0364,4.0146,3.9805,3.9637,3.9605,3.9538,3.9376,3.9791,4.0096,4.0096,4.0096,4.0096,4.0096,4.0096,4.0254,4.0625,4.1358,4.1707,4.1534,4.149,4.1127,4.0368,4.0179,4.0096,4.0096,4.0096,4.0096,4.0096,4.0096,4.0096,4.0096,4.0096,4.0096,3.6615,3.7729,3.8924,3.8924,4.0652,4.2303,4.2303,4.2895,4.3656,4.4462,4.3978,4.32,4.2439,4.2912,0.0,4.2422,4.2929,4.3149,4.2388,4.166,4.0933,4.0197,4.0096,4.0096,4.0096,4.0096,4.0096,4.0096,4.0096,4.0096,4.0096,4.0096,4.0096,4.0096,4.0096,4.0096,4.0096,4.0096,4.0096,4.0121,4.0655,4.0903,4.0903,4.0903,4.1228,4.1789,4.1161,4.1599,4.2655,4.2062,4.2483,4.3444,4.292,4.2711,4.2616,4.2021,4.1424,4.088,4.0903,4.0552,4.0096,4.0096,4.0096,4.0311,4.1446,4.1362,4.1256,4.2996,4.3105,4.2645,4.2369,4.2286,4.2084,4.1279,4.0487,3.968,3.8891,3.892,3.9102,3.912,3.9973,4.05,3.9907,4.0418,4.0709,4.0179,4.0096,4.0096,4.0096,4.0096,4.0096,4.0096,4.0096,4.0096,4.0096,4.1127,4.1534,4.0949,4.2038,4.2162,4.0949,4.0392,4.0113,4.0096,4.0096,4.0096,4.0096,4.0096,4.0096,4.0096,4.0096,4.0096,3.7308,3.8962,4.0529,4.0529,4.2234,4.3921,4.3921,4.4485,4.5094,0.0,4.4756,4.3995,4.3234,4.324,0.0,4.2422,4.2929,4.2953,4.1694,4.1339,4.0933,4.0197,4.0096,4.0096,4.0096,4.0096,4.0096,4.0096,4.0096,4.0096,4.0096,4.0096,4.0096,4.0096,4.0096,4.0096,4.0096,4.0096,4.0286,4.0655,4.081,4.0903,4.0926,4.1789,4.2244,4.2442,4.2639,4.294,4.325,4.3069,4.3178,4.3444,4.292,4.244,4.2059,4.1874,4.1173,4.0392,4.078,4.0552,4.0096,4.0096,3.9757,3.9538,4.0613,4.0853,4.1023,4.2303,4.2532,4.2408,4.2326,4.146,4.0543,4.0304,4.0065,3.9827,3.9588,3.9319,3.9427,4.051,4.0367,4.0175,4.051,4.0446,4.0286,4.0121,4.0096,4.0096,4.0096,4.0096,4.0096,4.0096,4.0096,4.0096,4.0096,4.1127,4.1707,4.1534,4.2282,4.2162,4.0949,4.0733,4.0497,4.0096,4.0096,4.0096,4.0096,4.0096,4.0096,4.0096,4.0096,4.0096,3.8019,3.9473,4.0827,4.1127,4.2444,4.3853,4.4462,4.4925,4.5263,4.5263,4.4891,4.4333,4.3555,4.3392,0.0,4.2422,4.2439,4.2236,4.1339,4.095,4.0595,4.0146,4.0096,4.0096,4.0096,4.0096,4.0096,4.0096,4.0096,4.0096,4.0096,4.0096,4.0096,4.0096,4.0096,4.0204,4.0417,4.0417,4.0703,4.1268,4.1512,4.1621,4.1643,4.2362,4.2826,4.3032,4.3375,4.3375,4.316,4.3061,4.3221,4.3408,4.2521,4.2018,4.1771,4.1534,4.0868,4.0146,4.0473,4.018,3.9673,3.9673,3.9157,3.8724,3.9587,4.0017,4.0475,4.1651,4.1974,4.1918,4.1851,4.0926,4.0002,3.9923,3.9662,3.9357,3.9142,3.9329,3.977,4.05,4.0412,4.0383,4.0816,4.0449,4.0096,4.0096,4.0096,4.0096,4.0096,4.0096,4.0096,4.0096,4.0096,4.0096,4.0096,4.0938,4.1534,4.1771,4.2362,4.2362,4.1643,4.138,4.099,4.0441,4.0417,4.0311,4.0096,4.0096,4.0096,4.0096,4.0096,4.0096,3.8756,3.9592,4.0383,4.1119,4.1847,4.2777,4.4276,4.4496,4.4429,4.4581,0.0,4.4333,4.3555,4.3392,4.3149,4.232,4.1644,4.1187,4.1119,4.051,4.0096,4.0096,4.0096,4.0096,4.0096,4.0096,4.0096,4.0096,4.0096,4.0096,4.0096,4.0096,4.0096,4.0096,4.0146,4.0417,4.0903,4.0949,4.1273,4.1895,4.244,4.2731,4.2769,4.2769,4.2996,4.3404,4.3404,4.3068,4.2536,4.2298,4.2616,4.3169,4.1887,4.1534,4.1619,4.1115,4.0552,4.0096,4.0028,3.9571,3.8988,3.892,3.8396,3.7929,3.8585,3.907,3.9684,4.1031,4.1286,4.1125,4.0896,4.0381,3.9896,3.9708,3.9174,3.8546,3.7963,3.8995,3.9908,3.9494,4.0123,4.074,4.081,4.0424,4.0096,4.0096,4.0096,4.0096,4.0096,4.0096,4.0096,4.0096,4.0096,4.0096,4.0096,4.0601,4.1133,4.1686,4.2342,4.2711,4.2711,4.2162,4.1578,4.0903,4.0903,4.0631,4.0096,4.0096,4.0096,4.0096,4.0096,4.0096,3.9339,4.0391,4.1136,4.188,4.2625,4.342,4.4395,4.3667,4.3159,4.4361,4.4615,4.4333,4.3555,4.3392,4.2953,4.166,4.1305,4.1001,4.0434,4.0197,4.0096,4.0096,4.0096,4.0096,4.0096,4.0096,4.0096,4.0096,4.0096,4.0096,4.0096,4.0096,4.0096,4.0096,4.0521,4.078,4.0903,4.138,4.1916,4.25,4.2635,4.292,4.3339,4.3339,4.3044,4.2561,4.2561,4.2127,4.1438,4.1374,4.1462,4.1612,4.147,4.1175,4.0853,4.0884,4.0552,4.0028,3.9453,3.9123,3.8903,3.8328,3.7635,3.7325,3.8863,3.9007,3.8903,4.0202,4.0095,3.95,3.91,3.8413,3.7841,3.7791,3.8262,3.8449,3.756,3.8069,3.8726,3.8771,3.9129,3.9581,4.016,4.0196,4.0096,4.0096,4.0096,4.0096,4.0096,4.0096,4.0096,4.0096,4.0096,4.0096,4.0096,4.0601,4.0949,4.1087,4.2101,4.2711,4.2711,4.2577,4.2,4.0926,4.0903,4.0631,4.0096,4.0096,4.0096,4.0096,4.0096,4.0096,3.8553,3.9884,4.0849,4.1593,4.2337,4.298,4.3386,4.2861,4.2523,4.3345,4.3515,4.3352,4.2946,4.2591,4.2117,4.1322,4.0899,4.0527,4.0146,4.0096,4.0096,4.0096,4.0096,4.0096,4.0096,4.0096,4.0096,4.0096,4.0096,4.0096,4.0096,4.0096,4.0229,4.0473,4.0756,4.1178,4.1768,4.167,4.2088,4.3069,4.2687,4.2648,4.2928,4.2928,4.2488,4.1735,4.1735,4.148,4.1058,4.0689,4.0983,4.1647,4.1373,4.1395,4.1609,4.1714,4.117,4.028,3.9899,3.9271,3.8597,3.8217,3.7582,3.7175,3.8113,3.8302,3.8384,3.9428,3.9247,3.8723,3.8723,3.8042,3.7241,3.6911,3.7414,3.7863,3.7437,3.7921,3.8502,3.8763,3.919,3.9656,4.0028,4.0096,4.0096,4.0096,4.0096,4.0179,4.0449,4.0473,4.0577,4.0868,4.0648,4.0473,4.0473,4.0504,4.075,4.1291,4.1916,4.2501,4.305,4.3069,4.2523,4.1358,4.1621,4.1335,4.0473,4.0473,4.0473,4.0473,4.0229,4.0096,3.7107,3.8829,4.0273,4.1018,4.166,4.2161,4.2411,4.2251,4.2124,4.2372,4.2431,4.2394,4.2144,4.1758,4.1376,4.1044,4.0578,4.0254,4.0254,4.0171,4.0146,4.0229,4.0171,4.0096,4.0096,4.0096,4.0096,4.0096,4.0096,4.0096,4.0096,4.0096,4.036,4.088,4.0995,4.1507,4.2476,4.1866,4.2068,4.3075,4.2415,4.2029,4.1882,4.1882,4.1515,4.0875,4.0875,4.0802,4.0618,3.9974,4.0561,4.1827,4.1313,4.1665,4.2495,4.2639,4.1819,4.058,4.0439,3.9466,3.8282,3.816,3.7702,3.7228,3.7285,3.7596,3.8038,3.8705,3.8507,3.8204,3.8545,3.8003,3.7232,3.6611,3.698,3.7468,3.7505,3.8092,3.8715,3.9068,3.9662,4.0096,4.0096,4.0096,4.0096,4.0096,4.0096,4.0262,4.0685,4.0756,4.0967,4.1464,4.1059,4.0756,4.0756,4.0424,4.0594,4.1464,4.1789,4.2327,4.316,4.341,4.2996,4.1979,4.246,4.2162,4.1064,4.0949,4.0903,4.088,4.0343,4.0096,3.5356,3.7978,4.0265,4.1035,4.1271,4.1664,4.2806,4.2058,4.1429,0.0,4.2956,4.2704,4.1562,4.2078,4.2126,4.0509,4.0549,4.0803,4.0803,4.0392,4.0262,4.0733,4.0392,4.0096,4.0096,4.0096,4.0096,4.0096,4.0096,4.0096,4.0096,4.0096,4.036,4.088,4.1402,4.1662,4.1574,4.1993,4.1925,4.1407,4.1297,4.091,4.0212,4.0212,4.0157,4.0065,4.0065,3.9662,3.9019,3.8909,3.9405,4.0286,4.0873,4.1283,4.1664,4.2423,4.1819,4.0509,3.9861,3.9065,3.8196,3.7562,3.728,3.7284,3.7685,3.7842,3.7929,3.802,3.7721,3.7256,3.6864,3.6836,3.6876,3.6775,3.7639,3.8334,3.771,3.8114,3.8809,3.9542,3.9904,4.0096,4.0096,4.0096,4.0096,4.0096,4.0096,4.0121,4.0204,4.0204,4.0229,4.0328,4.0237,4.0204,4.0204,4.0577,4.0655,4.0336,4.1743,4.2402,4.2041,4.2977,4.3214,4.2596,4.2655,4.2362,4.1686,4.1155,4.0903,4.088,4.0343,4.0096,3.4714,3.72,3.908,3.9754,4.0244,4.0807,4.1705,4.1382,4.1151,4.2088,4.2611,4.2639,4.1719,4.1951,4.1899,4.0748,4.1036,4.1178,4.0546,4.0521,4.0504,4.0449,4.0254,4.0096,4.0096,4.0096,4.0096,4.0096,4.0096,4.0096,4.0096,4.0096,4.0514,4.138,4.1237,4.1384,4.1903,4.1269,4.0781,4.0432,4.0432,4.023,3.9879,3.9423,3.9239,3.9239,3.9239,3.9038,3.8707,3.8707,3.9166,3.9974,4.0799,4.1437,4.2012,4.2832,4.2178,4.0836,4.051,3.9373,3.8025,3.7685,3.7415,3.7285,3.7755,3.7893,3.7963,3.8267,3.8079,3.7768,3.7532,3.7447,3.7415,3.7415,3.7853,3.8357,3.8745,3.9049,3.9404,3.9887,4.0058,4.0096,4.0096,4.0096,4.0096,4.0096,4.0096,4.0204,4.0521,4.0552,4.0672,4.1007,4.0767,4.0552,4.0552,4.0497,4.0473,4.0528,4.1578,4.2223,4.2302,4.3069,4.3392,4.3142,4.316,4.2696,4.181,4.1534,4.1246,4.088,4.0343,4.0096,3.3757,3.5641,3.6957,3.8311,3.9118,3.985,4.0891,4.1133,4.1358,0.0,4.258,4.277,4.2324,4.2226,4.1982,4.1251,4.1643,4.1682,4.0666,4.075,4.0756,4.0343,4.0179,4.0096,4.0096,4.0096,4.0096,4.0096,4.0096,4.0096,4.0096,4.0229,4.0767,4.1768,4.1153,4.1188,4.1994,4.0396,3.9588,3.9588,3.9588,3.9588,3.957,3.8964,3.8707,3.8707,3.8707,3.8707,3.8707,3.8707,3.9294,4.0267,4.0873,4.1735,4.2671,4.3277,4.2488,4.1095,4.1095,3.9781,3.8099,3.8099,3.7878,3.7649,3.7998,3.8099,3.8203,3.8654,3.8546,3.8316,3.837,3.8272,3.8176,3.8176,3.8431,3.8832,3.9445,3.9836,4.0077,4.0102,4.0096,4.0096,4.0096,4.0096,4.0096,4.0096,4.0096,4.0237,4.0655,4.0703,4.0874,4.1331,4.0967,4.0703,4.0703,4.0449,4.0417,4.0679,4.138,4.1937,4.2223,4.2921,4.3286,4.3286,4.3427,4.3087,4.2226,4.194,4.1578,4.111,4.0417,4.0096,3.1723,3.2711,3.3704,3.7193,3.8074,3.8757,4.1205,4.175,4.2083,4.3196,4.3444,4.3444,4.3427,4.341,4.3051,4.1919,4.2262,4.244,4.181,4.1246,4.088,4.0856,4.0417,4.0096,4.0096,4.0096,4.0096,4.0096,4.0096,4.0096,4.0096,4.0577,4.1155,4.1789,4.1518,4.1289,4.1168,3.957,3.8762,3.8762,3.8762,3.8762,3.8762,3.8726,3.8707,3.8707,3.8707,3.8707,3.8707,3.8707,3.9609,4.104,4.1077,4.2066,4.3441,4.3478,4.2488,4.1095,4.1095,4.0031,3.8658,3.8658,3.8643,3.8627,3.8643,3.8658,3.8693,3.8918,3.865,3.834,3.8521,3.8768,3.8937,3.8937,3.9881,4.0416,3.9302,3.998,4.0698,4.0204,4.0096,4.0096,4.0096,4.0096,4.0096,4.0096,4.0096,4.0096,4.0146,4.0146,4.0146,4.0196,4.0171,4.0146,4.0146,4.0577,4.0655,4.0154,4.119,4.1556,4.1018,4.2121,4.275,4.275,4.3232,4.3462,4.341,4.2327,4.1771,4.1746,4.0618,4.0096,2.8688,3.0704,3.2798,3.4192,3.6276,3.8335,3.9585,4.0853,4.2021,4.2827,4.325,4.3515,4.3515,4.3515,4.325,4.25,4.2846,4.2865,4.1937,4.1937,4.1771,4.0995,4.0733,4.0473,4.0146,4.0096,4.0096,4.0096,4.0096,4.0096,4.0096,4.0625,4.0929,4.1022,4.0784,4.0291,3.9572,3.9001,3.8707,3.8707,3.8707,3.8707,3.8707,3.8707,3.8707,3.8707,3.8707,3.8707,3.8707,3.8707,3.9038,3.9625,4.0139,4.1001,4.1974,4.1974,4.1589,4.1022,4.0506,3.9394,3.8183,3.8183,3.7981,3.7881,3.8715,3.8963,3.9074,3.9608,3.9755,3.9714,3.9398,3.9491,3.9723,3.9723,4.005,4.0251,3.9807,4.0316,4.0733,4.0204,4.0096,4.0096,4.0096,4.0096,4.0096,4.0096,4.0096,4.0096,4.0096,4.0096,4.0096,4.0096,4.0096,4.0096,4.0096,4.0286,4.0311,4.0121,4.0797,4.1133,4.0903,4.1686,4.2121,4.2121,4.2694,4.2976,4.2976,4.2203,4.1599,4.1183,4.0441,4.0096,2.6651,2.8497,3.057,0.0,3.3988,3.635,3.8229,3.977,4.1165,4.2446,4.2976,4.3304,4.348,4.3515,4.3392,4.3032,4.3268,4.3178,4.2244,4.246,4.2322,4.1335,4.1018,4.0756,4.0417,4.0204,4.0096,4.0096,4.0262,0.0,4.0368,4.0821,4.0845,4.0389,4.0203,3.9647,3.8726,3.8707,3.8707,3.8707,3.8707,3.8707,3.8707,3.8707,3.8707,3.8707,3.8707,3.8707,3.8707,3.8707,3.8854,3.9166,3.968,4.0396,4.1132,4.1389,4.115,4.0671,4.0396,3.954,3.8528,3.8274,3.8325,3.8618,3.9187,3.9562,3.9839,4.0234,4.0455,4.0482,3.998,3.9961,4.0096,4.0096,4.0096,4.0096,4.0096,4.0368,4.0546,4.0154,4.0096,4.0096,4.0096,4.0096,4.0096,4.0096,4.0096,4.0171,4.036,4.0204,4.0154,4.0343,4.0204,4.0096,4.0096,4.0279,4.0286,4.0121,4.0601,4.0827,4.0631,4.1178,4.1512,4.1512,4.2101,4.2382,4.24,4.2018,4.149,4.088,4.0343,4.0096,0.0,0.0,0.0,0.0,0.0,0.0,3.7188,0.0,3.9416,4.2031,4.2599,4.2772,4.3339,4.3462,4.348,4.348,4.3479,4.3322,4.2807,4.2713,4.25,4.1895,4.1313,4.0949,4.0903,4.0466,4.0146,4.0121,4.0607,4.0926,4.0926,4.1202,4.0926,3.9974,3.9882,3.9478,3.8707,3.8707,3.8707,3.8707,3.8707,3.8707,3.8707,3.8707,3.8707,3.8707,3.8707,3.8707,3.8707,3.8707,3.9166,3.9845,3.9845,4.0359,4.115,4.1937,4.124,4.001,4.0836,4.0561,3.9735,3.9019,3.9811,4.093,4.0194,4.0524,4.1076,4.0726,4.0633,4.0555,4.0197,4.0096,4.0096,4.0096,4.0096,4.0096,4.0096,4.0096,4.0096,4.0096,4.0096,4.0113,4.0121,4.0121,4.0121,4.0146,4.0146,4.0336,4.0874,4.0473,4.036,4.0856,4.0424,4.0121,4.0121,4.0601,4.0679,4.0146,4.0607,4.0679,4.0146,4.0607,4.0903,4.0903,4.1468,4.1768,4.1746,4.1768,4.1468,4.088,4.0343,4.0096,2.5084,0.0,0.0,0.0,0.0,0.0,0.0,0.0,3.6547,3.9307,4.0246,4.0891,4.206,4.2619,4.292,4.292,4.325,4.3444,4.3286,4.3268,4.3069,4.2519,4.2302,4.1874,4.0995,4.1155,4.115,0.0,4.1223,4.1556,4.1556,4.0901,4.06,4.0765,3.9643,3.8927,3.8707,3.8707,3.8707,3.8707,3.8707,3.8707,3.8707,3.8707,3.8707,3.8707,3.8707,3.8707,3.8707,3.8707,3.8836,3.9038,3.9038,3.9515,4.0267,4.0469,4.0267,4.001,4.0836,4.0194,3.9184,4.0139,4.0341,4.0414,4.135,4.1791,4.1898,4.1569,4.1471,4.1266,4.0334,4.0096,4.0096,4.0096,4.0096,4.0096,4.0096,4.0096,4.0096,4.0096,4.0096,4.0229,4.0625,4.0679,4.0844,4.1263,4.1331,4.1375,4.1534,4.1402,4.1397,4.1534,4.1036,4.0679,4.0679,4.081,4.0679,4.0146,4.1007,4.1291,4.0703,4.0827,4.0903,4.0903,4.1064,4.0967,4.057,4.0967,4.1064,4.088,4.0343,4.0096,2.485,0.0,0.0,0.0,0.0,0.0,3.0742,3.2038,3.3761,0.0,3.8086,3.8836,4.0527,4.138,4.1816,4.1816,4.2584,4.3232,4.3462,4.3515,4.3392,4.3069,4.2845,4.2422,4.1707,4.1729,4.1643,4.1313,4.1814,4.1978,4.1529,4.0908,4.0427,4.0104,3.9203,3.8707,3.8707,3.8707,3.8707,3.8707,3.8707,3.8707,3.8707,3.8707,3.8707,3.8707,3.8707,3.8707,3.8707,3.8707,3.8707,3.8707,3.8707,3.9001,3.9441,3.9772,3.968,3.9551,4.0691,4.049,3.9863,4.0802,4.124,4.1497,4.2121,4.2525,4.27,4.2279,4.1793,4.1223,4.0336,4.0096,4.0096,4.0096,4.0262,4.0424,4.0424,4.0424,4.0368,4.0146,4.0096,4.0262,4.0803,4.0903,4.111,4.1707,4.181,4.181,4.181,4.1578,4.1424,4.1424,4.111,4.0903,4.0903,4.1358,4.1308,4.0531,4.1547,4.1789,4.0926,4.1155,4.1155,4.0903,4.0903,4.0631,4.0096,4.0631,4.078,4.0552,4.0254,4.0265,2.5109,2.5297,0.0,0.0,2.6174,0.0,2.9621,3.0094,3.1043,0.0,3.5887,3.6578,3.8588,3.9671,4.0233,4.0187,4.1464,4.2696,4.3321,4.3462,4.3515,4.3515,4.3069,4.2769,4.2711,4.2264,4.1958,4.1895,4.2442,4.2359,4.1409,4.1187,4.0435,3.9019,3.8799,3.8707,3.8707,3.8707,3.8707,3.8707,3.8707,3.8707,3.8707,3.8707,3.8707,3.8707,3.8707,3.8707,3.8707,3.8707,3.8707,3.8707,3.8707,3.8707,3.8799,3.9588,3.9386,3.8946,4.0636,4.1113,4.1003,4.1279,4.2268,4.324,4.2616,4.2928,4.3356,4.277,4.1789,4.078,4.0254,4.0146,4.0179,4.0179,4.0601,4.0995,4.0995,4.0949,4.0756,4.0286,4.0146,4.0262,4.0803,4.0949,4.1183,4.181,4.1958,4.1979,4.1916,4.1424,4.111,4.111,4.0972,4.0926,4.0995,4.1979,4.2139,4.1065,4.2118,4.2284,4.1155,4.1556,4.1578,4.111,4.0972,4.0631,4.0096,4.0577,4.0577,4.0096,4.018,4.0561,2.6072,2.5908,2.5624,2.5737,0.0,0.0,2.7258,2.7591,2.8439,0.0,3.2675,3.3631,3.5205,3.6996,3.8104,3.7569,3.9444,4.1431,4.2676,4.3232,4.3515,4.3515,4.341,4.3178,4.275,4.2977,4.2995,4.2559,4.3032,4.3246,4.3039,4.1809,4.0948,4.0636,3.9386,3.8707,3.8707,3.8707,3.8707,3.8707,3.8707,3.8707,3.8707,3.8707,3.8707,3.8707,3.8707,3.8707,3.8707,3.8707,3.8707,3.8707,3.8707,3.8707,3.8799,3.9588,3.9386,3.9019,4.1277,4.1222,4.0451,4.2396,4.28,4.2635,4.3112,4.3386,4.3286,4.2246,4.1468,4.078,4.0254,4.0417,4.0733,4.0733,4.1201,4.1621,4.1621,4.1228,4.0856,4.0756,4.0392,4.0262,4.0803,4.1296,4.1832,4.2422,4.2902,4.3014,4.2578,4.242,4.2342,4.2342,4.149,4.111,4.1578,4.1853,4.1664,4.0967,4.2446,4.3032,4.2382,4.2018,4.1979,4.2342,4.1402,4.0631,4.0096,4.0204,4.0204,4.0113,4.0696,4.1068,2.6973,2.6566,2.616,2.6557,0.0,0.0,0.0,2.6484,2.6942,2.9412,3.0052,3.0604,3.2044,3.3523,3.4642,3.5055,3.7036,3.8913,4.0043,4.1886,4.3105,4.3105,4.3339,4.3392,4.3142,4.3339,4.3392,4.3124,4.3357,4.3331,4.291,4.1772,4.0912,4.0506,3.9331,3.8707,3.8707,3.8707,3.8707,3.8707,3.8707,3.8707,3.8707,3.8707,3.8707,3.8707,3.8707,3.8707,3.8707,3.8707,3.8707,3.8707,3.8707,3.8707,3.8762,3.9148,3.9294,3.9533,4.1148,4.1442,4.135,4.2982,4.3222,4.2965,4.3386,4.3515,4.3321,4.2482,4.2021,4.1682,4.1099,4.115,4.1358,4.1358,4.181,4.2262,4.2262,4.2,4.181,4.181,4.1082,4.0577,4.0856,4.1402,4.2,4.2616,4.316,4.3196,4.2362,4.2519,4.248,4.1874,4.181,4.181,4.181,4.208,4.1979,4.138,4.2167,4.2523,4.2244,4.1958,4.181,4.181,4.1223,4.0631,4.0096,4.0485,4.0646,4.0646,4.1035,4.1593,0.0,0.0,0.0,0.0,0.0,2.5921,0.0,0.0,0.0,2.7947,2.8053,0.0,0.0,0.0,0.0,0.0,0.0,0.0,0.0,3.9497,0.0,4.2076,4.2849,4.3357,4.3357,4.3299,4.3331,4.3496,4.3368,4.3039,4.2561,4.1625,4.0802,4.0139,3.9203,3.8707,3.8707,3.8707,3.8707,3.8707,3.8707,3.8707,3.8707,3.8707,3.8707,3.8707,3.8707,3.8707,3.8707,3.8707,3.8707,3.8707,3.8707,3.8707,3.8726,3.8872,3.9331,4.0029,4.1001,4.1772,4.2433,4.3239,4.3515,4.3515,4.3515,4.3515,4.3392,4.2845,4.2711,4.2519,4.1793,4.1707,4.181,4.181,4.2262,4.2731,4.2826,4.2769,4.2711,4.2711,4.1832,4.1041,4.0926,4.1402,4.1958,4.246,4.3087,4.3087,4.1958,4.2322,4.2282,4.1201,4.1937,4.238,4.2,4.2322,4.2322,4.1832,4.181,4.181,4.181,4.181,4.1468,4.0756,4.0949,4.0819,4.0316,4.1027,4.1316,4.1221,4.1491,4.2243,0.0,0.0,0.0,0.0,2.7043,0.0,0.0,0.0,2.6458,2.6687,0.0,0.0,0.0,0.0,0.0,0.0,0.0,0.0,3.3009,3.5544,3.8045,3.9844,4.1683,4.2788,4.2788,4.2575,4.2727,4.346,4.2837,4.2708,4.3331,4.1919,4.1058,4.0967,3.9496,3.8707,3.8707,3.8707,3.8707,3.8707,3.8707,3.8707,3.8707,3.8707,3.8707,3.8707,3.8707,3.8707,3.8707,3.8707,3.8707,3.8707,3.8707,3.8707,3.8799,3.9496,3.9808,4.012,4.1644,4.2213,4.2433,4.3239,4.3515,4.3515,4.3515,4.3515,4.3392,4.2845,4.2711,4.244,4.1313,4.1402,4.181,4.181,4.2262,4.2826,4.3322,4.3032,4.2711,4.2711,4.2162,4.1534,4.0995,4.1402,4.1814,4.1895,4.281,4.3087,4.1958,4.2322,4.244,4.1771,4.1832,4.2101,4.2577,4.2162,4.1874,4.1793,4.181,4.181,4.181,4.181,4.1286,4.0204,4.1173,4.1499,4.1085,4.1702,4.1711,4.1238,4.2557,4.324,0.0,0.0,0.0,0.0,0.0,0.0,2.6624,0.0,2.6499,0.0,0.0,0.0,0.0,0.0,0.0,0.0,2.9476,0.0,0.0,0.0,3.5277,0.0,0.0,0.0,4.188,4.2193,4.2635,4.3441,4.2745,4.2653,4.346,4.1974,4.1095,4.1095,3.9992,3.9405,3.9405,3.9863,4.0086,4.0086,3.9625,3.9405,3.9386,3.8909,3.8707,3.8707,3.8707,3.8707,3.8707,3.8707,3.8707,3.8762,3.9203,3.9405,3.9441,3.9772,4.0487,4.1387,4.2066,4.2598,4.3039,4.3404,4.3515,4.3515,4.3515,4.3515,4.3444,4.3232,4.316,4.2977,4.2162,4.2142,4.2223,4.1895,4.1979,4.2244,4.2446,4.2617,4.2711,4.2711,4.25,4.2223,4.1979,4.2162,4.2203,4.1853,4.2772,4.3214,4.2422,4.2827,4.294,4.2382,4.2599,4.2771,4.2693,4.248,4.2322,4.2322,4.2322,4.1871,4.0861,4.1464,4.1402,4.0577,4.1505,4.1881,4.1711,4.2475,4.272,4.2506,4.3105,4.3656,2.925,0.0,0.0,0.0,0.0,0.0,0.0,0.0,0.0,0.0,0.0,0.0,0.0,0.0,0.0,0.0,0.0,0.0,0.0,0.0,0.0,0.0,0.0,0.0,0.0,4.156,4.203,4.3195,4.2134,4.2021,4.3424,4.1974,4.1187,4.1407,4.0653,4.023,4.023,4.0802,4.1095,4.1095,4.0286,3.99,3.9863,3.9074,3.8707,3.8707,3.8707,3.8707,3.8707,3.8707,3.8836,3.9093,3.9662,4.0157,4.0561,4.0561,4.1295,4.2323,4.2543,4.3002,4.3515,4.3515,4.3515,4.3515,4.3515,4.3515,4.3515,4.3515,4.3515,4.3339,4.2637,4.2577,4.2539,4.1937,4.1916,4.2101,4.2226,4.2599,4.292,4.292,4.292,4.2883,4.2731,4.2711,4.2539,4.2121,4.2884,4.3322,4.2769,4.3178,4.3286,4.2769,4.3178,4.3339,4.2958,4.2788,4.2635,4.246,4.2302,4.1639,4.0368,4.1105,4.1463,4.1255,4.1969,4.2449,4.2715,4.3348,4.3668,4.3741,4.3741,4.4045,0.0,0.0,0.0,2.914,0.0,0.0,0.0,0.0,2.714,0.0,0.0,0.0,0.0,0.0,0.0,0.0,0.0,0.0,0.0,0.0,0.0,0.0,0.0,0.0,0.0,4.0453,4.0463,0.0,4.0528,4.047,4.3352,4.1974,4.1462,4.2249,4.1479,4.1058,4.1058,4.1077,4.1095,4.1095,4.0286,3.99,3.9863,3.9074,3.8707,3.8707,3.8707,3.8707,3.8707,3.8707,3.9166,3.9845,3.9882,4.0855,4.2213,4.2213,4.2268,4.2415,4.3185,4.3478,4.3515,4.3515,4.3515,4.3515,4.3515,4.3515,4.3515,4.3515,4.3515,4.3232,4.2124,4.2262,4.2539,4.1937,4.2262,4.2808,4.3321,4.3462,4.3462,4.3462,4.3462,4.3303,4.2788,4.2711,4.2693,4.2674,4.3142,4.3322,4.2769,4.3178,4.3286,4.2769,4.3178,4.3479,4.348,4.2995,4.246,4.1874,4.1291,4.0926,4.088,4.0903,4.1331,4.2152,4.2627,4.3348,4.4331,4.4292,4.4378,4.4564,4.4564,4.4581,0.0,0.0,3.0917,3.0554,0.0,0.0,0.0,0.0,0.0,0.0,0.0,0.0,0.0,0.0,0.0,0.0,0.0,0.0,0.0,0.0,0.0,0.0,0.0,0.0,0.0,0.0,0.0,0.0,4.0899,0.0,4.2885,4.2298,4.2029,4.2286,4.2047,4.1901,4.1901,4.2415,4.269,4.2671,4.1864,4.1203,4.0671,3.9863,3.9478,3.946,3.8927,3.9297,4.0251,3.9717,3.9974,4.0763,4.1277,4.1827,4.2304,4.2304,4.2635,4.313,4.3423,4.3515,4.3515,4.3515,4.3515,4.3515,4.3515,4.3515,4.3515,4.3515,4.3515,4.3321,4.2598,4.2557,4.2539,4.1937,4.1958,4.2144,4.2327,4.2694,4.2976,4.2976,4.2976,4.3032,4.3196,4.2939,4.2711,4.2711,4.316,4.3427,4.325,4.3392,4.3286,4.2769,4.2864,4.2808,4.2406,4.2206,4.1853,4.1228,4.1402,4.1173,4.0392,4.1597,4.2228,4.2133,4.3286,4.4028,4.4335,4.4445,4.4521,4.4615,4.4615,4.4615,3.0748,3.1294,0.0,3.1031,3.0746,0.0,3.0095,0.0,0.0,0.0,0.0,0.0,0.0,0.0,0.0,0.0,0.0,0.0,0.0,0.0,0.0,0.0,0.0,0.0,0.0,0.0,3.8551,4.0621,4.0063,0.0,0.0,4.2232,4.2207,4.2708,4.2727,4.2727,4.2727,4.3239,4.3515,4.3496,4.2671,4.2029,4.1515,4.0689,4.0322,4.0304,3.979,4.0141,4.1058,4.0543,4.0799,4.1572,4.2103,4.247,4.2727,4.2727,4.3039,4.3515,4.3515,4.3515,4.3515,4.3515,4.3515,4.3515,4.3515,4.3515,4.3515,4.3515,4.3515,4.3375,4.2845,4.2845,4.2846,4.2244,4.2284,4.2406,4.2406,4.2714,4.2976,4.2976,4.2976,4.3087,4.3444,4.3069,4.2769,4.2958,4.3268,4.3515,4.3515,4.3515,4.3286,4.2769,4.2711,4.246,4.1853,4.181,4.1621,4.1228,4.138,4.1272,4.0827,4.1992,4.2748,4.2913,4.3883,4.4481,4.4724,4.4657,4.4615,4.4615,4.4615,4.4615]}]]